<?xml version="1.0" encoding="UTF-8" standalone="no" ?>
<gpx xmlns="http://www.topografix.com/GPX/1/1" xmlns:xsi="http://www.w3.org/2001/XMLSchema-instance" xsi:schemaLocation="http://www.topografix.com/GPX/1/1 http://www.topografix.com/GPX/1/1/gpx.xsd" version="1.1" creator="VisuGPX - https://www.visugpx.com">
  <metadata>
    <name>Lurtet</name>
  </metadata>
  <trk>
    <name><![CDATA[Lurtet]]></name>
    <trkseg>
      <trkpt lat="42.90422" lon="0.10331">
        <ele>1350</ele>
        <time>2022-02-22T06:44:17Z</time>
      </trkpt>
      <trkpt lat="42.90418" lon="0.10331">
        <ele>1349</ele>
        <time>2022-02-22T06:44:28Z</time>
      </trkpt>
      <trkpt lat="42.90417" lon="0.10332">
        <ele>1350</ele>
        <time>2022-02-22T06:44:44Z</time>
      </trkpt>
      <trkpt lat="42.90417" lon="0.10333">
        <ele>1350</ele>
        <time>2022-02-22T06:44:59Z</time>
      </trkpt>
      <trkpt lat="42.90416" lon="0.10335">
        <ele>1350</ele>
        <time>2022-02-22T06:45:12Z</time>
      </trkpt>
      <trkpt lat="42.90415" lon="0.10336">
        <ele>1349</ele>
        <time>2022-02-22T06:45:25Z</time>
      </trkpt>
      <trkpt lat="42.90414" lon="0.10337">
        <ele>1349</ele>
        <time>2022-02-22T06:45:40Z</time>
      </trkpt>
      <trkpt lat="42.90414" lon="0.10341">
        <ele>1350</ele>
        <time>2022-02-22T06:45:56Z</time>
      </trkpt>
      <trkpt lat="42.90407" lon="0.10343">
        <ele>1354</ele>
        <time>2022-02-22T06:46:02Z</time>
      </trkpt>
      <trkpt lat="42.90406" lon="0.10343">
        <ele>1358</ele>
        <time>2022-02-22T06:46:03Z</time>
      </trkpt>
      <trkpt lat="42.90406" lon="0.10344">
        <ele>1361</ele>
        <time>2022-02-22T06:46:04Z</time>
      </trkpt>
      <trkpt lat="42.90405" lon="0.10344">
        <ele>1364</ele>
        <time>2022-02-22T06:46:05Z</time>
      </trkpt>
      <trkpt lat="42.90404" lon="0.10344">
        <ele>1368</ele>
        <time>2022-02-22T06:46:06Z</time>
      </trkpt>
      <trkpt lat="42.90403" lon="0.10345">
        <ele>1371</ele>
        <time>2022-02-22T06:46:07Z</time>
      </trkpt>
      <trkpt lat="42.90402" lon="0.10346">
        <ele>1374</ele>
        <time>2022-02-22T06:46:08Z</time>
      </trkpt>
      <trkpt lat="42.90402" lon="0.10346">
        <ele>1378</ele>
        <time>2022-02-22T06:46:09Z</time>
      </trkpt>
      <trkpt lat="42.904" lon="0.10347">
        <ele>1384</ele>
        <time>2022-02-22T06:46:11Z</time>
      </trkpt>
      <trkpt lat="42.90398" lon="0.10348">
        <ele>1391</ele>
        <time>2022-02-22T06:46:13Z</time>
      </trkpt>
      <trkpt lat="42.90396" lon="0.10349">
        <ele>1395</ele>
        <time>2022-02-22T06:46:15Z</time>
      </trkpt>
      <trkpt lat="42.90395" lon="0.10349">
        <ele>1398</ele>
        <time>2022-02-22T06:46:16Z</time>
      </trkpt>
      <trkpt lat="42.90394" lon="0.10351">
        <ele>1403</ele>
        <time>2022-02-22T06:46:18Z</time>
      </trkpt>
      <trkpt lat="42.90394" lon="0.10353">
        <ele>1407</ele>
        <time>2022-02-22T06:46:20Z</time>
      </trkpt>
      <trkpt lat="42.90394" lon="0.10355">
        <ele>1412</ele>
        <time>2022-02-22T06:46:22Z</time>
      </trkpt>
      <trkpt lat="42.90394" lon="0.10356">
        <ele>1417</ele>
        <time>2022-02-22T06:46:24Z</time>
      </trkpt>
      <trkpt lat="42.90394" lon="0.10357">
        <ele>1420</ele>
        <time>2022-02-22T06:46:26Z</time>
      </trkpt>
      <trkpt lat="42.90393" lon="0.1036">
        <ele>1423</ele>
        <time>2022-02-22T06:46:28Z</time>
      </trkpt>
      <trkpt lat="42.90392" lon="0.10363">
        <ele>1427</ele>
        <time>2022-02-22T06:46:30Z</time>
      </trkpt>
      <trkpt lat="42.90391" lon="0.10367">
        <ele>1431</ele>
        <time>2022-02-22T06:46:32Z</time>
      </trkpt>
      <trkpt lat="42.90389" lon="0.1037">
        <ele>1435</ele>
        <time>2022-02-22T06:46:35Z</time>
      </trkpt>
      <trkpt lat="42.90388" lon="0.1037">
        <ele>1437</ele>
        <time>2022-02-22T06:46:36Z</time>
      </trkpt>
      <trkpt lat="42.90385" lon="0.1037">
        <ele>1441</ele>
        <time>2022-02-22T06:46:40Z</time>
      </trkpt>
      <trkpt lat="42.90384" lon="0.1037">
        <ele>1444</ele>
        <time>2022-02-22T06:46:44Z</time>
      </trkpt>
      <trkpt lat="42.90384" lon="0.1037">
        <ele>1448</ele>
        <time>2022-02-22T06:46:48Z</time>
      </trkpt>
      <trkpt lat="42.90384" lon="0.1037">
        <ele>1448</ele>
        <time>2022-02-22T06:46:49Z</time>
      </trkpt>
      <trkpt lat="42.90385" lon="0.10368">
        <ele>1451</ele>
        <time>2022-02-22T06:46:52Z</time>
      </trkpt>
      <trkpt lat="42.90385" lon="0.10367">
        <ele>1455</ele>
        <time>2022-02-22T06:46:56Z</time>
      </trkpt>
      <trkpt lat="42.90385" lon="0.10367">
        <ele>1455</ele>
        <time>2022-02-22T06:46:57Z</time>
      </trkpt>
      <trkpt lat="42.90385" lon="0.10367">
        <ele>1458</ele>
        <time>2022-02-22T06:47:03Z</time>
      </trkpt>
      <trkpt lat="42.90384" lon="0.1037">
        <ele>1461</ele>
        <time>2022-02-22T06:47:11Z</time>
      </trkpt>
      <trkpt lat="42.90383" lon="0.1037">
        <ele>1462</ele>
        <time>2022-02-22T06:47:13Z</time>
      </trkpt>
      <trkpt lat="42.90382" lon="0.1037">
        <ele>1467</ele>
        <time>2022-02-22T06:47:17Z</time>
      </trkpt>
      <trkpt lat="42.90382" lon="0.1037">
        <ele>1465</ele>
        <time>2022-02-22T06:47:18Z</time>
      </trkpt>
      <trkpt lat="42.90382" lon="0.10368">
        <ele>1468</ele>
        <time>2022-02-22T06:47:31Z</time>
      </trkpt>
      <trkpt lat="42.90381" lon="0.1037">
        <ele>1470</ele>
        <time>2022-02-22T06:47:49Z</time>
      </trkpt>
      <trkpt lat="42.9038" lon="0.10368">
        <ele>1473</ele>
        <time>2022-02-22T06:48:04Z</time>
      </trkpt>
      <trkpt lat="42.90371" lon="0.10361">
        <ele>1473</ele>
        <time>2022-02-22T06:48:18Z</time>
      </trkpt>
      <trkpt lat="42.90368" lon="0.10357">
        <ele>1473</ele>
        <time>2022-02-22T06:48:24Z</time>
      </trkpt>
      <trkpt lat="42.9036" lon="0.10346">
        <ele>1469</ele>
        <time>2022-02-22T06:48:32Z</time>
      </trkpt>
      <trkpt lat="42.9036" lon="0.10345">
        <ele>1473</ele>
        <time>2022-02-22T06:48:33Z</time>
      </trkpt>
      <trkpt lat="42.90355" lon="0.10338">
        <ele>1471</ele>
        <time>2022-02-22T06:48:39Z</time>
      </trkpt>
      <trkpt lat="42.90354" lon="0.10336">
        <ele>1471</ele>
        <time>2022-02-22T06:48:41Z</time>
      </trkpt>
      <trkpt lat="42.90348" lon="0.10332">
        <ele>1470</ele>
        <time>2022-02-22T06:48:48Z</time>
      </trkpt>
      <trkpt lat="42.90335" lon="0.10328">
        <ele>1470</ele>
        <time>2022-02-22T06:49:02Z</time>
      </trkpt>
      <trkpt lat="42.9033" lon="0.10328">
        <ele>1467</ele>
        <time>2022-02-22T06:49:07Z</time>
      </trkpt>
      <trkpt lat="42.90329" lon="0.10328">
        <ele>1470</ele>
        <time>2022-02-22T06:49:08Z</time>
      </trkpt>
      <trkpt lat="42.90328" lon="0.10329">
        <ele>1468</ele>
        <time>2022-02-22T06:49:09Z</time>
      </trkpt>
      <trkpt lat="42.90327" lon="0.10329">
        <ele>1470</ele>
        <time>2022-02-22T06:49:10Z</time>
      </trkpt>
      <trkpt lat="42.90325" lon="0.1033">
        <ele>1470</ele>
        <time>2022-02-22T06:49:25Z</time>
      </trkpt>
      <trkpt lat="42.90334" lon="0.10329">
        <ele>1471</ele>
        <time>2022-02-22T06:49:38Z</time>
      </trkpt>
      <trkpt lat="42.90336" lon="0.10329">
        <ele>1471</ele>
        <time>2022-02-22T06:49:54Z</time>
      </trkpt>
      <trkpt lat="42.90333" lon="0.10333">
        <ele>1471</ele>
        <time>2022-02-22T06:50:17Z</time>
      </trkpt>
      <trkpt lat="42.90337" lon="0.10332">
        <ele>1471</ele>
        <time>2022-02-22T06:50:45Z</time>
      </trkpt>
      <trkpt lat="42.9034" lon="0.1032">
        <ele>1470</ele>
        <time>2022-02-22T06:51:15Z</time>
      </trkpt>
      <trkpt lat="42.90335" lon="0.10335">
        <ele>1470</ele>
        <time>2022-02-22T06:51:43Z</time>
      </trkpt>
      <trkpt lat="42.90329" lon="0.10336">
        <ele>1470</ele>
        <time>2022-02-22T06:52:05Z</time>
      </trkpt>
      <trkpt lat="42.90333" lon="0.10329">
        <ele>1470</ele>
        <time>2022-02-22T06:52:32Z</time>
      </trkpt>
      <trkpt lat="42.9034" lon="0.1033">
        <ele>1470</ele>
        <time>2022-02-22T06:52:58Z</time>
      </trkpt>
      <trkpt lat="42.90335" lon="0.10335">
        <ele>1470</ele>
        <time>2022-02-22T06:53:09Z</time>
      </trkpt>
      <trkpt lat="42.90315" lon="0.10333">
        <ele>1471</ele>
        <time>2022-02-22T06:53:20Z</time>
      </trkpt>
      <trkpt lat="42.90295" lon="0.10339">
        <ele>1472</ele>
        <time>2022-02-22T06:53:35Z</time>
      </trkpt>
      <trkpt lat="42.9028" lon="0.10345">
        <ele>1474</ele>
        <time>2022-02-22T06:53:50Z</time>
      </trkpt>
      <trkpt lat="42.9027" lon="0.10349">
        <ele>1474</ele>
        <time>2022-02-22T06:54:02Z</time>
      </trkpt>
      <trkpt lat="42.90255" lon="0.10356">
        <ele>1475</ele>
        <time>2022-02-22T06:54:18Z</time>
      </trkpt>
      <trkpt lat="42.90235" lon="0.10359">
        <ele>1476</ele>
        <time>2022-02-22T06:54:34Z</time>
      </trkpt>
      <trkpt lat="42.90227" lon="0.10362">
        <ele>1476</ele>
        <time>2022-02-22T06:54:43Z</time>
      </trkpt>
      <trkpt lat="42.90214" lon="0.10365">
        <ele>1477</ele>
        <time>2022-02-22T06:54:56Z</time>
      </trkpt>
      <trkpt lat="42.90201" lon="0.10365">
        <ele>1479</ele>
        <time>2022-02-22T06:55:10Z</time>
      </trkpt>
      <trkpt lat="42.90187" lon="0.1037">
        <ele>1481</ele>
        <time>2022-02-22T06:55:26Z</time>
      </trkpt>
      <trkpt lat="42.90178" lon="0.10375">
        <ele>1481</ele>
        <time>2022-02-22T06:55:38Z</time>
      </trkpt>
      <trkpt lat="42.90166" lon="0.10377">
        <ele>1482</ele>
        <time>2022-02-22T06:55:52Z</time>
      </trkpt>
      <trkpt lat="42.90152" lon="0.10383">
        <ele>1483</ele>
        <time>2022-02-22T06:56:07Z</time>
      </trkpt>
      <trkpt lat="42.90139" lon="0.10383">
        <ele>1485</ele>
        <time>2022-02-22T06:56:22Z</time>
      </trkpt>
      <trkpt lat="42.90134" lon="0.10386">
        <ele>1485</ele>
        <time>2022-02-22T06:56:28Z</time>
      </trkpt>
      <trkpt lat="42.90123" lon="0.10393">
        <ele>1486</ele>
        <time>2022-02-22T06:56:42Z</time>
      </trkpt>
      <trkpt lat="42.90114" lon="0.10396">
        <ele>1487</ele>
        <time>2022-02-22T06:56:52Z</time>
      </trkpt>
      <trkpt lat="42.90099" lon="0.10398">
        <ele>1488</ele>
        <time>2022-02-22T06:57:07Z</time>
      </trkpt>
      <trkpt lat="42.90086" lon="0.10401">
        <ele>1490</ele>
        <time>2022-02-22T06:57:22Z</time>
      </trkpt>
      <trkpt lat="42.90071" lon="0.10404">
        <ele>1490</ele>
        <time>2022-02-22T06:57:38Z</time>
      </trkpt>
      <trkpt lat="42.90063" lon="0.10404">
        <ele>1491</ele>
        <time>2022-02-22T06:57:46Z</time>
      </trkpt>
      <trkpt lat="42.90051" lon="0.10406">
        <ele>1493</ele>
        <time>2022-02-22T06:58:03Z</time>
      </trkpt>
      <trkpt lat="42.90037" lon="0.10411">
        <ele>1495</ele>
        <time>2022-02-22T06:58:18Z</time>
      </trkpt>
      <trkpt lat="42.90025" lon="0.10414">
        <ele>1497</ele>
        <time>2022-02-22T06:58:33Z</time>
      </trkpt>
      <trkpt lat="42.90018" lon="0.10415">
        <ele>1497</ele>
        <time>2022-02-22T06:58:44Z</time>
      </trkpt>
      <trkpt lat="42.9" lon="0.10419">
        <ele>1498</ele>
        <time>2022-02-22T06:59:00Z</time>
      </trkpt>
      <trkpt lat="42.89996" lon="0.1042">
        <ele>1498</ele>
        <time>2022-02-22T06:59:04Z</time>
      </trkpt>
      <trkpt lat="42.89981" lon="0.10426">
        <ele>1498</ele>
        <time>2022-02-22T06:59:17Z</time>
      </trkpt>
      <trkpt lat="42.89965" lon="0.10428">
        <ele>1498</ele>
        <time>2022-02-22T06:59:31Z</time>
      </trkpt>
      <trkpt lat="42.8996" lon="0.10428">
        <ele>1498</ele>
        <time>2022-02-22T06:59:39Z</time>
      </trkpt>
      <trkpt lat="42.89946" lon="0.10431">
        <ele>1499</ele>
        <time>2022-02-22T06:59:50Z</time>
      </trkpt>
      <trkpt lat="42.89924" lon="0.10433">
        <ele>1499</ele>
        <time>2022-02-22T07:00:08Z</time>
      </trkpt>
      <trkpt lat="42.89912" lon="0.10436">
        <ele>1501</ele>
        <time>2022-02-22T07:00:19Z</time>
      </trkpt>
      <trkpt lat="42.89897" lon="0.10439">
        <ele>1502</ele>
        <time>2022-02-22T07:00:34Z</time>
      </trkpt>
      <trkpt lat="42.89881" lon="0.10438">
        <ele>1504</ele>
        <time>2022-02-22T07:00:51Z</time>
      </trkpt>
      <trkpt lat="42.89873" lon="0.10439">
        <ele>1506</ele>
        <time>2022-02-22T07:01:04Z</time>
      </trkpt>
      <trkpt lat="42.89868" lon="0.10441">
        <ele>1507</ele>
        <time>2022-02-22T07:01:11Z</time>
      </trkpt>
      <trkpt lat="42.89859" lon="0.10444">
        <ele>1509</ele>
        <time>2022-02-22T07:01:24Z</time>
      </trkpt>
      <trkpt lat="42.89849" lon="0.10448">
        <ele>1511</ele>
        <time>2022-02-22T07:01:39Z</time>
      </trkpt>
      <trkpt lat="42.89846" lon="0.1045">
        <ele>1511</ele>
        <time>2022-02-22T07:01:54Z</time>
      </trkpt>
      <trkpt lat="42.89836" lon="0.10458">
        <ele>1511</ele>
        <time>2022-02-22T07:02:07Z</time>
      </trkpt>
      <trkpt lat="42.89829" lon="0.1046">
        <ele>1512</ele>
        <time>2022-02-22T07:02:16Z</time>
      </trkpt>
      <trkpt lat="42.89816" lon="0.10468">
        <ele>1513</ele>
        <time>2022-02-22T07:02:30Z</time>
      </trkpt>
      <trkpt lat="42.89803" lon="0.10477">
        <ele>1514</ele>
        <time>2022-02-22T07:02:45Z</time>
      </trkpt>
      <trkpt lat="42.89796" lon="0.10483">
        <ele>1514</ele>
        <time>2022-02-22T07:02:58Z</time>
      </trkpt>
      <trkpt lat="42.89787" lon="0.10492">
        <ele>1516</ele>
        <time>2022-02-22T07:03:12Z</time>
      </trkpt>
      <trkpt lat="42.89774" lon="0.10495">
        <ele>1518</ele>
        <time>2022-02-22T07:03:26Z</time>
      </trkpt>
      <trkpt lat="42.89763" lon="0.10497">
        <ele>1519</ele>
        <time>2022-02-22T07:03:39Z</time>
      </trkpt>
      <trkpt lat="42.89758" lon="0.10498">
        <ele>1519</ele>
        <time>2022-02-22T07:03:44Z</time>
      </trkpt>
      <trkpt lat="42.89756" lon="0.10498">
        <ele>1519</ele>
        <time>2022-02-22T07:03:46Z</time>
      </trkpt>
      <trkpt lat="42.89744" lon="0.10494">
        <ele>1521</ele>
        <time>2022-02-22T07:03:59Z</time>
      </trkpt>
      <trkpt lat="42.89733" lon="0.1049">
        <ele>1522</ele>
        <time>2022-02-22T07:04:11Z</time>
      </trkpt>
      <trkpt lat="42.89723" lon="0.10483">
        <ele>1524</ele>
        <time>2022-02-22T07:04:24Z</time>
      </trkpt>
      <trkpt lat="42.89719" lon="0.10479">
        <ele>1525</ele>
        <time>2022-02-22T07:04:37Z</time>
      </trkpt>
      <trkpt lat="42.89705" lon="0.10483">
        <ele>1526</ele>
        <time>2022-02-22T07:04:53Z</time>
      </trkpt>
      <trkpt lat="42.89693" lon="0.10484">
        <ele>1528</ele>
        <time>2022-02-22T07:05:06Z</time>
      </trkpt>
      <trkpt lat="42.89684" lon="0.10481">
        <ele>1531</ele>
        <time>2022-02-22T07:05:21Z</time>
      </trkpt>
      <trkpt lat="42.89682" lon="0.10482">
        <ele>1532</ele>
        <time>2022-02-22T07:05:24Z</time>
      </trkpt>
      <trkpt lat="42.89673" lon="0.10481">
        <ele>1532</ele>
        <time>2022-02-22T07:05:36Z</time>
      </trkpt>
      <trkpt lat="42.89664" lon="0.10484">
        <ele>1533</ele>
        <time>2022-02-22T07:05:48Z</time>
      </trkpt>
      <trkpt lat="42.89651" lon="0.10487">
        <ele>1534</ele>
        <time>2022-02-22T07:06:01Z</time>
      </trkpt>
      <trkpt lat="42.89648" lon="0.10487">
        <ele>1535</ele>
        <time>2022-02-22T07:06:04Z</time>
      </trkpt>
      <trkpt lat="42.89637" lon="0.10483">
        <ele>1536</ele>
        <time>2022-02-22T07:06:16Z</time>
      </trkpt>
      <trkpt lat="42.89624" lon="0.10483">
        <ele>1537</ele>
        <time>2022-02-22T07:06:28Z</time>
      </trkpt>
      <trkpt lat="42.89612" lon="0.10482">
        <ele>1538</ele>
        <time>2022-02-22T07:06:40Z</time>
      </trkpt>
      <trkpt lat="42.89613" lon="0.10479">
        <ele>1537</ele>
        <time>2022-02-22T07:06:43Z</time>
      </trkpt>
      <trkpt lat="42.89604" lon="0.10476">
        <ele>1539</ele>
        <time>2022-02-22T07:06:52Z</time>
      </trkpt>
      <trkpt lat="42.89595" lon="0.10475">
        <ele>1540</ele>
        <time>2022-02-22T07:07:00Z</time>
      </trkpt>
      <trkpt lat="42.89583" lon="0.10467">
        <ele>1541</ele>
        <time>2022-02-22T07:07:13Z</time>
      </trkpt>
      <trkpt lat="42.8957" lon="0.10459">
        <ele>1543</ele>
        <time>2022-02-22T07:07:26Z</time>
      </trkpt>
      <trkpt lat="42.89559" lon="0.10456">
        <ele>1543</ele>
        <time>2022-02-22T07:07:39Z</time>
      </trkpt>
      <trkpt lat="42.89555" lon="0.10462">
        <ele>1543</ele>
        <time>2022-02-22T07:07:46Z</time>
      </trkpt>
      <trkpt lat="42.89555" lon="0.10466">
        <ele>1543</ele>
        <time>2022-02-22T07:07:50Z</time>
      </trkpt>
      <trkpt lat="42.89551" lon="0.10484">
        <ele>1543</ele>
        <time>2022-02-22T07:08:01Z</time>
      </trkpt>
      <trkpt lat="42.89543" lon="0.105">
        <ele>1544</ele>
        <time>2022-02-22T07:08:15Z</time>
      </trkpt>
      <trkpt lat="42.89538" lon="0.1051">
        <ele>1544</ele>
        <time>2022-02-22T07:08:30Z</time>
      </trkpt>
      <trkpt lat="42.89544" lon="0.10503">
        <ele>1544</ele>
        <time>2022-02-22T07:08:50Z</time>
      </trkpt>
      <trkpt lat="42.89537" lon="0.10508">
        <ele>1544</ele>
        <time>2022-02-22T07:08:55Z</time>
      </trkpt>
      <trkpt lat="42.8953" lon="0.10514">
        <ele>1545</ele>
        <time>2022-02-22T07:09:05Z</time>
      </trkpt>
      <trkpt lat="42.89523" lon="0.10518">
        <ele>1547</ele>
        <time>2022-02-22T07:09:15Z</time>
      </trkpt>
      <trkpt lat="42.89514" lon="0.10527">
        <ele>1548</ele>
        <time>2022-02-22T07:09:30Z</time>
      </trkpt>
      <trkpt lat="42.89504" lon="0.10534">
        <ele>1551</ele>
        <time>2022-02-22T07:09:44Z</time>
      </trkpt>
      <trkpt lat="42.89503" lon="0.10534">
        <ele>1551</ele>
        <time>2022-02-22T07:09:45Z</time>
      </trkpt>
      <trkpt lat="42.8949" lon="0.10531">
        <ele>1553</ele>
        <time>2022-02-22T07:09:57Z</time>
      </trkpt>
      <trkpt lat="42.89485" lon="0.10538">
        <ele>1554</ele>
        <time>2022-02-22T07:10:07Z</time>
      </trkpt>
      <trkpt lat="42.89481" lon="0.10542">
        <ele>1556</ele>
        <time>2022-02-22T07:10:14Z</time>
      </trkpt>
      <trkpt lat="42.89476" lon="0.1055">
        <ele>1555</ele>
        <time>2022-02-22T07:10:22Z</time>
      </trkpt>
      <trkpt lat="42.89467" lon="0.10563">
        <ele>1557</ele>
        <time>2022-02-22T07:10:36Z</time>
      </trkpt>
      <trkpt lat="42.89461" lon="0.10578">
        <ele>1559</ele>
        <time>2022-02-22T07:10:50Z</time>
      </trkpt>
      <trkpt lat="42.89452" lon="0.10587">
        <ele>1562</ele>
        <time>2022-02-22T07:11:05Z</time>
      </trkpt>
      <trkpt lat="42.89444" lon="0.10597">
        <ele>1565</ele>
        <time>2022-02-22T07:11:21Z</time>
      </trkpt>
      <trkpt lat="42.89439" lon="0.10605">
        <ele>1567</ele>
        <time>2022-02-22T07:11:36Z</time>
      </trkpt>
      <trkpt lat="42.8943" lon="0.10615">
        <ele>1569</ele>
        <time>2022-02-22T07:11:53Z</time>
      </trkpt>
      <trkpt lat="42.89422" lon="0.10628">
        <ele>1571</ele>
        <time>2022-02-22T07:12:09Z</time>
      </trkpt>
      <trkpt lat="42.89419" lon="0.10639">
        <ele>1574</ele>
        <time>2022-02-22T07:12:26Z</time>
      </trkpt>
      <trkpt lat="42.89414" lon="0.10644">
        <ele>1576</ele>
        <time>2022-02-22T07:12:34Z</time>
      </trkpt>
      <trkpt lat="42.89405" lon="0.10643">
        <ele>1577</ele>
        <time>2022-02-22T07:12:44Z</time>
      </trkpt>
      <trkpt lat="42.89392" lon="0.10638">
        <ele>1579</ele>
        <time>2022-02-22T07:13:01Z</time>
      </trkpt>
      <trkpt lat="42.89383" lon="0.10644">
        <ele>1581</ele>
        <time>2022-02-22T07:13:15Z</time>
      </trkpt>
      <trkpt lat="42.89375" lon="0.10645">
        <ele>1583</ele>
        <time>2022-02-22T07:13:25Z</time>
      </trkpt>
      <trkpt lat="42.89373" lon="0.10645">
        <ele>1583</ele>
        <time>2022-02-22T07:13:33Z</time>
      </trkpt>
      <trkpt lat="42.89359" lon="0.10639">
        <ele>1586</ele>
        <time>2022-02-22T07:13:49Z</time>
      </trkpt>
      <trkpt lat="42.89347" lon="0.1064">
        <ele>1587</ele>
        <time>2022-02-22T07:14:05Z</time>
      </trkpt>
      <trkpt lat="42.8934" lon="0.10632">
        <ele>1589</ele>
        <time>2022-02-22T07:14:17Z</time>
      </trkpt>
      <trkpt lat="42.89334" lon="0.10631">
        <ele>1589</ele>
        <time>2022-02-22T07:14:33Z</time>
      </trkpt>
      <trkpt lat="42.89322" lon="0.1063">
        <ele>1592</ele>
        <time>2022-02-22T07:14:49Z</time>
      </trkpt>
      <trkpt lat="42.89311" lon="0.10631">
        <ele>1594</ele>
        <time>2022-02-22T07:15:05Z</time>
      </trkpt>
      <trkpt lat="42.89303" lon="0.10625">
        <ele>1595</ele>
        <time>2022-02-22T07:15:23Z</time>
      </trkpt>
      <trkpt lat="42.89292" lon="0.10622">
        <ele>1597</ele>
        <time>2022-02-22T07:15:39Z</time>
      </trkpt>
      <trkpt lat="42.89285" lon="0.10626">
        <ele>1599</ele>
        <time>2022-02-22T07:15:52Z</time>
      </trkpt>
      <trkpt lat="42.89273" lon="0.10622">
        <ele>1602</ele>
        <time>2022-02-22T07:16:08Z</time>
      </trkpt>
      <trkpt lat="42.89259" lon="0.10629">
        <ele>1604</ele>
        <time>2022-02-22T07:16:25Z</time>
      </trkpt>
      <trkpt lat="42.89256" lon="0.10631">
        <ele>1604</ele>
        <time>2022-02-22T07:16:32Z</time>
      </trkpt>
      <trkpt lat="42.89245" lon="0.10631">
        <ele>1607</ele>
        <time>2022-02-22T07:16:47Z</time>
      </trkpt>
      <trkpt lat="42.89238" lon="0.10631">
        <ele>1607</ele>
        <time>2022-02-22T07:16:55Z</time>
      </trkpt>
      <trkpt lat="42.89234" lon="0.10629">
        <ele>1608</ele>
        <time>2022-02-22T07:17:00Z</time>
      </trkpt>
      <trkpt lat="42.89222" lon="0.10632">
        <ele>1610</ele>
        <time>2022-02-22T07:17:15Z</time>
      </trkpt>
      <trkpt lat="42.89212" lon="0.10637">
        <ele>1613</ele>
        <time>2022-02-22T07:17:31Z</time>
      </trkpt>
      <trkpt lat="42.89202" lon="0.10641">
        <ele>1615</ele>
        <time>2022-02-22T07:17:47Z</time>
      </trkpt>
      <trkpt lat="42.89191" lon="0.10646">
        <ele>1618</ele>
        <time>2022-02-22T07:18:05Z</time>
      </trkpt>
      <trkpt lat="42.89185" lon="0.10651">
        <ele>1619</ele>
        <time>2022-02-22T07:18:20Z</time>
      </trkpt>
      <trkpt lat="42.89178" lon="0.10653">
        <ele>1620</ele>
        <time>2022-02-22T07:18:34Z</time>
      </trkpt>
      <trkpt lat="42.89168" lon="0.10659">
        <ele>1622</ele>
        <time>2022-02-22T07:18:50Z</time>
      </trkpt>
      <trkpt lat="42.8916" lon="0.10665">
        <ele>1624</ele>
        <time>2022-02-22T07:19:05Z</time>
      </trkpt>
      <trkpt lat="42.8915" lon="0.1067">
        <ele>1627</ele>
        <time>2022-02-22T07:19:20Z</time>
      </trkpt>
      <trkpt lat="42.89139" lon="0.10673">
        <ele>1629</ele>
        <time>2022-02-22T07:19:35Z</time>
      </trkpt>
      <trkpt lat="42.89132" lon="0.10682">
        <ele>1632</ele>
        <time>2022-02-22T07:19:52Z</time>
      </trkpt>
      <trkpt lat="42.89126" lon="0.10691">
        <ele>1634</ele>
        <time>2022-02-22T07:20:08Z</time>
      </trkpt>
      <trkpt lat="42.8912" lon="0.10696">
        <ele>1636</ele>
        <time>2022-02-22T07:20:21Z</time>
      </trkpt>
      <trkpt lat="42.89121" lon="0.10697">
        <ele>1636</ele>
        <time>2022-02-22T07:20:27Z</time>
      </trkpt>
      <trkpt lat="42.89134" lon="0.107">
        <ele>1638</ele>
        <time>2022-02-22T07:20:38Z</time>
      </trkpt>
      <trkpt lat="42.89139" lon="0.10704">
        <ele>1640</ele>
        <time>2022-02-22T07:20:50Z</time>
      </trkpt>
      <trkpt lat="42.89129" lon="0.10709">
        <ele>1641</ele>
        <time>2022-02-22T07:21:08Z</time>
      </trkpt>
      <trkpt lat="42.89122" lon="0.10717">
        <ele>1643</ele>
        <time>2022-02-22T07:21:22Z</time>
      </trkpt>
      <trkpt lat="42.89107" lon="0.1072">
        <ele>1645</ele>
        <time>2022-02-22T07:21:38Z</time>
      </trkpt>
      <trkpt lat="42.89099" lon="0.10724">
        <ele>1647</ele>
        <time>2022-02-22T07:21:54Z</time>
      </trkpt>
      <trkpt lat="42.89093" lon="0.10725">
        <ele>1649</ele>
        <time>2022-02-22T07:22:10Z</time>
      </trkpt>
      <trkpt lat="42.8908" lon="0.10726">
        <ele>1652</ele>
        <time>2022-02-22T07:22:24Z</time>
      </trkpt>
      <trkpt lat="42.89075" lon="0.1073">
        <ele>1653</ele>
        <time>2022-02-22T07:22:34Z</time>
      </trkpt>
      <trkpt lat="42.89065" lon="0.10742">
        <ele>1654</ele>
        <time>2022-02-22T07:22:51Z</time>
      </trkpt>
      <trkpt lat="42.89057" lon="0.10748">
        <ele>1655</ele>
        <time>2022-02-22T07:23:05Z</time>
      </trkpt>
      <trkpt lat="42.89057" lon="0.10749">
        <ele>1656</ele>
        <time>2022-02-22T07:23:07Z</time>
      </trkpt>
      <trkpt lat="42.89042" lon="0.10754">
        <ele>1657</ele>
        <time>2022-02-22T07:23:24Z</time>
      </trkpt>
      <trkpt lat="42.89028" lon="0.10753">
        <ele>1659</ele>
        <time>2022-02-22T07:23:39Z</time>
      </trkpt>
      <trkpt lat="42.89012" lon="0.10755">
        <ele>1660</ele>
        <time>2022-02-22T07:23:52Z</time>
      </trkpt>
      <trkpt lat="42.88995" lon="0.10753">
        <ele>1661</ele>
        <time>2022-02-22T07:24:07Z</time>
      </trkpt>
      <trkpt lat="42.88983" lon="0.10751">
        <ele>1662</ele>
        <time>2022-02-22T07:24:20Z</time>
      </trkpt>
      <trkpt lat="42.88978" lon="0.10748">
        <ele>1662</ele>
        <time>2022-02-22T07:24:27Z</time>
      </trkpt>
      <trkpt lat="42.88972" lon="0.10747">
        <ele>1664</ele>
        <time>2022-02-22T07:24:35Z</time>
      </trkpt>
      <trkpt lat="42.8896" lon="0.10749">
        <ele>1666</ele>
        <time>2022-02-22T07:24:50Z</time>
      </trkpt>
      <trkpt lat="42.88951" lon="0.10749">
        <ele>1667</ele>
        <time>2022-02-22T07:25:04Z</time>
      </trkpt>
      <trkpt lat="42.88941" lon="0.10753">
        <ele>1667</ele>
        <time>2022-02-22T07:25:19Z</time>
      </trkpt>
      <trkpt lat="42.88927" lon="0.10763">
        <ele>1669</ele>
        <time>2022-02-22T07:25:37Z</time>
      </trkpt>
      <trkpt lat="42.88918" lon="0.10771">
        <ele>1670</ele>
        <time>2022-02-22T07:25:48Z</time>
      </trkpt>
      <trkpt lat="42.88908" lon="0.10781">
        <ele>1671</ele>
        <time>2022-02-22T07:26:03Z</time>
      </trkpt>
      <trkpt lat="42.88892" lon="0.10792">
        <ele>1672</ele>
        <time>2022-02-22T07:26:22Z</time>
      </trkpt>
      <trkpt lat="42.88886" lon="0.10793">
        <ele>1672</ele>
        <time>2022-02-22T07:26:27Z</time>
      </trkpt>
      <trkpt lat="42.88873" lon="0.10797">
        <ele>1674</ele>
        <time>2022-02-22T07:26:42Z</time>
      </trkpt>
      <trkpt lat="42.88868" lon="0.10799">
        <ele>1675</ele>
        <time>2022-02-22T07:26:57Z</time>
      </trkpt>
      <trkpt lat="42.88856" lon="0.10804">
        <ele>1676</ele>
        <time>2022-02-22T07:27:11Z</time>
      </trkpt>
      <trkpt lat="42.88846" lon="0.1081">
        <ele>1677</ele>
        <time>2022-02-22T07:27:24Z</time>
      </trkpt>
      <trkpt lat="42.88833" lon="0.10816">
        <ele>1679</ele>
        <time>2022-02-22T07:27:38Z</time>
      </trkpt>
      <trkpt lat="42.88817" lon="0.1082">
        <ele>1681</ele>
        <time>2022-02-22T07:27:52Z</time>
      </trkpt>
      <trkpt lat="42.88804" lon="0.10826">
        <ele>1682</ele>
        <time>2022-02-22T07:28:06Z</time>
      </trkpt>
      <trkpt lat="42.88791" lon="0.10831">
        <ele>1684</ele>
        <time>2022-02-22T07:28:22Z</time>
      </trkpt>
      <trkpt lat="42.88772" lon="0.10835">
        <ele>1686</ele>
        <time>2022-02-22T07:28:38Z</time>
      </trkpt>
      <trkpt lat="42.88758" lon="0.10837">
        <ele>1687</ele>
        <time>2022-02-22T07:28:56Z</time>
      </trkpt>
      <trkpt lat="42.88746" lon="0.10838">
        <ele>1690</ele>
        <time>2022-02-22T07:29:10Z</time>
      </trkpt>
      <trkpt lat="42.8874" lon="0.1084">
        <ele>1691</ele>
        <time>2022-02-22T07:29:26Z</time>
      </trkpt>
      <trkpt lat="42.8874" lon="0.10843">
        <ele>1691</ele>
        <time>2022-02-22T07:29:43Z</time>
      </trkpt>
      <trkpt lat="42.88739" lon="0.1084">
        <ele>1691</ele>
        <time>2022-02-22T07:29:59Z</time>
      </trkpt>
      <trkpt lat="42.88747" lon="0.10839">
        <ele>1692</ele>
        <time>2022-02-22T07:30:19Z</time>
      </trkpt>
      <trkpt lat="42.88748" lon="0.10841">
        <ele>1693</ele>
        <time>2022-02-22T07:30:32Z</time>
      </trkpt>
      <trkpt lat="42.88751" lon="0.10843">
        <ele>1693</ele>
        <time>2022-02-22T07:30:45Z</time>
      </trkpt>
      <trkpt lat="42.8874" lon="0.10844">
        <ele>1693</ele>
        <time>2022-02-22T07:31:08Z</time>
      </trkpt>
      <trkpt lat="42.88735" lon="0.10849">
        <ele>1694</ele>
        <time>2022-02-22T07:31:25Z</time>
      </trkpt>
      <trkpt lat="42.88729" lon="0.10848">
        <ele>1695</ele>
        <time>2022-02-22T07:31:37Z</time>
      </trkpt>
      <trkpt lat="42.88712" lon="0.10847">
        <ele>1697</ele>
        <time>2022-02-22T07:31:54Z</time>
      </trkpt>
      <trkpt lat="42.88708" lon="0.10851">
        <ele>1698</ele>
        <time>2022-02-22T07:32:01Z</time>
      </trkpt>
      <trkpt lat="42.88698" lon="0.10859">
        <ele>1699</ele>
        <time>2022-02-22T07:32:18Z</time>
      </trkpt>
      <trkpt lat="42.88689" lon="0.10862">
        <ele>1701</ele>
        <time>2022-02-22T07:32:32Z</time>
      </trkpt>
      <trkpt lat="42.88674" lon="0.10864">
        <ele>1704</ele>
        <time>2022-02-22T07:32:48Z</time>
      </trkpt>
      <trkpt lat="42.88664" lon="0.10869">
        <ele>1706</ele>
        <time>2022-02-22T07:33:05Z</time>
      </trkpt>
      <trkpt lat="42.88656" lon="0.10867">
        <ele>1708</ele>
        <time>2022-02-22T07:33:18Z</time>
      </trkpt>
      <trkpt lat="42.88653" lon="0.10874">
        <ele>1707</ele>
        <time>2022-02-22T07:33:45Z</time>
      </trkpt>
      <trkpt lat="42.88642" lon="0.10872">
        <ele>1709</ele>
        <time>2022-02-22T07:34:00Z</time>
      </trkpt>
      <trkpt lat="42.88631" lon="0.10876">
        <ele>1711</ele>
        <time>2022-02-22T07:34:17Z</time>
      </trkpt>
      <trkpt lat="42.88633" lon="0.10873">
        <ele>1711</ele>
        <time>2022-02-22T07:34:37Z</time>
      </trkpt>
      <trkpt lat="42.88619" lon="0.10875">
        <ele>1713</ele>
        <time>2022-02-22T07:34:53Z</time>
      </trkpt>
      <trkpt lat="42.88618" lon="0.10875">
        <ele>1714</ele>
        <time>2022-02-22T07:34:54Z</time>
      </trkpt>
      <trkpt lat="42.88616" lon="0.10878">
        <ele>1715</ele>
        <time>2022-02-22T07:35:07Z</time>
      </trkpt>
      <trkpt lat="42.88617" lon="0.10878">
        <ele>1709</ele>
        <time>2022-02-22T07:35:09Z</time>
      </trkpt>
      <trkpt lat="42.88617" lon="0.10878">
        <ele>1717</ele>
        <time>2022-02-22T07:35:10Z</time>
      </trkpt>
      <trkpt lat="42.88614" lon="0.10879">
        <ele>1714</ele>
        <time>2022-02-22T07:35:14Z</time>
      </trkpt>
      <trkpt lat="42.88608" lon="0.10881">
        <ele>1715</ele>
        <time>2022-02-22T07:35:25Z</time>
      </trkpt>
      <trkpt lat="42.88602" lon="0.10885">
        <ele>1717</ele>
        <time>2022-02-22T07:35:33Z</time>
      </trkpt>
      <trkpt lat="42.88593" lon="0.10893">
        <ele>1718</ele>
        <time>2022-02-22T07:35:47Z</time>
      </trkpt>
      <trkpt lat="42.88585" lon="0.109">
        <ele>1719</ele>
        <time>2022-02-22T07:36:02Z</time>
      </trkpt>
      <trkpt lat="42.88577" lon="0.10907">
        <ele>1721</ele>
        <time>2022-02-22T07:36:17Z</time>
      </trkpt>
      <trkpt lat="42.88569" lon="0.10915">
        <ele>1724</ele>
        <time>2022-02-22T07:36:31Z</time>
      </trkpt>
      <trkpt lat="42.88557" lon="0.10924">
        <ele>1725</ele>
        <time>2022-02-22T07:36:46Z</time>
      </trkpt>
      <trkpt lat="42.88547" lon="0.10931">
        <ele>1726</ele>
        <time>2022-02-22T07:36:59Z</time>
      </trkpt>
      <trkpt lat="42.88538" lon="0.10939">
        <ele>1728</ele>
        <time>2022-02-22T07:37:12Z</time>
      </trkpt>
      <trkpt lat="42.88529" lon="0.1095">
        <ele>1730</ele>
        <time>2022-02-22T07:37:26Z</time>
      </trkpt>
      <trkpt lat="42.88527" lon="0.10952">
        <ele>1730</ele>
        <time>2022-02-22T07:37:29Z</time>
      </trkpt>
      <trkpt lat="42.88518" lon="0.1096">
        <ele>1730</ele>
        <time>2022-02-22T07:37:43Z</time>
      </trkpt>
      <trkpt lat="42.88507" lon="0.10971">
        <ele>1731</ele>
        <time>2022-02-22T07:37:59Z</time>
      </trkpt>
      <trkpt lat="42.88498" lon="0.10982">
        <ele>1732</ele>
        <time>2022-02-22T07:38:13Z</time>
      </trkpt>
      <trkpt lat="42.8849" lon="0.10994">
        <ele>1734</ele>
        <time>2022-02-22T07:38:27Z</time>
      </trkpt>
      <trkpt lat="42.88483" lon="0.11008">
        <ele>1736</ele>
        <time>2022-02-22T07:38:43Z</time>
      </trkpt>
      <trkpt lat="42.88472" lon="0.1102">
        <ele>1738</ele>
        <time>2022-02-22T07:38:59Z</time>
      </trkpt>
      <trkpt lat="42.88465" lon="0.11029">
        <ele>1739</ele>
        <time>2022-02-22T07:39:11Z</time>
      </trkpt>
      <trkpt lat="42.88456" lon="0.11037">
        <ele>1739</ele>
        <time>2022-02-22T07:39:23Z</time>
      </trkpt>
      <trkpt lat="42.8845" lon="0.11047">
        <ele>1740</ele>
        <time>2022-02-22T07:39:34Z</time>
      </trkpt>
      <trkpt lat="42.88442" lon="0.11059">
        <ele>1741</ele>
        <time>2022-02-22T07:39:47Z</time>
      </trkpt>
      <trkpt lat="42.88434" lon="0.11073">
        <ele>1741</ele>
        <time>2022-02-22T07:40:00Z</time>
      </trkpt>
      <trkpt lat="42.88433" lon="0.11076">
        <ele>1741</ele>
        <time>2022-02-22T07:40:03Z</time>
      </trkpt>
      <trkpt lat="42.88427" lon="0.11089">
        <ele>1742</ele>
        <time>2022-02-22T07:40:17Z</time>
      </trkpt>
      <trkpt lat="42.88425" lon="0.1109">
        <ele>1742</ele>
        <time>2022-02-22T07:40:19Z</time>
      </trkpt>
      <trkpt lat="42.88414" lon="0.11108">
        <ele>1743</ele>
        <time>2022-02-22T07:40:37Z</time>
      </trkpt>
      <trkpt lat="42.88403" lon="0.1112">
        <ele>1743</ele>
        <time>2022-02-22T07:40:52Z</time>
      </trkpt>
      <trkpt lat="42.88391" lon="0.11135">
        <ele>1744</ele>
        <time>2022-02-22T07:41:08Z</time>
      </trkpt>
      <trkpt lat="42.88386" lon="0.11149">
        <ele>1745</ele>
        <time>2022-02-22T07:41:22Z</time>
      </trkpt>
      <trkpt lat="42.88386" lon="0.1115">
        <ele>1745</ele>
        <time>2022-02-22T07:41:23Z</time>
      </trkpt>
      <trkpt lat="42.88384" lon="0.11155">
        <ele>1746</ele>
        <time>2022-02-22T07:41:27Z</time>
      </trkpt>
      <trkpt lat="42.88375" lon="0.11163">
        <ele>1745</ele>
        <time>2022-02-22T07:41:41Z</time>
      </trkpt>
      <trkpt lat="42.88366" lon="0.11162">
        <ele>1747</ele>
        <time>2022-02-22T07:41:56Z</time>
      </trkpt>
      <trkpt lat="42.88363" lon="0.11162">
        <ele>1747</ele>
        <time>2022-02-22T07:42:15Z</time>
      </trkpt>
      <trkpt lat="42.8836" lon="0.11161">
        <ele>1747</ele>
        <time>2022-02-22T07:42:40Z</time>
      </trkpt>
      <trkpt lat="42.8836" lon="0.1117">
        <ele>1747</ele>
        <time>2022-02-22T07:43:05Z</time>
      </trkpt>
      <trkpt lat="42.88359" lon="0.11168">
        <ele>1747</ele>
        <time>2022-02-22T07:43:24Z</time>
      </trkpt>
      <trkpt lat="42.88362" lon="0.11169">
        <ele>1747</ele>
        <time>2022-02-22T07:43:53Z</time>
      </trkpt>
      <trkpt lat="42.8836" lon="0.11164">
        <ele>1747</ele>
        <time>2022-02-22T07:44:10Z</time>
      </trkpt>
      <trkpt lat="42.8836" lon="0.11164">
        <ele>1747</ele>
        <time>2022-02-22T07:44:27Z</time>
      </trkpt>
      <trkpt lat="42.8836" lon="0.1117">
        <ele>1747</ele>
        <time>2022-02-22T07:44:57Z</time>
      </trkpt>
      <trkpt lat="42.88362" lon="0.11167">
        <ele>1747</ele>
        <time>2022-02-22T07:45:18Z</time>
      </trkpt>
      <trkpt lat="42.88355" lon="0.11175">
        <ele>1747</ele>
        <time>2022-02-22T07:45:46Z</time>
      </trkpt>
      <trkpt lat="42.8836" lon="0.11172">
        <ele>1746</ele>
        <time>2022-02-22T07:46:02Z</time>
      </trkpt>
      <trkpt lat="42.88359" lon="0.11173">
        <ele>1747</ele>
        <time>2022-02-22T07:46:23Z</time>
      </trkpt>
      <trkpt lat="42.88359" lon="0.11173">
        <ele>1747</ele>
        <time>2022-02-22T07:46:42Z</time>
      </trkpt>
      <trkpt lat="42.88359" lon="0.11168">
        <ele>1747</ele>
        <time>2022-02-22T07:47:11Z</time>
      </trkpt>
      <trkpt lat="42.88361" lon="0.11167">
        <ele>1747</ele>
        <time>2022-02-22T07:47:31Z</time>
      </trkpt>
      <trkpt lat="42.88361" lon="0.11174">
        <ele>1747</ele>
        <time>2022-02-22T07:47:59Z</time>
      </trkpt>
      <trkpt lat="42.88358" lon="0.1117">
        <ele>1747</ele>
        <time>2022-02-22T07:48:27Z</time>
      </trkpt>
      <trkpt lat="42.88359" lon="0.11169">
        <ele>1747</ele>
        <time>2022-02-22T07:48:47Z</time>
      </trkpt>
      <trkpt lat="42.88362" lon="0.11164">
        <ele>1746</ele>
        <time>2022-02-22T07:49:02Z</time>
      </trkpt>
      <trkpt lat="42.88362" lon="0.1116">
        <ele>1746</ele>
        <time>2022-02-22T07:49:33Z</time>
      </trkpt>
      <trkpt lat="42.8836" lon="0.11159">
        <ele>1746</ele>
        <time>2022-02-22T07:49:58Z</time>
      </trkpt>
      <trkpt lat="42.88362" lon="0.11164">
        <ele>1747</ele>
        <time>2022-02-22T07:50:08Z</time>
      </trkpt>
      <trkpt lat="42.88363" lon="0.11163">
        <ele>1747</ele>
        <time>2022-02-22T07:50:25Z</time>
      </trkpt>
      <trkpt lat="42.8836" lon="0.11164">
        <ele>1747</ele>
        <time>2022-02-22T07:50:42Z</time>
      </trkpt>
      <trkpt lat="42.88358" lon="0.11164">
        <ele>1748</ele>
        <time>2022-02-22T07:50:55Z</time>
      </trkpt>
      <trkpt lat="42.88354" lon="0.11168">
        <ele>1748</ele>
        <time>2022-02-22T07:51:09Z</time>
      </trkpt>
      <trkpt lat="42.88355" lon="0.11171">
        <ele>1749</ele>
        <time>2022-02-22T07:51:31Z</time>
      </trkpt>
      <trkpt lat="42.88348" lon="0.11174">
        <ele>1750</ele>
        <time>2022-02-22T07:51:45Z</time>
      </trkpt>
      <trkpt lat="42.88342" lon="0.1118">
        <ele>1751</ele>
        <time>2022-02-22T07:51:58Z</time>
      </trkpt>
      <trkpt lat="42.88335" lon="0.11183">
        <ele>1752</ele>
        <time>2022-02-22T07:52:11Z</time>
      </trkpt>
      <trkpt lat="42.88326" lon="0.11188">
        <ele>1753</ele>
        <time>2022-02-22T07:52:23Z</time>
      </trkpt>
      <trkpt lat="42.88321" lon="0.11192">
        <ele>1754</ele>
        <time>2022-02-22T07:52:31Z</time>
      </trkpt>
      <trkpt lat="42.88319" lon="0.11193">
        <ele>1755</ele>
        <time>2022-02-22T07:52:34Z</time>
      </trkpt>
      <trkpt lat="42.88306" lon="0.11205">
        <ele>1756</ele>
        <time>2022-02-22T07:52:49Z</time>
      </trkpt>
      <trkpt lat="42.88295" lon="0.11212">
        <ele>1757</ele>
        <time>2022-02-22T07:53:02Z</time>
      </trkpt>
      <trkpt lat="42.88287" lon="0.11214">
        <ele>1757</ele>
        <time>2022-02-22T07:53:15Z</time>
      </trkpt>
      <trkpt lat="42.88278" lon="0.11195">
        <ele>1757</ele>
        <time>2022-02-22T07:53:30Z</time>
      </trkpt>
      <trkpt lat="42.8827" lon="0.11178">
        <ele>1757</ele>
        <time>2022-02-22T07:53:46Z</time>
      </trkpt>
      <trkpt lat="42.8826" lon="0.11169">
        <ele>1758</ele>
        <time>2022-02-22T07:54:03Z</time>
      </trkpt>
      <trkpt lat="42.88252" lon="0.11166">
        <ele>1760</ele>
        <time>2022-02-22T07:54:20Z</time>
      </trkpt>
      <trkpt lat="42.88246" lon="0.1117">
        <ele>1761</ele>
        <time>2022-02-22T07:54:32Z</time>
      </trkpt>
      <trkpt lat="42.8824" lon="0.11173">
        <ele>1764</ele>
        <time>2022-02-22T07:54:46Z</time>
      </trkpt>
      <trkpt lat="42.88236" lon="0.1117">
        <ele>1767</ele>
        <time>2022-02-22T07:54:58Z</time>
      </trkpt>
      <trkpt lat="42.88232" lon="0.11152">
        <ele>1769</ele>
        <time>2022-02-22T07:55:17Z</time>
      </trkpt>
      <trkpt lat="42.8823" lon="0.1114">
        <ele>1772</ele>
        <time>2022-02-22T07:55:35Z</time>
      </trkpt>
      <trkpt lat="42.88227" lon="0.1114">
        <ele>1773</ele>
        <time>2022-02-22T07:55:52Z</time>
      </trkpt>
      <trkpt lat="42.88225" lon="0.11145">
        <ele>1775</ele>
        <time>2022-02-22T07:55:58Z</time>
      </trkpt>
      <trkpt lat="42.88219" lon="0.1115">
        <ele>1777</ele>
        <time>2022-02-22T07:56:12Z</time>
      </trkpt>
      <trkpt lat="42.88215" lon="0.11155">
        <ele>1779</ele>
        <time>2022-02-22T07:56:26Z</time>
      </trkpt>
      <trkpt lat="42.88209" lon="0.11161">
        <ele>1780</ele>
        <time>2022-02-22T07:56:38Z</time>
      </trkpt>
      <trkpt lat="42.88202" lon="0.11168">
        <ele>1782</ele>
        <time>2022-02-22T07:56:51Z</time>
      </trkpt>
      <trkpt lat="42.882" lon="0.11173">
        <ele>1784</ele>
        <time>2022-02-22T07:57:04Z</time>
      </trkpt>
      <trkpt lat="42.8819" lon="0.11178">
        <ele>1785</ele>
        <time>2022-02-22T07:57:20Z</time>
      </trkpt>
      <trkpt lat="42.88183" lon="0.1118">
        <ele>1786</ele>
        <time>2022-02-22T07:57:31Z</time>
      </trkpt>
      <trkpt lat="42.88176" lon="0.11168">
        <ele>1788</ele>
        <time>2022-02-22T07:57:46Z</time>
      </trkpt>
      <trkpt lat="42.88176" lon="0.11152">
        <ele>1791</ele>
        <time>2022-02-22T07:58:01Z</time>
      </trkpt>
      <trkpt lat="42.88176" lon="0.11141">
        <ele>1793</ele>
        <time>2022-02-22T07:58:16Z</time>
      </trkpt>
      <trkpt lat="42.88177" lon="0.1113">
        <ele>1795</ele>
        <time>2022-02-22T07:58:30Z</time>
      </trkpt>
      <trkpt lat="42.88176" lon="0.1112">
        <ele>1796</ele>
        <time>2022-02-22T07:58:43Z</time>
      </trkpt>
      <trkpt lat="42.88177" lon="0.1111">
        <ele>1798</ele>
        <time>2022-02-22T07:58:56Z</time>
      </trkpt>
      <trkpt lat="42.88179" lon="0.11103">
        <ele>1800</ele>
        <time>2022-02-22T07:59:10Z</time>
      </trkpt>
      <trkpt lat="42.8818" lon="0.11093">
        <ele>1801</ele>
        <time>2022-02-22T07:59:23Z</time>
      </trkpt>
      <trkpt lat="42.88177" lon="0.11081">
        <ele>1804</ele>
        <time>2022-02-22T07:59:38Z</time>
      </trkpt>
      <trkpt lat="42.88176" lon="0.11074">
        <ele>1806</ele>
        <time>2022-02-22T07:59:53Z</time>
      </trkpt>
      <trkpt lat="42.88178" lon="0.11065">
        <ele>1809</ele>
        <time>2022-02-22T08:00:06Z</time>
      </trkpt>
      <trkpt lat="42.88176" lon="0.11052">
        <ele>1810</ele>
        <time>2022-02-22T08:00:19Z</time>
      </trkpt>
      <trkpt lat="42.88183" lon="0.11041">
        <ele>1812</ele>
        <time>2022-02-22T08:00:33Z</time>
      </trkpt>
      <trkpt lat="42.88185" lon="0.11034">
        <ele>1813</ele>
        <time>2022-02-22T08:00:46Z</time>
      </trkpt>
      <trkpt lat="42.88184" lon="0.11041">
        <ele>1814</ele>
        <time>2022-02-22T08:01:03Z</time>
      </trkpt>
      <trkpt lat="42.88177" lon="0.11044">
        <ele>1816</ele>
        <time>2022-02-22T08:01:16Z</time>
      </trkpt>
      <trkpt lat="42.88167" lon="0.11047">
        <ele>1818</ele>
        <time>2022-02-22T08:01:34Z</time>
      </trkpt>
      <trkpt lat="42.88164" lon="0.11051">
        <ele>1820</ele>
        <time>2022-02-22T08:01:49Z</time>
      </trkpt>
      <trkpt lat="42.88158" lon="0.11054">
        <ele>1821</ele>
        <time>2022-02-22T08:02:05Z</time>
      </trkpt>
      <trkpt lat="42.88153" lon="0.1106">
        <ele>1823</ele>
        <time>2022-02-22T08:02:20Z</time>
      </trkpt>
      <trkpt lat="42.88151" lon="0.11066">
        <ele>1823</ele>
        <time>2022-02-22T08:02:34Z</time>
      </trkpt>
      <trkpt lat="42.88149" lon="0.11066">
        <ele>1823</ele>
        <time>2022-02-22T08:02:49Z</time>
      </trkpt>
      <trkpt lat="42.88143" lon="0.11069">
        <ele>1825</ele>
        <time>2022-02-22T08:03:04Z</time>
      </trkpt>
      <trkpt lat="42.88138" lon="0.11074">
        <ele>1827</ele>
        <time>2022-02-22T08:03:15Z</time>
      </trkpt>
      <trkpt lat="42.88131" lon="0.11082">
        <ele>1830</ele>
        <time>2022-02-22T08:03:32Z</time>
      </trkpt>
      <trkpt lat="42.88128" lon="0.11087">
        <ele>1832</ele>
        <time>2022-02-22T08:03:44Z</time>
      </trkpt>
      <trkpt lat="42.88123" lon="0.11094">
        <ele>1834</ele>
        <time>2022-02-22T08:03:56Z</time>
      </trkpt>
      <trkpt lat="42.88118" lon="0.11098">
        <ele>1836</ele>
        <time>2022-02-22T08:04:08Z</time>
      </trkpt>
      <trkpt lat="42.88112" lon="0.11101">
        <ele>1838</ele>
        <time>2022-02-22T08:04:21Z</time>
      </trkpt>
      <trkpt lat="42.88105" lon="0.11105">
        <ele>1841</ele>
        <time>2022-02-22T08:04:34Z</time>
      </trkpt>
      <trkpt lat="42.88102" lon="0.11107">
        <ele>1841</ele>
        <time>2022-02-22T08:04:39Z</time>
      </trkpt>
      <trkpt lat="42.88096" lon="0.11097">
        <ele>1842</ele>
        <time>2022-02-22T08:04:50Z</time>
      </trkpt>
      <trkpt lat="42.88093" lon="0.11093">
        <ele>1842</ele>
        <time>2022-02-22T08:05:07Z</time>
      </trkpt>
      <trkpt lat="42.88093" lon="0.11084">
        <ele>1843</ele>
        <time>2022-02-22T08:05:20Z</time>
      </trkpt>
      <trkpt lat="42.88094" lon="0.11073">
        <ele>1845</ele>
        <time>2022-02-22T08:05:34Z</time>
      </trkpt>
      <trkpt lat="42.88093" lon="0.11064">
        <ele>1847</ele>
        <time>2022-02-22T08:05:47Z</time>
      </trkpt>
      <trkpt lat="42.88095" lon="0.11054">
        <ele>1848</ele>
        <time>2022-02-22T08:06:00Z</time>
      </trkpt>
      <trkpt lat="42.88098" lon="0.11049">
        <ele>1851</ele>
        <time>2022-02-22T08:06:14Z</time>
      </trkpt>
      <trkpt lat="42.88098" lon="0.11054">
        <ele>1852</ele>
        <time>2022-02-22T08:06:29Z</time>
      </trkpt>
      <trkpt lat="42.88098" lon="0.11059">
        <ele>1851</ele>
        <time>2022-02-22T08:06:49Z</time>
      </trkpt>
      <trkpt lat="42.88093" lon="0.11061">
        <ele>1853</ele>
        <time>2022-02-22T08:07:01Z</time>
      </trkpt>
      <trkpt lat="42.88086" lon="0.11062">
        <ele>1855</ele>
        <time>2022-02-22T08:07:16Z</time>
      </trkpt>
      <trkpt lat="42.88081" lon="0.11064">
        <ele>1857</ele>
        <time>2022-02-22T08:07:31Z</time>
      </trkpt>
      <trkpt lat="42.88075" lon="0.11067">
        <ele>1858</ele>
        <time>2022-02-22T08:07:44Z</time>
      </trkpt>
      <trkpt lat="42.88069" lon="0.11069">
        <ele>1861</ele>
        <time>2022-02-22T08:07:57Z</time>
      </trkpt>
      <trkpt lat="42.88063" lon="0.1107">
        <ele>1863</ele>
        <time>2022-02-22T08:08:10Z</time>
      </trkpt>
      <trkpt lat="42.88059" lon="0.11074">
        <ele>1865</ele>
        <time>2022-02-22T08:08:23Z</time>
      </trkpt>
      <trkpt lat="42.88055" lon="0.11071">
        <ele>1865</ele>
        <time>2022-02-22T08:08:43Z</time>
      </trkpt>
      <trkpt lat="42.88059" lon="0.11062">
        <ele>1866</ele>
        <time>2022-02-22T08:09:03Z</time>
      </trkpt>
      <trkpt lat="42.88059" lon="0.11054">
        <ele>1868</ele>
        <time>2022-02-22T08:09:15Z</time>
      </trkpt>
      <trkpt lat="42.88053" lon="0.11055">
        <ele>1868</ele>
        <time>2022-02-22T08:09:31Z</time>
      </trkpt>
      <trkpt lat="42.8805" lon="0.11059">
        <ele>1870</ele>
        <time>2022-02-22T08:09:43Z</time>
      </trkpt>
      <trkpt lat="42.88046" lon="0.11063">
        <ele>1872</ele>
        <time>2022-02-22T08:09:57Z</time>
      </trkpt>
      <trkpt lat="42.88036" lon="0.11068">
        <ele>1875</ele>
        <time>2022-02-22T08:10:13Z</time>
      </trkpt>
      <trkpt lat="42.88029" lon="0.11068">
        <ele>1877</ele>
        <time>2022-02-22T08:10:26Z</time>
      </trkpt>
      <trkpt lat="42.88021" lon="0.11071">
        <ele>1878</ele>
        <time>2022-02-22T08:10:39Z</time>
      </trkpt>
      <trkpt lat="42.8802" lon="0.11064">
        <ele>1879</ele>
        <time>2022-02-22T08:10:53Z</time>
      </trkpt>
      <trkpt lat="42.88019" lon="0.11056">
        <ele>1880</ele>
        <time>2022-02-22T08:11:10Z</time>
      </trkpt>
      <trkpt lat="42.8802" lon="0.11045">
        <ele>1881</ele>
        <time>2022-02-22T08:11:24Z</time>
      </trkpt>
      <trkpt lat="42.88025" lon="0.11036">
        <ele>1883</ele>
        <time>2022-02-22T08:11:39Z</time>
      </trkpt>
      <trkpt lat="42.88028" lon="0.11029">
        <ele>1884</ele>
        <time>2022-02-22T08:11:50Z</time>
      </trkpt>
      <trkpt lat="42.88034" lon="0.1102">
        <ele>1887</ele>
        <time>2022-02-22T08:12:05Z</time>
      </trkpt>
      <trkpt lat="42.88038" lon="0.11009">
        <ele>1889</ele>
        <time>2022-02-22T08:12:23Z</time>
      </trkpt>
      <trkpt lat="42.88044" lon="0.11003">
        <ele>1892</ele>
        <time>2022-02-22T08:12:36Z</time>
      </trkpt>
      <trkpt lat="42.88043" lon="0.11003">
        <ele>1892</ele>
        <time>2022-02-22T08:12:49Z</time>
      </trkpt>
      <trkpt lat="42.88042" lon="0.11012">
        <ele>1892</ele>
        <time>2022-02-22T08:13:10Z</time>
      </trkpt>
      <trkpt lat="42.88037" lon="0.11015">
        <ele>1894</ele>
        <time>2022-02-22T08:13:26Z</time>
      </trkpt>
      <trkpt lat="42.88039" lon="0.11014">
        <ele>1893</ele>
        <time>2022-02-22T08:13:46Z</time>
      </trkpt>
      <trkpt lat="42.8803" lon="0.11014">
        <ele>1895</ele>
        <time>2022-02-22T08:14:02Z</time>
      </trkpt>
      <trkpt lat="42.88021" lon="0.11012">
        <ele>1898</ele>
        <time>2022-02-22T08:14:17Z</time>
      </trkpt>
      <trkpt lat="42.88015" lon="0.11012">
        <ele>1900</ele>
        <time>2022-02-22T08:14:31Z</time>
      </trkpt>
      <trkpt lat="42.88007" lon="0.11017">
        <ele>1901</ele>
        <time>2022-02-22T08:14:46Z</time>
      </trkpt>
      <trkpt lat="42.87999" lon="0.11019">
        <ele>1904</ele>
        <time>2022-02-22T08:15:02Z</time>
      </trkpt>
      <trkpt lat="42.87988" lon="0.11022">
        <ele>1905</ele>
        <time>2022-02-22T08:15:17Z</time>
      </trkpt>
      <trkpt lat="42.87983" lon="0.11026">
        <ele>1907</ele>
        <time>2022-02-22T08:15:31Z</time>
      </trkpt>
      <trkpt lat="42.87975" lon="0.11027">
        <ele>1910</ele>
        <time>2022-02-22T08:15:46Z</time>
      </trkpt>
      <trkpt lat="42.87972" lon="0.11031">
        <ele>1910</ele>
        <time>2022-02-22T08:16:00Z</time>
      </trkpt>
      <trkpt lat="42.87967" lon="0.11033">
        <ele>1911</ele>
        <time>2022-02-22T08:16:13Z</time>
      </trkpt>
      <trkpt lat="42.87959" lon="0.11039">
        <ele>1913</ele>
        <time>2022-02-22T08:16:28Z</time>
      </trkpt>
      <trkpt lat="42.87951" lon="0.11043">
        <ele>1915</ele>
        <time>2022-02-22T08:16:42Z</time>
      </trkpt>
      <trkpt lat="42.87945" lon="0.11049">
        <ele>1917</ele>
        <time>2022-02-22T08:16:58Z</time>
      </trkpt>
      <trkpt lat="42.87939" lon="0.11053">
        <ele>1919</ele>
        <time>2022-02-22T08:17:10Z</time>
      </trkpt>
      <trkpt lat="42.87936" lon="0.11061">
        <ele>1920</ele>
        <time>2022-02-22T08:17:22Z</time>
      </trkpt>
      <trkpt lat="42.87931" lon="0.1107">
        <ele>1922</ele>
        <time>2022-02-22T08:17:36Z</time>
      </trkpt>
      <trkpt lat="42.87928" lon="0.11077">
        <ele>1924</ele>
        <time>2022-02-22T08:17:50Z</time>
      </trkpt>
      <trkpt lat="42.87927" lon="0.11077">
        <ele>1924</ele>
        <time>2022-02-22T08:18:06Z</time>
      </trkpt>
      <trkpt lat="42.87932" lon="0.11078">
        <ele>1925</ele>
        <time>2022-02-22T08:18:31Z</time>
      </trkpt>
      <trkpt lat="42.87935" lon="0.11078">
        <ele>1925</ele>
        <time>2022-02-22T08:18:54Z</time>
      </trkpt>
      <trkpt lat="42.87931" lon="0.1107">
        <ele>1927</ele>
        <time>2022-02-22T08:19:07Z</time>
      </trkpt>
      <trkpt lat="42.87929" lon="0.1106">
        <ele>1929</ele>
        <time>2022-02-22T08:19:20Z</time>
      </trkpt>
      <trkpt lat="42.87929" lon="0.11059">
        <ele>1929</ele>
        <time>2022-02-22T08:19:22Z</time>
      </trkpt>
      <trkpt lat="42.87931" lon="0.11049">
        <ele>1931</ele>
        <time>2022-02-22T08:19:38Z</time>
      </trkpt>
      <trkpt lat="42.87931" lon="0.11038">
        <ele>1934</ele>
        <time>2022-02-22T08:19:53Z</time>
      </trkpt>
      <trkpt lat="42.87932" lon="0.11028">
        <ele>1936</ele>
        <time>2022-02-22T08:20:07Z</time>
      </trkpt>
      <trkpt lat="42.87932" lon="0.11017">
        <ele>1938</ele>
        <time>2022-02-22T08:20:23Z</time>
      </trkpt>
      <trkpt lat="42.87928" lon="0.11009">
        <ele>1940</ele>
        <time>2022-02-22T08:20:32Z</time>
      </trkpt>
      <trkpt lat="42.87929" lon="0.10996">
        <ele>1941</ele>
        <time>2022-02-22T08:20:44Z</time>
      </trkpt>
      <trkpt lat="42.87929" lon="0.10984">
        <ele>1943</ele>
        <time>2022-02-22T08:21:00Z</time>
      </trkpt>
      <trkpt lat="42.87932" lon="0.10974">
        <ele>1945</ele>
        <time>2022-02-22T08:21:16Z</time>
      </trkpt>
      <trkpt lat="42.87933" lon="0.10972">
        <ele>1946</ele>
        <time>2022-02-22T08:21:29Z</time>
      </trkpt>
      <trkpt lat="42.87932" lon="0.10974">
        <ele>1946</ele>
        <time>2022-02-22T08:21:50Z</time>
      </trkpt>
      <trkpt lat="42.87926" lon="0.10976">
        <ele>1948</ele>
        <time>2022-02-22T08:22:03Z</time>
      </trkpt>
      <trkpt lat="42.87917" lon="0.10977">
        <ele>1950</ele>
        <time>2022-02-22T08:22:17Z</time>
      </trkpt>
      <trkpt lat="42.87908" lon="0.10979">
        <ele>1952</ele>
        <time>2022-02-22T08:22:32Z</time>
      </trkpt>
      <trkpt lat="42.87902" lon="0.1098">
        <ele>1955</ele>
        <time>2022-02-22T08:22:47Z</time>
      </trkpt>
      <trkpt lat="42.87903" lon="0.10978">
        <ele>1955</ele>
        <time>2022-02-22T08:23:01Z</time>
      </trkpt>
      <trkpt lat="42.87907" lon="0.10979">
        <ele>1956</ele>
        <time>2022-02-22T08:23:16Z</time>
      </trkpt>
      <trkpt lat="42.87908" lon="0.10967">
        <ele>1957</ele>
        <time>2022-02-22T08:23:30Z</time>
      </trkpt>
      <trkpt lat="42.87911" lon="0.10959">
        <ele>1958</ele>
        <time>2022-02-22T08:23:41Z</time>
      </trkpt>
      <trkpt lat="42.87914" lon="0.10949">
        <ele>1961</ele>
        <time>2022-02-22T08:23:56Z</time>
      </trkpt>
      <trkpt lat="42.87915" lon="0.10948">
        <ele>1961</ele>
        <time>2022-02-22T08:23:58Z</time>
      </trkpt>
      <trkpt lat="42.87916" lon="0.10939">
        <ele>1963</ele>
        <time>2022-02-22T08:24:11Z</time>
      </trkpt>
      <trkpt lat="42.8792" lon="0.10934">
        <ele>1965</ele>
        <time>2022-02-22T08:24:22Z</time>
      </trkpt>
      <trkpt lat="42.8792" lon="0.10933">
        <ele>1966</ele>
        <time>2022-02-22T08:24:40Z</time>
      </trkpt>
      <trkpt lat="42.87922" lon="0.10939">
        <ele>1966</ele>
        <time>2022-02-22T08:24:58Z</time>
      </trkpt>
      <trkpt lat="42.87923" lon="0.10942">
        <ele>1966</ele>
        <time>2022-02-22T08:25:18Z</time>
      </trkpt>
      <trkpt lat="42.87921" lon="0.10945">
        <ele>1966</ele>
        <time>2022-02-22T08:25:33Z</time>
      </trkpt>
      <trkpt lat="42.87914" lon="0.10941">
        <ele>1967</ele>
        <time>2022-02-22T08:25:48Z</time>
      </trkpt>
      <trkpt lat="42.87907" lon="0.10941">
        <ele>1969</ele>
        <time>2022-02-22T08:26:02Z</time>
      </trkpt>
      <trkpt lat="42.87902" lon="0.10941">
        <ele>1971</ele>
        <time>2022-02-22T08:26:15Z</time>
      </trkpt>
      <trkpt lat="42.87893" lon="0.1094">
        <ele>1974</ele>
        <time>2022-02-22T08:26:30Z</time>
      </trkpt>
      <trkpt lat="42.87885" lon="0.10941">
        <ele>1976</ele>
        <time>2022-02-22T08:26:45Z</time>
      </trkpt>
      <trkpt lat="42.87878" lon="0.10943">
        <ele>1978</ele>
        <time>2022-02-22T08:26:59Z</time>
      </trkpt>
      <trkpt lat="42.87877" lon="0.10941">
        <ele>1978</ele>
        <time>2022-02-22T08:27:15Z</time>
      </trkpt>
      <trkpt lat="42.87878" lon="0.10939">
        <ele>1979</ele>
        <time>2022-02-22T08:27:32Z</time>
      </trkpt>
      <trkpt lat="42.87877" lon="0.10937">
        <ele>1979</ele>
        <time>2022-02-22T08:27:49Z</time>
      </trkpt>
      <trkpt lat="42.87878" lon="0.10929">
        <ele>1980</ele>
        <time>2022-02-22T08:28:02Z</time>
      </trkpt>
      <trkpt lat="42.87886" lon="0.10922">
        <ele>1983</ele>
        <time>2022-02-22T08:28:15Z</time>
      </trkpt>
      <trkpt lat="42.87888" lon="0.10917">
        <ele>1984</ele>
        <time>2022-02-22T08:28:27Z</time>
      </trkpt>
      <trkpt lat="42.8789" lon="0.10909">
        <ele>1986</ele>
        <time>2022-02-22T08:28:47Z</time>
      </trkpt>
      <trkpt lat="42.87891" lon="0.109">
        <ele>1988</ele>
        <time>2022-02-22T08:28:59Z</time>
      </trkpt>
      <trkpt lat="42.87891" lon="0.10898">
        <ele>1989</ele>
        <time>2022-02-22T08:29:15Z</time>
      </trkpt>
      <trkpt lat="42.87886" lon="0.10907">
        <ele>1990</ele>
        <time>2022-02-22T08:29:31Z</time>
      </trkpt>
      <trkpt lat="42.87882" lon="0.10913">
        <ele>1991</ele>
        <time>2022-02-22T08:29:43Z</time>
      </trkpt>
      <trkpt lat="42.87877" lon="0.10915">
        <ele>1994</ele>
        <time>2022-02-22T08:29:55Z</time>
      </trkpt>
      <trkpt lat="42.8787" lon="0.10914">
        <ele>1996</ele>
        <time>2022-02-22T08:30:09Z</time>
      </trkpt>
      <trkpt lat="42.87863" lon="0.10918">
        <ele>1998</ele>
        <time>2022-02-22T08:30:22Z</time>
      </trkpt>
      <trkpt lat="42.87855" lon="0.1092">
        <ele>2000</ele>
        <time>2022-02-22T08:30:36Z</time>
      </trkpt>
      <trkpt lat="42.87848" lon="0.10921">
        <ele>2001</ele>
        <time>2022-02-22T08:30:50Z</time>
      </trkpt>
      <trkpt lat="42.87845" lon="0.10923">
        <ele>2003</ele>
        <time>2022-02-22T08:30:59Z</time>
      </trkpt>
      <trkpt lat="42.87844" lon="0.10929">
        <ele>2005</ele>
        <time>2022-02-22T08:31:13Z</time>
      </trkpt>
      <trkpt lat="42.8784" lon="0.1093">
        <ele>2005</ele>
        <time>2022-02-22T08:31:32Z</time>
      </trkpt>
      <trkpt lat="42.87839" lon="0.10924">
        <ele>2006</ele>
        <time>2022-02-22T08:31:45Z</time>
      </trkpt>
      <trkpt lat="42.87839" lon="0.10919">
        <ele>2007</ele>
        <time>2022-02-22T08:31:58Z</time>
      </trkpt>
      <trkpt lat="42.8784" lon="0.1091">
        <ele>2009</ele>
        <time>2022-02-22T08:32:11Z</time>
      </trkpt>
      <trkpt lat="42.87842" lon="0.109">
        <ele>2011</ele>
        <time>2022-02-22T08:32:25Z</time>
      </trkpt>
      <trkpt lat="42.87845" lon="0.10899">
        <ele>2011</ele>
        <time>2022-02-22T08:32:41Z</time>
      </trkpt>
      <trkpt lat="42.87846" lon="0.1089">
        <ele>2014</ele>
        <time>2022-02-22T08:32:55Z</time>
      </trkpt>
      <trkpt lat="42.8785" lon="0.10885">
        <ele>2015</ele>
        <time>2022-02-22T08:33:09Z</time>
      </trkpt>
      <trkpt lat="42.87845" lon="0.10888">
        <ele>2016</ele>
        <time>2022-02-22T08:33:26Z</time>
      </trkpt>
      <trkpt lat="42.8784" lon="0.1089">
        <ele>2017</ele>
        <time>2022-02-22T08:33:38Z</time>
      </trkpt>
      <trkpt lat="42.87832" lon="0.10894">
        <ele>2019</ele>
        <time>2022-02-22T08:33:54Z</time>
      </trkpt>
      <trkpt lat="42.87827" lon="0.10898">
        <ele>2021</ele>
        <time>2022-02-22T08:34:07Z</time>
      </trkpt>
      <trkpt lat="42.87825" lon="0.10903">
        <ele>2022</ele>
        <time>2022-02-22T08:34:18Z</time>
      </trkpt>
      <trkpt lat="42.87823" lon="0.10906">
        <ele>2023</ele>
        <time>2022-02-22T08:34:36Z</time>
      </trkpt>
      <trkpt lat="42.8782" lon="0.10909">
        <ele>2024</ele>
        <time>2022-02-22T08:34:56Z</time>
      </trkpt>
      <trkpt lat="42.87819" lon="0.10896">
        <ele>2025</ele>
        <time>2022-02-22T08:35:12Z</time>
      </trkpt>
      <trkpt lat="42.8782" lon="0.10881">
        <ele>2026</ele>
        <time>2022-02-22T08:35:27Z</time>
      </trkpt>
      <trkpt lat="42.87822" lon="0.10875">
        <ele>2029</ele>
        <time>2022-02-22T08:35:40Z</time>
      </trkpt>
      <trkpt lat="42.87826" lon="0.10865">
        <ele>2030</ele>
        <time>2022-02-22T08:35:54Z</time>
      </trkpt>
      <trkpt lat="42.87831" lon="0.1086">
        <ele>2032</ele>
        <time>2022-02-22T08:36:13Z</time>
      </trkpt>
      <trkpt lat="42.87836" lon="0.10858">
        <ele>2032</ele>
        <time>2022-02-22T08:36:40Z</time>
      </trkpt>
      <trkpt lat="42.87837" lon="0.10857">
        <ele>2033</ele>
        <time>2022-02-22T08:36:56Z</time>
      </trkpt>
      <trkpt lat="42.87833" lon="0.10863">
        <ele>2034</ele>
        <time>2022-02-22T08:37:12Z</time>
      </trkpt>
      <trkpt lat="42.87827" lon="0.10869">
        <ele>2036</ele>
        <time>2022-02-22T08:37:27Z</time>
      </trkpt>
      <trkpt lat="42.87823" lon="0.10874">
        <ele>2036</ele>
        <time>2022-02-22T08:37:41Z</time>
      </trkpt>
      <trkpt lat="42.87822" lon="0.10874">
        <ele>2036</ele>
        <time>2022-02-22T08:38:15Z</time>
      </trkpt>
      <trkpt lat="42.87821" lon="0.10874">
        <ele>2036</ele>
        <time>2022-02-22T08:38:35Z</time>
      </trkpt>
      <trkpt lat="42.87819" lon="0.1087">
        <ele>2037</ele>
        <time>2022-02-22T08:38:48Z</time>
      </trkpt>
      <trkpt lat="42.87821" lon="0.10863">
        <ele>2038</ele>
        <time>2022-02-22T08:39:01Z</time>
      </trkpt>
      <trkpt lat="42.87827" lon="0.10853">
        <ele>2039</ele>
        <time>2022-02-22T08:39:16Z</time>
      </trkpt>
      <trkpt lat="42.87833" lon="0.10845">
        <ele>2040</ele>
        <time>2022-02-22T08:39:32Z</time>
      </trkpt>
      <trkpt lat="42.8784" lon="0.10838">
        <ele>2042</ele>
        <time>2022-02-22T08:39:47Z</time>
      </trkpt>
      <trkpt lat="42.8785" lon="0.10829">
        <ele>2044</ele>
        <time>2022-02-22T08:40:04Z</time>
      </trkpt>
      <trkpt lat="42.87855" lon="0.10822">
        <ele>2046</ele>
        <time>2022-02-22T08:40:18Z</time>
      </trkpt>
      <trkpt lat="42.87858" lon="0.10819">
        <ele>2048</ele>
        <time>2022-02-22T08:40:33Z</time>
      </trkpt>
      <trkpt lat="42.87854" lon="0.10815">
        <ele>2048</ele>
        <time>2022-02-22T08:40:50Z</time>
      </trkpt>
      <trkpt lat="42.87854" lon="0.10813">
        <ele>2048</ele>
        <time>2022-02-22T08:41:12Z</time>
      </trkpt>
      <trkpt lat="42.87859" lon="0.10811">
        <ele>2048</ele>
        <time>2022-02-22T08:41:27Z</time>
      </trkpt>
      <trkpt lat="42.87858" lon="0.10812">
        <ele>2048</ele>
        <time>2022-02-22T08:41:39Z</time>
      </trkpt>
      <trkpt lat="42.87858" lon="0.10813">
        <ele>2048</ele>
        <time>2022-02-22T08:41:56Z</time>
      </trkpt>
      <trkpt lat="42.8786" lon="0.10814">
        <ele>2047</ele>
        <time>2022-02-22T08:42:22Z</time>
      </trkpt>
      <trkpt lat="42.87861" lon="0.10814">
        <ele>2047</ele>
        <time>2022-02-22T08:42:38Z</time>
      </trkpt>
      <trkpt lat="42.87859" lon="0.10813">
        <ele>2047</ele>
        <time>2022-02-22T08:43:04Z</time>
      </trkpt>
      <trkpt lat="42.87861" lon="0.1081">
        <ele>2047</ele>
        <time>2022-02-22T08:43:16Z</time>
      </trkpt>
      <trkpt lat="42.87857" lon="0.10815">
        <ele>2048</ele>
        <time>2022-02-22T08:43:45Z</time>
      </trkpt>
      <trkpt lat="42.8786" lon="0.10812">
        <ele>2047</ele>
        <time>2022-02-22T08:44:00Z</time>
      </trkpt>
      <trkpt lat="42.87858" lon="0.10815">
        <ele>2047</ele>
        <time>2022-02-22T08:44:21Z</time>
      </trkpt>
      <trkpt lat="42.87857" lon="0.10818">
        <ele>2047</ele>
        <time>2022-02-22T08:44:43Z</time>
      </trkpt>
      <trkpt lat="42.87854" lon="0.10819">
        <ele>2048</ele>
        <time>2022-02-22T08:45:07Z</time>
      </trkpt>
      <trkpt lat="42.87858" lon="0.10814">
        <ele>2048</ele>
        <time>2022-02-22T08:45:25Z</time>
      </trkpt>
      <trkpt lat="42.87857" lon="0.10815">
        <ele>2047</ele>
        <time>2022-02-22T08:45:49Z</time>
      </trkpt>
      <trkpt lat="42.87858" lon="0.10813">
        <ele>2047</ele>
        <time>2022-02-22T08:46:09Z</time>
      </trkpt>
      <trkpt lat="42.8786" lon="0.10819">
        <ele>2048</ele>
        <time>2022-02-22T08:46:26Z</time>
      </trkpt>
      <trkpt lat="42.87858" lon="0.10816">
        <ele>2048</ele>
        <time>2022-02-22T08:46:43Z</time>
      </trkpt>
      <trkpt lat="42.87859" lon="0.10818">
        <ele>2048</ele>
        <time>2022-02-22T08:47:10Z</time>
      </trkpt>
      <trkpt lat="42.87858" lon="0.10816">
        <ele>2048</ele>
        <time>2022-02-22T08:47:31Z</time>
      </trkpt>
      <trkpt lat="42.87857" lon="0.10815">
        <ele>2049</ele>
        <time>2022-02-22T08:47:43Z</time>
      </trkpt>
      <trkpt lat="42.87855" lon="0.10814">
        <ele>2049</ele>
        <time>2022-02-22T08:48:03Z</time>
      </trkpt>
      <trkpt lat="42.87859" lon="0.10816">
        <ele>2049</ele>
        <time>2022-02-22T08:48:18Z</time>
      </trkpt>
      <trkpt lat="42.87858" lon="0.10813">
        <ele>2049</ele>
        <time>2022-02-22T08:48:35Z</time>
      </trkpt>
      <trkpt lat="42.87859" lon="0.10818">
        <ele>2048</ele>
        <time>2022-02-22T08:48:56Z</time>
      </trkpt>
      <trkpt lat="42.87858" lon="0.10816">
        <ele>2048</ele>
        <time>2022-02-22T08:49:12Z</time>
      </trkpt>
      <trkpt lat="42.87857" lon="0.10814">
        <ele>2048</ele>
        <time>2022-02-22T08:49:30Z</time>
      </trkpt>
      <trkpt lat="42.87858" lon="0.10816">
        <ele>2048</ele>
        <time>2022-02-22T08:49:46Z</time>
      </trkpt>
      <trkpt lat="42.8786" lon="0.10815">
        <ele>2048</ele>
        <time>2022-02-22T08:50:11Z</time>
      </trkpt>
      <trkpt lat="42.87861" lon="0.10815">
        <ele>2049</ele>
        <time>2022-02-22T08:50:29Z</time>
      </trkpt>
      <trkpt lat="42.8786" lon="0.10815">
        <ele>2049</ele>
        <time>2022-02-22T08:50:46Z</time>
      </trkpt>
      <trkpt lat="42.87861" lon="0.10817">
        <ele>2048</ele>
        <time>2022-02-22T08:51:08Z</time>
      </trkpt>
      <trkpt lat="42.87861" lon="0.10817">
        <ele>2049</ele>
        <time>2022-02-22T08:51:25Z</time>
      </trkpt>
      <trkpt lat="42.87859" lon="0.10813">
        <ele>2049</ele>
        <time>2022-02-22T08:51:48Z</time>
      </trkpt>
      <trkpt lat="42.87858" lon="0.10813">
        <ele>2049</ele>
        <time>2022-02-22T08:52:08Z</time>
      </trkpt>
      <trkpt lat="42.87859" lon="0.10818">
        <ele>2049</ele>
        <time>2022-02-22T08:52:28Z</time>
      </trkpt>
      <trkpt lat="42.87864" lon="0.10817">
        <ele>2049</ele>
        <time>2022-02-22T08:52:47Z</time>
      </trkpt>
      <trkpt lat="42.87863" lon="0.10817">
        <ele>2050</ele>
        <time>2022-02-22T08:53:11Z</time>
      </trkpt>
      <trkpt lat="42.87862" lon="0.10816">
        <ele>2050</ele>
        <time>2022-02-22T08:53:26Z</time>
      </trkpt>
      <trkpt lat="42.87862" lon="0.10815">
        <ele>2050</ele>
        <time>2022-02-22T08:53:30Z</time>
      </trkpt>
      <trkpt lat="42.87857" lon="0.10812">
        <ele>2049</ele>
        <time>2022-02-22T08:53:47Z</time>
      </trkpt>
      <trkpt lat="42.87855" lon="0.1081">
        <ele>2049</ele>
        <time>2022-02-22T08:54:21Z</time>
      </trkpt>
      <trkpt lat="42.87859" lon="0.10809">
        <ele>2049</ele>
        <time>2022-02-22T08:54:56Z</time>
      </trkpt>
      <trkpt lat="42.8786" lon="0.10812">
        <ele>2049</ele>
        <time>2022-02-22T08:55:30Z</time>
      </trkpt>
      <trkpt lat="42.87859" lon="0.1081">
        <ele>2049</ele>
        <time>2022-02-22T08:56:03Z</time>
      </trkpt>
      <trkpt lat="42.87858" lon="0.1081">
        <ele>2049</ele>
        <time>2022-02-22T08:56:48Z</time>
      </trkpt>
      <trkpt lat="42.87857" lon="0.10812">
        <ele>2049</ele>
        <time>2022-02-22T08:57:36Z</time>
      </trkpt>
      <trkpt lat="42.8786" lon="0.10813">
        <ele>2049</ele>
        <time>2022-02-22T08:58:24Z</time>
      </trkpt>
      <trkpt lat="42.87857" lon="0.10813">
        <ele>2050</ele>
        <time>2022-02-22T08:59:10Z</time>
      </trkpt>
      <trkpt lat="42.87857" lon="0.1081">
        <ele>2050</ele>
        <time>2022-02-22T09:00:02Z</time>
      </trkpt>
      <trkpt lat="42.87858" lon="0.1081">
        <ele>2050</ele>
        <time>2022-02-22T09:00:58Z</time>
      </trkpt>
      <trkpt lat="42.87856" lon="0.10812">
        <ele>2049</ele>
        <time>2022-02-22T09:01:46Z</time>
      </trkpt>
      <trkpt lat="42.87857" lon="0.10811">
        <ele>2049</ele>
        <time>2022-02-22T09:02:35Z</time>
      </trkpt>
      <trkpt lat="42.87858" lon="0.10811">
        <ele>2050</ele>
        <time>2022-02-22T09:03:05Z</time>
      </trkpt>
      <trkpt lat="42.87859" lon="0.10813">
        <ele>2051</ele>
        <time>2022-02-22T09:03:34Z</time>
      </trkpt>
      <trkpt lat="42.87857" lon="0.10814">
        <ele>2051</ele>
        <time>2022-02-22T09:03:50Z</time>
      </trkpt>
      <trkpt lat="42.87855" lon="0.10811">
        <ele>2050</ele>
        <time>2022-02-22T09:04:04Z</time>
      </trkpt>
      <trkpt lat="42.87854" lon="0.10808">
        <ele>2051</ele>
        <time>2022-02-22T09:04:07Z</time>
      </trkpt>
      <trkpt lat="42.87855" lon="0.10802">
        <ele>2053</ele>
        <time>2022-02-22T09:04:11Z</time>
      </trkpt>
      <trkpt lat="42.87856" lon="0.108">
        <ele>2052</ele>
        <time>2022-02-22T09:04:13Z</time>
      </trkpt>
      <trkpt lat="42.87857" lon="0.10792">
        <ele>2053</ele>
        <time>2022-02-22T09:04:19Z</time>
      </trkpt>
      <trkpt lat="42.87855" lon="0.10778">
        <ele>2054</ele>
        <time>2022-02-22T09:04:30Z</time>
      </trkpt>
      <trkpt lat="42.87856" lon="0.10768">
        <ele>2054</ele>
        <time>2022-02-22T09:04:38Z</time>
      </trkpt>
      <trkpt lat="42.8786" lon="0.10757">
        <ele>2056</ele>
        <time>2022-02-22T09:04:50Z</time>
      </trkpt>
      <trkpt lat="42.87861" lon="0.10748">
        <ele>2058</ele>
        <time>2022-02-22T09:05:04Z</time>
      </trkpt>
      <trkpt lat="42.8786" lon="0.10745">
        <ele>2059</ele>
        <time>2022-02-22T09:05:07Z</time>
      </trkpt>
      <trkpt lat="42.87857" lon="0.10733">
        <ele>2061</ele>
        <time>2022-02-22T09:05:24Z</time>
      </trkpt>
      <trkpt lat="42.87853" lon="0.10728">
        <ele>2062</ele>
        <time>2022-02-22T09:05:30Z</time>
      </trkpt>
      <trkpt lat="42.87845" lon="0.10723">
        <ele>2064</ele>
        <time>2022-02-22T09:05:45Z</time>
      </trkpt>
      <trkpt lat="42.87833" lon="0.10721">
        <ele>2066</ele>
        <time>2022-02-22T09:06:04Z</time>
      </trkpt>
      <trkpt lat="42.87823" lon="0.10716">
        <ele>2067</ele>
        <time>2022-02-22T09:06:19Z</time>
      </trkpt>
      <trkpt lat="42.87817" lon="0.10715">
        <ele>2068</ele>
        <time>2022-02-22T09:06:28Z</time>
      </trkpt>
      <trkpt lat="42.87811" lon="0.10711">
        <ele>2069</ele>
        <time>2022-02-22T09:06:40Z</time>
      </trkpt>
      <trkpt lat="42.87807" lon="0.10709">
        <ele>2071</ele>
        <time>2022-02-22T09:06:47Z</time>
      </trkpt>
      <trkpt lat="42.87807" lon="0.10691">
        <ele>2072</ele>
        <time>2022-02-22T09:07:02Z</time>
      </trkpt>
      <trkpt lat="42.8781" lon="0.1068">
        <ele>2073</ele>
        <time>2022-02-22T09:07:15Z</time>
      </trkpt>
      <trkpt lat="42.87812" lon="0.10667">
        <ele>2075</ele>
        <time>2022-02-22T09:07:32Z</time>
      </trkpt>
      <trkpt lat="42.87814" lon="0.10658">
        <ele>2078</ele>
        <time>2022-02-22T09:07:46Z</time>
      </trkpt>
      <trkpt lat="42.87814" lon="0.10656">
        <ele>2078</ele>
        <time>2022-02-22T09:08:05Z</time>
      </trkpt>
      <trkpt lat="42.87813" lon="0.10655">
        <ele>2078</ele>
        <time>2022-02-22T09:08:26Z</time>
      </trkpt>
      <trkpt lat="42.87813" lon="0.10653">
        <ele>2078</ele>
        <time>2022-02-22T09:08:43Z</time>
      </trkpt>
      <trkpt lat="42.87818" lon="0.10639">
        <ele>2079</ele>
        <time>2022-02-22T09:08:57Z</time>
      </trkpt>
      <trkpt lat="42.87822" lon="0.10627">
        <ele>2081</ele>
        <time>2022-02-22T09:09:10Z</time>
      </trkpt>
      <trkpt lat="42.8782" lon="0.10615">
        <ele>2084</ele>
        <time>2022-02-22T09:09:25Z</time>
      </trkpt>
      <trkpt lat="42.87815" lon="0.10605">
        <ele>2086</ele>
        <time>2022-02-22T09:09:41Z</time>
      </trkpt>
      <trkpt lat="42.87812" lon="0.10597">
        <ele>2088</ele>
        <time>2022-02-22T09:09:56Z</time>
      </trkpt>
      <trkpt lat="42.87806" lon="0.10589">
        <ele>2090</ele>
        <time>2022-02-22T09:10:12Z</time>
      </trkpt>
      <trkpt lat="42.87801" lon="0.10582">
        <ele>2091</ele>
        <time>2022-02-22T09:10:28Z</time>
      </trkpt>
      <trkpt lat="42.878" lon="0.10571">
        <ele>2092</ele>
        <time>2022-02-22T09:10:41Z</time>
      </trkpt>
      <trkpt lat="42.87799" lon="0.1056">
        <ele>2094</ele>
        <time>2022-02-22T09:10:54Z</time>
      </trkpt>
      <trkpt lat="42.87798" lon="0.10546">
        <ele>2096</ele>
        <time>2022-02-22T09:11:09Z</time>
      </trkpt>
      <trkpt lat="42.87798" lon="0.10543">
        <ele>2096</ele>
        <time>2022-02-22T09:11:11Z</time>
      </trkpt>
      <trkpt lat="42.87798" lon="0.10528">
        <ele>2098</ele>
        <time>2022-02-22T09:11:28Z</time>
      </trkpt>
      <trkpt lat="42.87799" lon="0.10525">
        <ele>2099</ele>
        <time>2022-02-22T09:11:32Z</time>
      </trkpt>
      <trkpt lat="42.87799" lon="0.10522">
        <ele>2099</ele>
        <time>2022-02-22T09:11:34Z</time>
      </trkpt>
      <trkpt lat="42.87798" lon="0.10511">
        <ele>2101</ele>
        <time>2022-02-22T09:11:47Z</time>
      </trkpt>
      <trkpt lat="42.87799" lon="0.10501">
        <ele>2103</ele>
        <time>2022-02-22T09:12:00Z</time>
      </trkpt>
      <trkpt lat="42.87806" lon="0.10488">
        <ele>2106</ele>
        <time>2022-02-22T09:12:18Z</time>
      </trkpt>
      <trkpt lat="42.87811" lon="0.10479">
        <ele>2107</ele>
        <time>2022-02-22T09:12:31Z</time>
      </trkpt>
      <trkpt lat="42.87814" lon="0.1047">
        <ele>2109</ele>
        <time>2022-02-22T09:12:45Z</time>
      </trkpt>
      <trkpt lat="42.87813" lon="0.1046">
        <ele>2111</ele>
        <time>2022-02-22T09:13:03Z</time>
      </trkpt>
      <trkpt lat="42.87808" lon="0.10451">
        <ele>2114</ele>
        <time>2022-02-22T09:13:19Z</time>
      </trkpt>
      <trkpt lat="42.87798" lon="0.10447">
        <ele>2115</ele>
        <time>2022-02-22T09:13:34Z</time>
      </trkpt>
      <trkpt lat="42.87792" lon="0.10441">
        <ele>2116</ele>
        <time>2022-02-22T09:13:50Z</time>
      </trkpt>
      <trkpt lat="42.87787" lon="0.10431">
        <ele>2118</ele>
        <time>2022-02-22T09:14:03Z</time>
      </trkpt>
      <trkpt lat="42.87782" lon="0.10422">
        <ele>2120</ele>
        <time>2022-02-22T09:14:20Z</time>
      </trkpt>
      <trkpt lat="42.87779" lon="0.10432">
        <ele>2123</ele>
        <time>2022-02-22T09:14:35Z</time>
      </trkpt>
      <trkpt lat="42.87771" lon="0.10436">
        <ele>2125</ele>
        <time>2022-02-22T09:14:51Z</time>
      </trkpt>
      <trkpt lat="42.87769" lon="0.1043">
        <ele>2126</ele>
        <time>2022-02-22T09:15:03Z</time>
      </trkpt>
      <trkpt lat="42.87766" lon="0.1042">
        <ele>2128</ele>
        <time>2022-02-22T09:15:18Z</time>
      </trkpt>
      <trkpt lat="42.87764" lon="0.10418">
        <ele>2129</ele>
        <time>2022-02-22T09:15:32Z</time>
      </trkpt>
      <trkpt lat="42.87761" lon="0.10424">
        <ele>2131</ele>
        <time>2022-02-22T09:15:46Z</time>
      </trkpt>
      <trkpt lat="42.87753" lon="0.10431">
        <ele>2133</ele>
        <time>2022-02-22T09:16:01Z</time>
      </trkpt>
      <trkpt lat="42.8775" lon="0.10429">
        <ele>2134</ele>
        <time>2022-02-22T09:16:14Z</time>
      </trkpt>
      <trkpt lat="42.87751" lon="0.10421">
        <ele>2135</ele>
        <time>2022-02-22T09:16:26Z</time>
      </trkpt>
      <trkpt lat="42.87751" lon="0.10412">
        <ele>2137</ele>
        <time>2022-02-22T09:16:39Z</time>
      </trkpt>
      <trkpt lat="42.87748" lon="0.10414">
        <ele>2139</ele>
        <time>2022-02-22T09:16:54Z</time>
      </trkpt>
      <trkpt lat="42.87742" lon="0.1042">
        <ele>2141</ele>
        <time>2022-02-22T09:17:10Z</time>
      </trkpt>
      <trkpt lat="42.87742" lon="0.10415">
        <ele>2141</ele>
        <time>2022-02-22T09:17:23Z</time>
      </trkpt>
      <trkpt lat="42.87739" lon="0.10405">
        <ele>2144</ele>
        <time>2022-02-22T09:17:37Z</time>
      </trkpt>
      <trkpt lat="42.87735" lon="0.10396">
        <ele>2146</ele>
        <time>2022-02-22T09:17:51Z</time>
      </trkpt>
      <trkpt lat="42.8773" lon="0.10386">
        <ele>2148</ele>
        <time>2022-02-22T09:18:08Z</time>
      </trkpt>
      <trkpt lat="42.87728" lon="0.10375">
        <ele>2151</ele>
        <time>2022-02-22T09:18:24Z</time>
      </trkpt>
      <trkpt lat="42.87727" lon="0.10364">
        <ele>2153</ele>
        <time>2022-02-22T09:18:40Z</time>
      </trkpt>
      <trkpt lat="42.87727" lon="0.10357">
        <ele>2154</ele>
        <time>2022-02-22T09:18:53Z</time>
      </trkpt>
      <trkpt lat="42.87728" lon="0.1036">
        <ele>2155</ele>
        <time>2022-02-22T09:19:06Z</time>
      </trkpt>
      <trkpt lat="42.87718" lon="0.10364">
        <ele>2157</ele>
        <time>2022-02-22T09:19:21Z</time>
      </trkpt>
      <trkpt lat="42.87716" lon="0.10366">
        <ele>2157</ele>
        <time>2022-02-22T09:19:37Z</time>
      </trkpt>
      <trkpt lat="42.87709" lon="0.10373">
        <ele>2160</ele>
        <time>2022-02-22T09:19:55Z</time>
      </trkpt>
      <trkpt lat="42.87705" lon="0.10367">
        <ele>2162</ele>
        <time>2022-02-22T09:20:09Z</time>
      </trkpt>
      <trkpt lat="42.87701" lon="0.10357">
        <ele>2164</ele>
        <time>2022-02-22T09:20:23Z</time>
      </trkpt>
      <trkpt lat="42.87699" lon="0.10343">
        <ele>2166</ele>
        <time>2022-02-22T09:20:38Z</time>
      </trkpt>
      <trkpt lat="42.87698" lon="0.10334">
        <ele>2168</ele>
        <time>2022-02-22T09:20:54Z</time>
      </trkpt>
      <trkpt lat="42.87695" lon="0.10326">
        <ele>2170</ele>
        <time>2022-02-22T09:21:11Z</time>
      </trkpt>
      <trkpt lat="42.87687" lon="0.10323">
        <ele>2173</ele>
        <time>2022-02-22T09:21:29Z</time>
      </trkpt>
      <trkpt lat="42.87683" lon="0.10325">
        <ele>2173</ele>
        <time>2022-02-22T09:21:43Z</time>
      </trkpt>
      <trkpt lat="42.8768" lon="0.1032">
        <ele>2173</ele>
        <time>2022-02-22T09:22:09Z</time>
      </trkpt>
      <trkpt lat="42.87683" lon="0.10323">
        <ele>2174</ele>
        <time>2022-02-22T09:22:29Z</time>
      </trkpt>
      <trkpt lat="42.87684" lon="0.10321">
        <ele>2173</ele>
        <time>2022-02-22T09:22:47Z</time>
      </trkpt>
      <trkpt lat="42.87679" lon="0.10324">
        <ele>2174</ele>
        <time>2022-02-22T09:23:00Z</time>
      </trkpt>
      <trkpt lat="42.87677" lon="0.10326">
        <ele>2175</ele>
        <time>2022-02-22T09:23:22Z</time>
      </trkpt>
      <trkpt lat="42.87669" lon="0.10326">
        <ele>2175</ele>
        <time>2022-02-22T09:23:35Z</time>
      </trkpt>
      <trkpt lat="42.87661" lon="0.10316">
        <ele>2177</ele>
        <time>2022-02-22T09:23:47Z</time>
      </trkpt>
      <trkpt lat="42.87653" lon="0.1031">
        <ele>2178</ele>
        <time>2022-02-22T09:24:00Z</time>
      </trkpt>
      <trkpt lat="42.8765" lon="0.10308">
        <ele>2178</ele>
        <time>2022-02-22T09:24:04Z</time>
      </trkpt>
      <trkpt lat="42.87643" lon="0.10304">
        <ele>2179</ele>
        <time>2022-02-22T09:24:16Z</time>
      </trkpt>
      <trkpt lat="42.87632" lon="0.10295">
        <ele>2181</ele>
        <time>2022-02-22T09:24:31Z</time>
      </trkpt>
      <trkpt lat="42.87623" lon="0.10298">
        <ele>2182</ele>
        <time>2022-02-22T09:24:45Z</time>
      </trkpt>
      <trkpt lat="42.87615" lon="0.10301">
        <ele>2184</ele>
        <time>2022-02-22T09:24:59Z</time>
      </trkpt>
      <trkpt lat="42.87608" lon="0.10303">
        <ele>2187</ele>
        <time>2022-02-22T09:25:14Z</time>
      </trkpt>
      <trkpt lat="42.87601" lon="0.103">
        <ele>2189</ele>
        <time>2022-02-22T09:25:31Z</time>
      </trkpt>
      <trkpt lat="42.87594" lon="0.10297">
        <ele>2191</ele>
        <time>2022-02-22T09:25:45Z</time>
      </trkpt>
      <trkpt lat="42.87585" lon="0.10294">
        <ele>2194</ele>
        <time>2022-02-22T09:26:00Z</time>
      </trkpt>
      <trkpt lat="42.87574" lon="0.10292">
        <ele>2196</ele>
        <time>2022-02-22T09:26:16Z</time>
      </trkpt>
      <trkpt lat="42.8757" lon="0.10296">
        <ele>2198</ele>
        <time>2022-02-22T09:26:29Z</time>
      </trkpt>
      <trkpt lat="42.87565" lon="0.10305">
        <ele>2201</ele>
        <time>2022-02-22T09:26:46Z</time>
      </trkpt>
      <trkpt lat="42.87558" lon="0.1031">
        <ele>2203</ele>
        <time>2022-02-22T09:26:57Z</time>
      </trkpt>
      <trkpt lat="42.87549" lon="0.10309">
        <ele>2204</ele>
        <time>2022-02-22T09:27:12Z</time>
      </trkpt>
      <trkpt lat="42.87543" lon="0.10306">
        <ele>2206</ele>
        <time>2022-02-22T09:27:27Z</time>
      </trkpt>
      <trkpt lat="42.87534" lon="0.10304">
        <ele>2208</ele>
        <time>2022-02-22T09:27:42Z</time>
      </trkpt>
      <trkpt lat="42.87532" lon="0.10302">
        <ele>2208</ele>
        <time>2022-02-22T09:27:46Z</time>
      </trkpt>
      <trkpt lat="42.8752" lon="0.10303">
        <ele>2210</ele>
        <time>2022-02-22T09:28:01Z</time>
      </trkpt>
      <trkpt lat="42.8751" lon="0.10297">
        <ele>2212</ele>
        <time>2022-02-22T09:28:14Z</time>
      </trkpt>
      <trkpt lat="42.87513" lon="0.10279">
        <ele>2214</ele>
        <time>2022-02-22T09:28:25Z</time>
      </trkpt>
      <trkpt lat="42.87512" lon="0.10262">
        <ele>2214</ele>
        <time>2022-02-22T09:28:39Z</time>
      </trkpt>
      <trkpt lat="42.87512" lon="0.10259">
        <ele>2215</ele>
        <time>2022-02-22T09:28:41Z</time>
      </trkpt>
      <trkpt lat="42.87506" lon="0.10245">
        <ele>2215</ele>
        <time>2022-02-22T09:28:55Z</time>
      </trkpt>
      <trkpt lat="42.87496" lon="0.10232">
        <ele>2215</ele>
        <time>2022-02-22T09:29:11Z</time>
      </trkpt>
      <trkpt lat="42.87488" lon="0.10218">
        <ele>2216</ele>
        <time>2022-02-22T09:29:25Z</time>
      </trkpt>
      <trkpt lat="42.87482" lon="0.10205">
        <ele>2217</ele>
        <time>2022-02-22T09:29:41Z</time>
      </trkpt>
      <trkpt lat="42.8748" lon="0.10189">
        <ele>2218</ele>
        <time>2022-02-22T09:29:56Z</time>
      </trkpt>
      <trkpt lat="42.87482" lon="0.10174">
        <ele>2221</ele>
        <time>2022-02-22T09:30:11Z</time>
      </trkpt>
      <trkpt lat="42.87483" lon="0.1017">
        <ele>2221</ele>
        <time>2022-02-22T09:30:14Z</time>
      </trkpt>
      <trkpt lat="42.87483" lon="0.10155">
        <ele>2223</ele>
        <time>2022-02-22T09:30:31Z</time>
      </trkpt>
      <trkpt lat="42.87481" lon="0.10144">
        <ele>2224</ele>
        <time>2022-02-22T09:30:45Z</time>
      </trkpt>
      <trkpt lat="42.87477" lon="0.10132">
        <ele>2227</ele>
        <time>2022-02-22T09:31:00Z</time>
      </trkpt>
      <trkpt lat="42.87475" lon="0.1012">
        <ele>2230</ele>
        <time>2022-02-22T09:31:17Z</time>
      </trkpt>
      <trkpt lat="42.87472" lon="0.10106">
        <ele>2231</ele>
        <time>2022-02-22T09:31:32Z</time>
      </trkpt>
      <trkpt lat="42.87479" lon="0.10101">
        <ele>2232</ele>
        <time>2022-02-22T09:31:47Z</time>
      </trkpt>
      <trkpt lat="42.87473" lon="0.10093">
        <ele>2234</ele>
        <time>2022-02-22T09:31:59Z</time>
      </trkpt>
      <trkpt lat="42.8747" lon="0.10081">
        <ele>2237</ele>
        <time>2022-02-22T09:32:13Z</time>
      </trkpt>
      <trkpt lat="42.87469" lon="0.10081">
        <ele>2238</ele>
        <time>2022-02-22T09:32:17Z</time>
      </trkpt>
      <trkpt lat="42.8746" lon="0.10082">
        <ele>2240</ele>
        <time>2022-02-22T09:32:32Z</time>
      </trkpt>
      <trkpt lat="42.87454" lon="0.10082">
        <ele>2241</ele>
        <time>2022-02-22T09:32:45Z</time>
      </trkpt>
      <trkpt lat="42.87447" lon="0.10084">
        <ele>2245</ele>
        <time>2022-02-22T09:33:00Z</time>
      </trkpt>
      <trkpt lat="42.87446" lon="0.10078">
        <ele>2246</ele>
        <time>2022-02-22T09:33:13Z</time>
      </trkpt>
      <trkpt lat="42.87447" lon="0.10069">
        <ele>2247</ele>
        <time>2022-02-22T09:33:26Z</time>
      </trkpt>
      <trkpt lat="42.87449" lon="0.10062">
        <ele>2249</ele>
        <time>2022-02-22T09:33:40Z</time>
      </trkpt>
      <trkpt lat="42.8745" lon="0.10052">
        <ele>2252</ele>
        <time>2022-02-22T09:33:54Z</time>
      </trkpt>
      <trkpt lat="42.87453" lon="0.10041">
        <ele>2254</ele>
        <time>2022-02-22T09:34:06Z</time>
      </trkpt>
      <trkpt lat="42.87451" lon="0.10043">
        <ele>2254</ele>
        <time>2022-02-22T09:34:18Z</time>
      </trkpt>
      <trkpt lat="42.87448" lon="0.10047">
        <ele>2255</ele>
        <time>2022-02-22T09:34:34Z</time>
      </trkpt>
      <trkpt lat="42.8744" lon="0.10051">
        <ele>2257</ele>
        <time>2022-02-22T09:34:50Z</time>
      </trkpt>
      <trkpt lat="42.87435" lon="0.10055">
        <ele>2260</ele>
        <time>2022-02-22T09:35:05Z</time>
      </trkpt>
      <trkpt lat="42.87428" lon="0.10061">
        <ele>2261</ele>
        <time>2022-02-22T09:35:19Z</time>
      </trkpt>
      <trkpt lat="42.87426" lon="0.10059">
        <ele>2262</ele>
        <time>2022-02-22T09:35:34Z</time>
      </trkpt>
      <trkpt lat="42.8743" lon="0.10049">
        <ele>2263</ele>
        <time>2022-02-22T09:35:50Z</time>
      </trkpt>
      <trkpt lat="42.8743" lon="0.10045">
        <ele>2264</ele>
        <time>2022-02-22T09:36:09Z</time>
      </trkpt>
      <trkpt lat="42.87432" lon="0.10038">
        <ele>2265</ele>
        <time>2022-02-22T09:36:21Z</time>
      </trkpt>
      <trkpt lat="42.87435" lon="0.1003">
        <ele>2267</ele>
        <time>2022-02-22T09:36:34Z</time>
      </trkpt>
      <trkpt lat="42.87435" lon="0.10028">
        <ele>2268</ele>
        <time>2022-02-22T09:36:49Z</time>
      </trkpt>
      <trkpt lat="42.87436" lon="0.10028">
        <ele>2269</ele>
        <time>2022-02-22T09:37:08Z</time>
      </trkpt>
      <trkpt lat="42.8743" lon="0.10029">
        <ele>2270</ele>
        <time>2022-02-22T09:37:21Z</time>
      </trkpt>
      <trkpt lat="42.87425" lon="0.10028">
        <ele>2272</ele>
        <time>2022-02-22T09:37:36Z</time>
      </trkpt>
      <trkpt lat="42.87418" lon="0.10038">
        <ele>2274</ele>
        <time>2022-02-22T09:37:50Z</time>
      </trkpt>
      <trkpt lat="42.87417" lon="0.1004">
        <ele>2275</ele>
        <time>2022-02-22T09:37:53Z</time>
      </trkpt>
      <trkpt lat="42.87411" lon="0.10046">
        <ele>2276</ele>
        <time>2022-02-22T09:38:08Z</time>
      </trkpt>
      <trkpt lat="42.87407" lon="0.10052">
        <ele>2277</ele>
        <time>2022-02-22T09:38:25Z</time>
      </trkpt>
      <trkpt lat="42.874" lon="0.10061">
        <ele>2278</ele>
        <time>2022-02-22T09:38:40Z</time>
      </trkpt>
      <trkpt lat="42.87395" lon="0.10067">
        <ele>2280</ele>
        <time>2022-02-22T09:38:57Z</time>
      </trkpt>
      <trkpt lat="42.87391" lon="0.10073">
        <ele>2282</ele>
        <time>2022-02-22T09:39:12Z</time>
      </trkpt>
      <trkpt lat="42.87393" lon="0.10072">
        <ele>2282</ele>
        <time>2022-02-22T09:39:32Z</time>
      </trkpt>
      <trkpt lat="42.87393" lon="0.10064">
        <ele>2284</ele>
        <time>2022-02-22T09:39:48Z</time>
      </trkpt>
      <trkpt lat="42.87395" lon="0.10052">
        <ele>2285</ele>
        <time>2022-02-22T09:40:03Z</time>
      </trkpt>
      <trkpt lat="42.87396" lon="0.10048">
        <ele>2285</ele>
        <time>2022-02-22T09:40:21Z</time>
      </trkpt>
      <trkpt lat="42.87397" lon="0.1004">
        <ele>2288</ele>
        <time>2022-02-22T09:40:32Z</time>
      </trkpt>
      <trkpt lat="42.87397" lon="0.1003">
        <ele>2290</ele>
        <time>2022-02-22T09:40:43Z</time>
      </trkpt>
      <trkpt lat="42.87397" lon="0.10025">
        <ele>2290</ele>
        <time>2022-02-22T09:40:58Z</time>
      </trkpt>
      <trkpt lat="42.874" lon="0.10017">
        <ele>2292</ele>
        <time>2022-02-22T09:41:11Z</time>
      </trkpt>
      <trkpt lat="42.87402" lon="0.1001">
        <ele>2293</ele>
        <time>2022-02-22T09:41:23Z</time>
      </trkpt>
      <trkpt lat="42.87402" lon="0.10014">
        <ele>2293</ele>
        <time>2022-02-22T09:41:39Z</time>
      </trkpt>
      <trkpt lat="42.87398" lon="0.10016">
        <ele>2294</ele>
        <time>2022-02-22T09:41:58Z</time>
      </trkpt>
      <trkpt lat="42.87395" lon="0.10022">
        <ele>2295</ele>
        <time>2022-02-22T09:42:12Z</time>
      </trkpt>
      <trkpt lat="42.87389" lon="0.10028">
        <ele>2297</ele>
        <time>2022-02-22T09:42:26Z</time>
      </trkpt>
      <trkpt lat="42.87383" lon="0.10035">
        <ele>2299</ele>
        <time>2022-02-22T09:42:39Z</time>
      </trkpt>
      <trkpt lat="42.87379" lon="0.10045">
        <ele>2301</ele>
        <time>2022-02-22T09:42:56Z</time>
      </trkpt>
      <trkpt lat="42.87375" lon="0.10054">
        <ele>2302</ele>
        <time>2022-02-22T09:43:11Z</time>
      </trkpt>
      <trkpt lat="42.87371" lon="0.10058">
        <ele>2304</ele>
        <time>2022-02-22T09:43:31Z</time>
      </trkpt>
      <trkpt lat="42.87365" lon="0.10068">
        <ele>2306</ele>
        <time>2022-02-22T09:43:46Z</time>
      </trkpt>
      <trkpt lat="42.87362" lon="0.1007">
        <ele>2307</ele>
        <time>2022-02-22T09:44:00Z</time>
      </trkpt>
      <trkpt lat="42.87359" lon="0.10072">
        <ele>2307</ele>
        <time>2022-02-22T09:44:22Z</time>
      </trkpt>
      <trkpt lat="42.87356" lon="0.10073">
        <ele>2308</ele>
        <time>2022-02-22T09:44:44Z</time>
      </trkpt>
      <trkpt lat="42.87355" lon="0.10083">
        <ele>2310</ele>
        <time>2022-02-22T09:45:01Z</time>
      </trkpt>
      <trkpt lat="42.87354" lon="0.10087">
        <ele>2310</ele>
        <time>2022-02-22T09:45:19Z</time>
      </trkpt>
      <trkpt lat="42.87355" lon="0.10091">
        <ele>2311</ele>
        <time>2022-02-22T09:45:36Z</time>
      </trkpt>
      <trkpt lat="42.87352" lon="0.10088">
        <ele>2312</ele>
        <time>2022-02-22T09:45:53Z</time>
      </trkpt>
      <trkpt lat="42.87352" lon="0.10082">
        <ele>2312</ele>
        <time>2022-02-22T09:46:07Z</time>
      </trkpt>
      <trkpt lat="42.87351" lon="0.10079">
        <ele>2314</ele>
        <time>2022-02-22T09:46:27Z</time>
      </trkpt>
      <trkpt lat="42.87351" lon="0.10078">
        <ele>2313</ele>
        <time>2022-02-22T09:46:47Z</time>
      </trkpt>
      <trkpt lat="42.8735" lon="0.10068">
        <ele>2314</ele>
        <time>2022-02-22T09:47:09Z</time>
      </trkpt>
      <trkpt lat="42.8735" lon="0.10063">
        <ele>2315</ele>
        <time>2022-02-22T09:47:24Z</time>
      </trkpt>
      <trkpt lat="42.87351" lon="0.10057">
        <ele>2317</ele>
        <time>2022-02-22T09:47:38Z</time>
      </trkpt>
      <trkpt lat="42.87348" lon="0.10053">
        <ele>2318</ele>
        <time>2022-02-22T09:47:53Z</time>
      </trkpt>
      <trkpt lat="42.87347" lon="0.10052">
        <ele>2319</ele>
        <time>2022-02-22T09:48:11Z</time>
      </trkpt>
      <trkpt lat="42.87346" lon="0.10051">
        <ele>2320</ele>
        <time>2022-02-22T09:48:29Z</time>
      </trkpt>
      <trkpt lat="42.87345" lon="0.1005">
        <ele>2320</ele>
        <time>2022-02-22T09:48:47Z</time>
      </trkpt>
      <trkpt lat="42.87355" lon="0.1006">
        <ele>2320</ele>
        <time>2022-02-22T09:48:57Z</time>
      </trkpt>
      <trkpt lat="42.87355" lon="0.10057">
        <ele>2321</ele>
        <time>2022-02-22T09:49:15Z</time>
      </trkpt>
      <trkpt lat="42.87353" lon="0.10061">
        <ele>2321</ele>
        <time>2022-02-22T09:49:30Z</time>
      </trkpt>
      <trkpt lat="42.87356" lon="0.1006">
        <ele>2320</ele>
        <time>2022-02-22T09:49:51Z</time>
      </trkpt>
      <trkpt lat="42.8736" lon="0.10058">
        <ele>2320</ele>
        <time>2022-02-22T09:50:06Z</time>
      </trkpt>
      <trkpt lat="42.87354" lon="0.10058">
        <ele>2321</ele>
        <time>2022-02-22T09:50:27Z</time>
      </trkpt>
      <trkpt lat="42.87358" lon="0.10057">
        <ele>2321</ele>
        <time>2022-02-22T09:50:47Z</time>
      </trkpt>
      <trkpt lat="42.87358" lon="0.1006">
        <ele>2321</ele>
        <time>2022-02-22T09:50:59Z</time>
      </trkpt>
      <trkpt lat="42.87351" lon="0.10061">
        <ele>2321</ele>
        <time>2022-02-22T09:51:22Z</time>
      </trkpt>
      <trkpt lat="42.87345" lon="0.1006">
        <ele>2321</ele>
        <time>2022-02-22T09:51:44Z</time>
      </trkpt>
      <trkpt lat="42.87346" lon="0.10061">
        <ele>2321</ele>
        <time>2022-02-22T09:51:59Z</time>
      </trkpt>
      <trkpt lat="42.87349" lon="0.10056">
        <ele>2322</ele>
        <time>2022-02-22T09:52:19Z</time>
      </trkpt>
      <trkpt lat="42.87348" lon="0.10052">
        <ele>2322</ele>
        <time>2022-02-22T09:52:30Z</time>
      </trkpt>
      <trkpt lat="42.87346" lon="0.10052">
        <ele>2322</ele>
        <time>2022-02-22T09:52:42Z</time>
      </trkpt>
      <trkpt lat="42.87352" lon="0.10053">
        <ele>2321</ele>
        <time>2022-02-22T09:52:58Z</time>
      </trkpt>
      <trkpt lat="42.87354" lon="0.10056">
        <ele>2321</ele>
        <time>2022-02-22T09:53:08Z</time>
      </trkpt>
      <trkpt lat="42.87354" lon="0.10054">
        <ele>2321</ele>
        <time>2022-02-22T09:53:34Z</time>
      </trkpt>
      <trkpt lat="42.87357" lon="0.10055">
        <ele>2321</ele>
        <time>2022-02-22T09:53:49Z</time>
      </trkpt>
      <trkpt lat="42.87357" lon="0.10055">
        <ele>2321</ele>
        <time>2022-02-22T09:54:07Z</time>
      </trkpt>
      <trkpt lat="42.87358" lon="0.10055">
        <ele>2321</ele>
        <time>2022-02-22T09:54:32Z</time>
      </trkpt>
      <trkpt lat="42.87359" lon="0.10049">
        <ele>2320</ele>
        <time>2022-02-22T09:54:52Z</time>
      </trkpt>
      <trkpt lat="42.87359" lon="0.10052">
        <ele>2321</ele>
        <time>2022-02-22T09:55:11Z</time>
      </trkpt>
      <trkpt lat="42.87362" lon="0.10056">
        <ele>2321</ele>
        <time>2022-02-22T09:55:32Z</time>
      </trkpt>
      <trkpt lat="42.87362" lon="0.10058">
        <ele>2321</ele>
        <time>2022-02-22T09:55:51Z</time>
      </trkpt>
      <trkpt lat="42.87362" lon="0.10055">
        <ele>2321</ele>
        <time>2022-02-22T09:56:12Z</time>
      </trkpt>
      <trkpt lat="42.87362" lon="0.1005">
        <ele>2320</ele>
        <time>2022-02-22T09:56:33Z</time>
      </trkpt>
      <trkpt lat="42.8736" lon="0.10053">
        <ele>2320</ele>
        <time>2022-02-22T09:56:56Z</time>
      </trkpt>
      <trkpt lat="42.87351" lon="0.10052">
        <ele>2321</ele>
        <time>2022-02-22T09:57:08Z</time>
      </trkpt>
      <trkpt lat="42.87348" lon="0.10053">
        <ele>2321</ele>
        <time>2022-02-22T09:57:34Z</time>
      </trkpt>
      <trkpt lat="42.87348" lon="0.10052">
        <ele>2320</ele>
        <time>2022-02-22T09:57:46Z</time>
      </trkpt>
      <trkpt lat="42.87348" lon="0.10051">
        <ele>2320</ele>
        <time>2022-02-22T09:58:11Z</time>
      </trkpt>
      <trkpt lat="42.87351" lon="0.10051">
        <ele>2320</ele>
        <time>2022-02-22T09:58:27Z</time>
      </trkpt>
      <trkpt lat="42.87352" lon="0.10054">
        <ele>2320</ele>
        <time>2022-02-22T09:58:46Z</time>
      </trkpt>
      <trkpt lat="42.87351" lon="0.10053">
        <ele>2321</ele>
        <time>2022-02-22T09:59:10Z</time>
      </trkpt>
      <trkpt lat="42.87353" lon="0.10051">
        <ele>2320</ele>
        <time>2022-02-22T09:59:24Z</time>
      </trkpt>
      <trkpt lat="42.87356" lon="0.10054">
        <ele>2321</ele>
        <time>2022-02-22T09:59:32Z</time>
      </trkpt>
      <trkpt lat="42.87362" lon="0.10055">
        <ele>2320</ele>
        <time>2022-02-22T09:59:58Z</time>
      </trkpt>
      <trkpt lat="42.87358" lon="0.10049">
        <ele>2320</ele>
        <time>2022-02-22T10:00:17Z</time>
      </trkpt>
      <trkpt lat="42.87355" lon="0.10047">
        <ele>2320</ele>
        <time>2022-02-22T10:00:43Z</time>
      </trkpt>
      <trkpt lat="42.87352" lon="0.10041">
        <ele>2321</ele>
        <time>2022-02-22T10:01:15Z</time>
      </trkpt>
      <trkpt lat="42.87356" lon="0.10053">
        <ele>2321</ele>
        <time>2022-02-22T10:01:50Z</time>
      </trkpt>
      <trkpt lat="42.87358" lon="0.1005">
        <ele>2322</ele>
        <time>2022-02-22T10:02:17Z</time>
      </trkpt>
      <trkpt lat="42.87356" lon="0.1005">
        <ele>2321</ele>
        <time>2022-02-22T10:02:40Z</time>
      </trkpt>
      <trkpt lat="42.87357" lon="0.10052">
        <ele>2321</ele>
        <time>2022-02-22T10:03:05Z</time>
      </trkpt>
      <trkpt lat="42.87357" lon="0.1005">
        <ele>2321</ele>
        <time>2022-02-22T10:03:30Z</time>
      </trkpt>
      <trkpt lat="42.87359" lon="0.10052">
        <ele>2321</ele>
        <time>2022-02-22T10:03:54Z</time>
      </trkpt>
      <trkpt lat="42.87355" lon="0.10055">
        <ele>2321</ele>
        <time>2022-02-22T10:04:19Z</time>
      </trkpt>
      <trkpt lat="42.87358" lon="0.10056">
        <ele>2321</ele>
        <time>2022-02-22T10:04:35Z</time>
      </trkpt>
      <trkpt lat="42.8736" lon="0.10054">
        <ele>2321</ele>
        <time>2022-02-22T10:04:51Z</time>
      </trkpt>
      <trkpt lat="42.8736" lon="0.10056">
        <ele>2321</ele>
        <time>2022-02-22T10:05:05Z</time>
      </trkpt>
      <trkpt lat="42.87356" lon="0.10053">
        <ele>2321</ele>
        <time>2022-02-22T10:05:26Z</time>
      </trkpt>
      <trkpt lat="42.87354" lon="0.10055">
        <ele>2322</ele>
        <time>2022-02-22T10:05:48Z</time>
      </trkpt>
      <trkpt lat="42.8736" lon="0.10054">
        <ele>2321</ele>
        <time>2022-02-22T10:06:05Z</time>
      </trkpt>
      <trkpt lat="42.87357" lon="0.10055">
        <ele>2321</ele>
        <time>2022-02-22T10:06:19Z</time>
      </trkpt>
      <trkpt lat="42.87354" lon="0.10052">
        <ele>2322</ele>
        <time>2022-02-22T10:06:33Z</time>
      </trkpt>
      <trkpt lat="42.8735" lon="0.10052">
        <ele>2322</ele>
        <time>2022-02-22T10:06:48Z</time>
      </trkpt>
      <trkpt lat="42.87348" lon="0.10051">
        <ele>2322</ele>
        <time>2022-02-22T10:07:11Z</time>
      </trkpt>
      <trkpt lat="42.87347" lon="0.10051">
        <ele>2322</ele>
        <time>2022-02-22T10:07:23Z</time>
      </trkpt>
      <trkpt lat="42.87349" lon="0.10051">
        <ele>2322</ele>
        <time>2022-02-22T10:07:46Z</time>
      </trkpt>
      <trkpt lat="42.8735" lon="0.10051">
        <ele>2322</ele>
        <time>2022-02-22T10:08:00Z</time>
      </trkpt>
      <trkpt lat="42.87351" lon="0.10049">
        <ele>2322</ele>
        <time>2022-02-22T10:08:33Z</time>
      </trkpt>
      <trkpt lat="42.8735" lon="0.10046">
        <ele>2321</ele>
        <time>2022-02-22T10:08:51Z</time>
      </trkpt>
      <trkpt lat="42.8735" lon="0.10037">
        <ele>2321</ele>
        <time>2022-02-22T10:09:03Z</time>
      </trkpt>
      <trkpt lat="42.8735" lon="0.10036">
        <ele>2320</ele>
        <time>2022-02-22T10:09:15Z</time>
      </trkpt>
      <trkpt lat="42.87349" lon="0.10036">
        <ele>2320</ele>
        <time>2022-02-22T10:09:28Z</time>
      </trkpt>
      <trkpt lat="42.87343" lon="0.10037">
        <ele>2319</ele>
        <time>2022-02-22T10:09:41Z</time>
      </trkpt>
      <trkpt lat="42.87337" lon="0.10034">
        <ele>2317</ele>
        <time>2022-02-22T10:09:59Z</time>
      </trkpt>
      <trkpt lat="42.87331" lon="0.10032">
        <ele>2316</ele>
        <time>2022-02-22T10:10:12Z</time>
      </trkpt>
      <trkpt lat="42.87324" lon="0.10034">
        <ele>2315</ele>
        <time>2022-02-22T10:10:26Z</time>
      </trkpt>
      <trkpt lat="42.87316" lon="0.10039">
        <ele>2317</ele>
        <time>2022-02-22T10:10:39Z</time>
      </trkpt>
      <trkpt lat="42.87307" lon="0.10046">
        <ele>2318</ele>
        <time>2022-02-22T10:10:53Z</time>
      </trkpt>
      <trkpt lat="42.87298" lon="0.1005">
        <ele>2319</ele>
        <time>2022-02-22T10:11:07Z</time>
      </trkpt>
      <trkpt lat="42.8729" lon="0.10054">
        <ele>2320</ele>
        <time>2022-02-22T10:11:27Z</time>
      </trkpt>
      <trkpt lat="42.87291" lon="0.10054">
        <ele>2321</ele>
        <time>2022-02-22T10:11:41Z</time>
      </trkpt>
      <trkpt lat="42.87287" lon="0.10059">
        <ele>2321</ele>
        <time>2022-02-22T10:12:03Z</time>
      </trkpt>
      <trkpt lat="42.87279" lon="0.10065">
        <ele>2323</ele>
        <time>2022-02-22T10:12:16Z</time>
      </trkpt>
      <trkpt lat="42.87274" lon="0.10068">
        <ele>2324</ele>
        <time>2022-02-22T10:12:30Z</time>
      </trkpt>
      <trkpt lat="42.87272" lon="0.10071">
        <ele>2325</ele>
        <time>2022-02-22T10:12:42Z</time>
      </trkpt>
      <trkpt lat="42.87263" lon="0.1008">
        <ele>2327</ele>
        <time>2022-02-22T10:12:59Z</time>
      </trkpt>
      <trkpt lat="42.8726" lon="0.10083">
        <ele>2329</ele>
        <time>2022-02-22T10:13:16Z</time>
      </trkpt>
      <trkpt lat="42.87253" lon="0.10086">
        <ele>2330</ele>
        <time>2022-02-22T10:13:31Z</time>
      </trkpt>
      <trkpt lat="42.87247" lon="0.10088">
        <ele>2332</ele>
        <time>2022-02-22T10:13:44Z</time>
      </trkpt>
      <trkpt lat="42.87242" lon="0.10091">
        <ele>2333</ele>
        <time>2022-02-22T10:13:58Z</time>
      </trkpt>
      <trkpt lat="42.87234" lon="0.10093">
        <ele>2334</ele>
        <time>2022-02-22T10:14:12Z</time>
      </trkpt>
      <trkpt lat="42.87229" lon="0.10095">
        <ele>2336</ele>
        <time>2022-02-22T10:14:28Z</time>
      </trkpt>
      <trkpt lat="42.87221" lon="0.10101">
        <ele>2339</ele>
        <time>2022-02-22T10:14:44Z</time>
      </trkpt>
      <trkpt lat="42.87212" lon="0.10104">
        <ele>2341</ele>
        <time>2022-02-22T10:14:58Z</time>
      </trkpt>
      <trkpt lat="42.87208" lon="0.10106">
        <ele>2342</ele>
        <time>2022-02-22T10:15:12Z</time>
      </trkpt>
      <trkpt lat="42.87206" lon="0.1011">
        <ele>2344</ele>
        <time>2022-02-22T10:15:27Z</time>
      </trkpt>
      <trkpt lat="42.87197" lon="0.10117">
        <ele>2345</ele>
        <time>2022-02-22T10:15:41Z</time>
      </trkpt>
      <trkpt lat="42.87191" lon="0.10122">
        <ele>2348</ele>
        <time>2022-02-22T10:15:56Z</time>
      </trkpt>
      <trkpt lat="42.87185" lon="0.1013">
        <ele>2350</ele>
        <time>2022-02-22T10:16:12Z</time>
      </trkpt>
      <trkpt lat="42.87177" lon="0.10138">
        <ele>2351</ele>
        <time>2022-02-22T10:16:27Z</time>
      </trkpt>
      <trkpt lat="42.87172" lon="0.10148">
        <ele>2352</ele>
        <time>2022-02-22T10:16:44Z</time>
      </trkpt>
      <trkpt lat="42.87163" lon="0.10159">
        <ele>2354</ele>
        <time>2022-02-22T10:17:02Z</time>
      </trkpt>
      <trkpt lat="42.87155" lon="0.10168">
        <ele>2355</ele>
        <time>2022-02-22T10:17:17Z</time>
      </trkpt>
      <trkpt lat="42.87147" lon="0.10178">
        <ele>2358</ele>
        <time>2022-02-22T10:17:33Z</time>
      </trkpt>
      <trkpt lat="42.87139" lon="0.10187">
        <ele>2359</ele>
        <time>2022-02-22T10:17:50Z</time>
      </trkpt>
      <trkpt lat="42.8713" lon="0.10198">
        <ele>2361</ele>
        <time>2022-02-22T10:18:07Z</time>
      </trkpt>
      <trkpt lat="42.87121" lon="0.10209">
        <ele>2363</ele>
        <time>2022-02-22T10:18:26Z</time>
      </trkpt>
      <trkpt lat="42.87113" lon="0.10219">
        <ele>2364</ele>
        <time>2022-02-22T10:18:42Z</time>
      </trkpt>
      <trkpt lat="42.87104" lon="0.1023">
        <ele>2366</ele>
        <time>2022-02-22T10:19:00Z</time>
      </trkpt>
      <trkpt lat="42.87097" lon="0.10241">
        <ele>2369</ele>
        <time>2022-02-22T10:19:18Z</time>
      </trkpt>
      <trkpt lat="42.87088" lon="0.10255">
        <ele>2371</ele>
        <time>2022-02-22T10:19:34Z</time>
      </trkpt>
      <trkpt lat="42.87079" lon="0.10266">
        <ele>2373</ele>
        <time>2022-02-22T10:19:49Z</time>
      </trkpt>
      <trkpt lat="42.87074" lon="0.10272">
        <ele>2375</ele>
        <time>2022-02-22T10:20:03Z</time>
      </trkpt>
      <trkpt lat="42.87067" lon="0.10279">
        <ele>2377</ele>
        <time>2022-02-22T10:20:19Z</time>
      </trkpt>
      <trkpt lat="42.87061" lon="0.10283">
        <ele>2379</ele>
        <time>2022-02-22T10:20:34Z</time>
      </trkpt>
      <trkpt lat="42.87057" lon="0.10287">
        <ele>2380</ele>
        <time>2022-02-22T10:20:49Z</time>
      </trkpt>
      <trkpt lat="42.87051" lon="0.10277">
        <ele>2382</ele>
        <time>2022-02-22T10:21:03Z</time>
      </trkpt>
      <trkpt lat="42.87049" lon="0.10271">
        <ele>2383</ele>
        <time>2022-02-22T10:21:09Z</time>
      </trkpt>
      <trkpt lat="42.87046" lon="0.10257">
        <ele>2385</ele>
        <time>2022-02-22T10:21:24Z</time>
      </trkpt>
      <trkpt lat="42.87042" lon="0.10247">
        <ele>2386</ele>
        <time>2022-02-22T10:21:39Z</time>
      </trkpt>
      <trkpt lat="42.87039" lon="0.10242">
        <ele>2388</ele>
        <time>2022-02-22T10:21:54Z</time>
      </trkpt>
      <trkpt lat="42.87036" lon="0.10233">
        <ele>2389</ele>
        <time>2022-02-22T10:22:09Z</time>
      </trkpt>
      <trkpt lat="42.87033" lon="0.10223">
        <ele>2391</ele>
        <time>2022-02-22T10:22:23Z</time>
      </trkpt>
      <trkpt lat="42.87029" lon="0.1023">
        <ele>2393</ele>
        <time>2022-02-22T10:22:38Z</time>
      </trkpt>
      <trkpt lat="42.87025" lon="0.1024">
        <ele>2397</ele>
        <time>2022-02-22T10:22:54Z</time>
      </trkpt>
      <trkpt lat="42.87021" lon="0.10253">
        <ele>2398</ele>
        <time>2022-02-22T10:23:10Z</time>
      </trkpt>
      <trkpt lat="42.87018" lon="0.10243">
        <ele>2398</ele>
        <time>2022-02-22T10:23:26Z</time>
      </trkpt>
      <trkpt lat="42.87017" lon="0.1023">
        <ele>2400</ele>
        <time>2022-02-22T10:23:41Z</time>
      </trkpt>
      <trkpt lat="42.87015" lon="0.10223">
        <ele>2401</ele>
        <time>2022-02-22T10:23:56Z</time>
      </trkpt>
      <trkpt lat="42.87017" lon="0.10223">
        <ele>2401</ele>
        <time>2022-02-22T10:24:23Z</time>
      </trkpt>
      <trkpt lat="42.87017" lon="0.10226">
        <ele>2401</ele>
        <time>2022-02-22T10:24:40Z</time>
      </trkpt>
      <trkpt lat="42.87018" lon="0.10215">
        <ele>2401</ele>
        <time>2022-02-22T10:24:53Z</time>
      </trkpt>
      <trkpt lat="42.87015" lon="0.10206">
        <ele>2403</ele>
        <time>2022-02-22T10:25:07Z</time>
      </trkpt>
      <trkpt lat="42.87015" lon="0.10204">
        <ele>2404</ele>
        <time>2022-02-22T10:25:20Z</time>
      </trkpt>
      <trkpt lat="42.87018" lon="0.10209">
        <ele>2404</ele>
        <time>2022-02-22T10:25:38Z</time>
      </trkpt>
      <trkpt lat="42.87015" lon="0.10216">
        <ele>2405</ele>
        <time>2022-02-22T10:25:53Z</time>
      </trkpt>
      <trkpt lat="42.87014" lon="0.10225">
        <ele>2407</ele>
        <time>2022-02-22T10:26:07Z</time>
      </trkpt>
      <trkpt lat="42.8701" lon="0.10238">
        <ele>2408</ele>
        <time>2022-02-22T10:26:23Z</time>
      </trkpt>
      <trkpt lat="42.87007" lon="0.1024">
        <ele>2408</ele>
        <time>2022-02-22T10:26:40Z</time>
      </trkpt>
      <trkpt lat="42.87007" lon="0.10244">
        <ele>2408</ele>
        <time>2022-02-22T10:26:59Z</time>
      </trkpt>
      <trkpt lat="42.87004" lon="0.10249">
        <ele>2410</ele>
        <time>2022-02-22T10:27:15Z</time>
      </trkpt>
      <trkpt lat="42.86997" lon="0.10255">
        <ele>2410</ele>
        <time>2022-02-22T10:27:29Z</time>
      </trkpt>
      <trkpt lat="42.86995" lon="0.10262">
        <ele>2411</ele>
        <time>2022-02-22T10:27:41Z</time>
      </trkpt>
      <trkpt lat="42.86992" lon="0.10271">
        <ele>2412</ele>
        <time>2022-02-22T10:27:53Z</time>
      </trkpt>
      <trkpt lat="42.86989" lon="0.10283">
        <ele>2413</ele>
        <time>2022-02-22T10:28:09Z</time>
      </trkpt>
      <trkpt lat="42.8699" lon="0.10285">
        <ele>2413</ele>
        <time>2022-02-22T10:28:24Z</time>
      </trkpt>
      <trkpt lat="42.86989" lon="0.10292">
        <ele>2413</ele>
        <time>2022-02-22T10:28:39Z</time>
      </trkpt>
      <trkpt lat="42.86989" lon="0.10302">
        <ele>2413</ele>
        <time>2022-02-22T10:28:51Z</time>
      </trkpt>
      <trkpt lat="42.86989" lon="0.10301">
        <ele>2413</ele>
        <time>2022-02-22T10:29:10Z</time>
      </trkpt>
      <trkpt lat="42.86988" lon="0.10299">
        <ele>2414</ele>
        <time>2022-02-22T10:29:32Z</time>
      </trkpt>
      <trkpt lat="42.86989" lon="0.10299">
        <ele>2414</ele>
        <time>2022-02-22T10:29:55Z</time>
      </trkpt>
      <trkpt lat="42.86989" lon="0.10297">
        <ele>2413</ele>
        <time>2022-02-22T10:29:57Z</time>
      </trkpt>
      <trkpt lat="42.8699" lon="0.10296">
        <ele>2412</ele>
        <time>2022-02-22T10:30:11Z</time>
      </trkpt>
      <trkpt lat="42.86991" lon="0.10297">
        <ele>2412</ele>
        <time>2022-02-22T10:30:50Z</time>
      </trkpt>
      <trkpt lat="42.8699" lon="0.10298">
        <ele>2412</ele>
        <time>2022-02-22T10:31:25Z</time>
      </trkpt>
      <trkpt lat="42.86991" lon="0.10297">
        <ele>2413</ele>
        <time>2022-02-22T10:31:58Z</time>
      </trkpt>
      <trkpt lat="42.86994" lon="0.10295">
        <ele>2412</ele>
        <time>2022-02-22T10:32:21Z</time>
      </trkpt>
      <trkpt lat="42.86991" lon="0.10297">
        <ele>2412</ele>
        <time>2022-02-22T10:32:48Z</time>
      </trkpt>
      <trkpt lat="42.8699" lon="0.10299">
        <ele>2412</ele>
        <time>2022-02-22T10:33:19Z</time>
      </trkpt>
      <trkpt lat="42.86996" lon="0.10293">
        <ele>2412</ele>
        <time>2022-02-22T10:33:58Z</time>
      </trkpt>
      <trkpt lat="42.86991" lon="0.10297">
        <ele>2412</ele>
        <time>2022-02-22T10:34:29Z</time>
      </trkpt>
      <trkpt lat="42.86991" lon="0.10296">
        <ele>2412</ele>
        <time>2022-02-22T10:35:00Z</time>
      </trkpt>
      <trkpt lat="42.86992" lon="0.10297">
        <ele>2412</ele>
        <time>2022-02-22T10:35:44Z</time>
      </trkpt>
      <trkpt lat="42.86993" lon="0.10297">
        <ele>2412</ele>
        <time>2022-02-22T10:36:23Z</time>
      </trkpt>
      <trkpt lat="42.86992" lon="0.10297">
        <ele>2412</ele>
        <time>2022-02-22T10:37:00Z</time>
      </trkpt>
      <trkpt lat="42.86992" lon="0.10298">
        <ele>2412</ele>
        <time>2022-02-22T10:37:45Z</time>
      </trkpt>
      <trkpt lat="42.86991" lon="0.10296">
        <ele>2411</ele>
        <time>2022-02-22T10:38:12Z</time>
      </trkpt>
      <trkpt lat="42.86993" lon="0.10294">
        <ele>2412</ele>
        <time>2022-02-22T10:38:52Z</time>
      </trkpt>
      <trkpt lat="42.86991" lon="0.10296">
        <ele>2411</ele>
        <time>2022-02-22T10:39:28Z</time>
      </trkpt>
      <trkpt lat="42.86991" lon="0.10297">
        <ele>2412</ele>
        <time>2022-02-22T10:39:59Z</time>
      </trkpt>
      <trkpt lat="42.86992" lon="0.10299">
        <ele>2412</ele>
        <time>2022-02-22T10:40:29Z</time>
      </trkpt>
      <trkpt lat="42.86991" lon="0.10298">
        <ele>2412</ele>
        <time>2022-02-22T10:40:56Z</time>
      </trkpt>
      <trkpt lat="42.86989" lon="0.103">
        <ele>2414</ele>
        <time>2022-02-22T10:41:06Z</time>
      </trkpt>
      <trkpt lat="42.86988" lon="0.10299">
        <ele>2413</ele>
        <time>2022-02-22T10:41:28Z</time>
      </trkpt>
      <trkpt lat="42.86987" lon="0.103">
        <ele>2413</ele>
        <time>2022-02-22T10:41:46Z</time>
      </trkpt>
      <trkpt lat="42.86988" lon="0.10302">
        <ele>2414</ele>
        <time>2022-02-22T10:42:12Z</time>
      </trkpt>
      <trkpt lat="42.86986" lon="0.10302">
        <ele>2414</ele>
        <time>2022-02-22T10:42:33Z</time>
      </trkpt>
      <trkpt lat="42.86987" lon="0.10299">
        <ele>2414</ele>
        <time>2022-02-22T10:42:56Z</time>
      </trkpt>
      <trkpt lat="42.86987" lon="0.10299">
        <ele>2413</ele>
        <time>2022-02-22T10:42:59Z</time>
      </trkpt>
      <trkpt lat="42.86987" lon="0.10297">
        <ele>2413</ele>
        <time>2022-02-22T10:43:28Z</time>
      </trkpt>
      <trkpt lat="42.86986" lon="0.103">
        <ele>2413</ele>
        <time>2022-02-22T10:43:58Z</time>
      </trkpt>
      <trkpt lat="42.86985" lon="0.10297">
        <ele>2414</ele>
        <time>2022-02-22T10:44:24Z</time>
      </trkpt>
      <trkpt lat="42.86978" lon="0.10293">
        <ele>2417</ele>
        <time>2022-02-22T10:44:40Z</time>
      </trkpt>
      <trkpt lat="42.86975" lon="0.10284">
        <ele>2418</ele>
        <time>2022-02-22T10:44:54Z</time>
      </trkpt>
      <trkpt lat="42.8697" lon="0.10275">
        <ele>2421</ele>
        <time>2022-02-22T10:45:12Z</time>
      </trkpt>
      <trkpt lat="42.86968" lon="0.10265">
        <ele>2422</ele>
        <time>2022-02-22T10:45:26Z</time>
      </trkpt>
      <trkpt lat="42.86964" lon="0.10257">
        <ele>2424</ele>
        <time>2022-02-22T10:45:41Z</time>
      </trkpt>
      <trkpt lat="42.86967" lon="0.10246">
        <ele>2426</ele>
        <time>2022-02-22T10:46:07Z</time>
      </trkpt>
      <trkpt lat="42.86964" lon="0.10248">
        <ele>2427</ele>
        <time>2022-02-22T10:46:24Z</time>
      </trkpt>
      <trkpt lat="42.86959" lon="0.10255">
        <ele>2429</ele>
        <time>2022-02-22T10:46:38Z</time>
      </trkpt>
      <trkpt lat="42.86955" lon="0.10259">
        <ele>2431</ele>
        <time>2022-02-22T10:46:53Z</time>
      </trkpt>
      <trkpt lat="42.8695" lon="0.10261">
        <ele>2434</ele>
        <time>2022-02-22T10:47:10Z</time>
      </trkpt>
      <trkpt lat="42.86946" lon="0.10267">
        <ele>2436</ele>
        <time>2022-02-22T10:47:27Z</time>
      </trkpt>
      <trkpt lat="42.86943" lon="0.10269">
        <ele>2437</ele>
        <time>2022-02-22T10:47:41Z</time>
      </trkpt>
      <trkpt lat="42.86938" lon="0.10272">
        <ele>2439</ele>
        <time>2022-02-22T10:47:58Z</time>
      </trkpt>
      <trkpt lat="42.86935" lon="0.10275">
        <ele>2440</ele>
        <time>2022-02-22T10:48:18Z</time>
      </trkpt>
      <trkpt lat="42.86931" lon="0.10276">
        <ele>2443</ele>
        <time>2022-02-22T10:48:35Z</time>
      </trkpt>
      <trkpt lat="42.86927" lon="0.10276">
        <ele>2444</ele>
        <time>2022-02-22T10:48:48Z</time>
      </trkpt>
      <trkpt lat="42.86926" lon="0.10274">
        <ele>2445</ele>
        <time>2022-02-22T10:49:06Z</time>
      </trkpt>
      <trkpt lat="42.86924" lon="0.10268">
        <ele>2446</ele>
        <time>2022-02-22T10:49:20Z</time>
      </trkpt>
      <trkpt lat="42.86924" lon="0.10265">
        <ele>2447</ele>
        <time>2022-02-22T10:49:38Z</time>
      </trkpt>
      <trkpt lat="42.86921" lon="0.10262">
        <ele>2449</ele>
        <time>2022-02-22T10:49:51Z</time>
      </trkpt>
      <trkpt lat="42.86921" lon="0.10258">
        <ele>2451</ele>
        <time>2022-02-22T10:50:12Z</time>
      </trkpt>
      <trkpt lat="42.8692" lon="0.10255">
        <ele>2452</ele>
        <time>2022-02-22T10:50:28Z</time>
      </trkpt>
      <trkpt lat="42.86918" lon="0.10251">
        <ele>2454</ele>
        <time>2022-02-22T10:50:46Z</time>
      </trkpt>
      <trkpt lat="42.86918" lon="0.10247">
        <ele>2456</ele>
        <time>2022-02-22T10:51:03Z</time>
      </trkpt>
      <trkpt lat="42.86918" lon="0.10246">
        <ele>2457</ele>
        <time>2022-02-22T10:51:05Z</time>
      </trkpt>
      <trkpt lat="42.86917" lon="0.10242">
        <ele>2457</ele>
        <time>2022-02-22T10:51:17Z</time>
      </trkpt>
      <trkpt lat="42.86917" lon="0.10236">
        <ele>2458</ele>
        <time>2022-02-22T10:51:32Z</time>
      </trkpt>
      <trkpt lat="42.86917" lon="0.10232">
        <ele>2460</ele>
        <time>2022-02-22T10:51:49Z</time>
      </trkpt>
      <trkpt lat="42.86916" lon="0.10228">
        <ele>2461</ele>
        <time>2022-02-22T10:52:08Z</time>
      </trkpt>
      <trkpt lat="42.86915" lon="0.10223">
        <ele>2462</ele>
        <time>2022-02-22T10:52:25Z</time>
      </trkpt>
      <trkpt lat="42.86914" lon="0.10218">
        <ele>2463</ele>
        <time>2022-02-22T10:52:40Z</time>
      </trkpt>
      <trkpt lat="42.86915" lon="0.10213">
        <ele>2464</ele>
        <time>2022-02-22T10:52:58Z</time>
      </trkpt>
      <trkpt lat="42.86916" lon="0.10215">
        <ele>2464</ele>
        <time>2022-02-22T10:53:18Z</time>
      </trkpt>
      <trkpt lat="42.86913" lon="0.10219">
        <ele>2466</ele>
        <time>2022-02-22T10:53:31Z</time>
      </trkpt>
      <trkpt lat="42.8691" lon="0.1022">
        <ele>2467</ele>
        <time>2022-02-22T10:53:45Z</time>
      </trkpt>
      <trkpt lat="42.86907" lon="0.10222">
        <ele>2468</ele>
        <time>2022-02-22T10:54:01Z</time>
      </trkpt>
      <trkpt lat="42.86905" lon="0.10222">
        <ele>2469</ele>
        <time>2022-02-22T10:54:22Z</time>
      </trkpt>
      <trkpt lat="42.86905" lon="0.10214">
        <ele>2471</ele>
        <time>2022-02-22T10:54:42Z</time>
      </trkpt>
      <trkpt lat="42.86905" lon="0.10208">
        <ele>2472</ele>
        <time>2022-02-22T10:54:57Z</time>
      </trkpt>
      <trkpt lat="42.86906" lon="0.10203">
        <ele>2474</ele>
        <time>2022-02-22T10:55:13Z</time>
      </trkpt>
      <trkpt lat="42.86906" lon="0.10202">
        <ele>2473</ele>
        <time>2022-02-22T10:55:39Z</time>
      </trkpt>
      <trkpt lat="42.86908" lon="0.10194">
        <ele>2475</ele>
        <time>2022-02-22T10:55:57Z</time>
      </trkpt>
      <trkpt lat="42.86908" lon="0.10187">
        <ele>2476</ele>
        <time>2022-02-22T10:56:16Z</time>
      </trkpt>
      <trkpt lat="42.86909" lon="0.10179">
        <ele>2478</ele>
        <time>2022-02-22T10:56:34Z</time>
      </trkpt>
      <trkpt lat="42.86907" lon="0.10174">
        <ele>2479</ele>
        <time>2022-02-22T10:56:51Z</time>
      </trkpt>
      <trkpt lat="42.86906" lon="0.10167">
        <ele>2482</ele>
        <time>2022-02-22T10:57:08Z</time>
      </trkpt>
      <trkpt lat="42.86906" lon="0.10166">
        <ele>2482</ele>
        <time>2022-02-22T10:57:31Z</time>
      </trkpt>
      <trkpt lat="42.86907" lon="0.10161">
        <ele>2483</ele>
        <time>2022-02-22T10:57:44Z</time>
      </trkpt>
      <trkpt lat="42.86909" lon="0.10153">
        <ele>2485</ele>
        <time>2022-02-22T10:57:57Z</time>
      </trkpt>
      <trkpt lat="42.86909" lon="0.10151">
        <ele>2486</ele>
        <time>2022-02-22T10:58:09Z</time>
      </trkpt>
      <trkpt lat="42.86909" lon="0.10145">
        <ele>2488</ele>
        <time>2022-02-22T10:58:25Z</time>
      </trkpt>
      <trkpt lat="42.86908" lon="0.1014">
        <ele>2489</ele>
        <time>2022-02-22T10:58:39Z</time>
      </trkpt>
      <trkpt lat="42.86909" lon="0.10137">
        <ele>2491</ele>
        <time>2022-02-22T10:58:56Z</time>
      </trkpt>
      <trkpt lat="42.8691" lon="0.10136">
        <ele>2492</ele>
        <time>2022-02-22T10:59:20Z</time>
      </trkpt>
      <trkpt lat="42.8691" lon="0.10133">
        <ele>2493</ele>
        <time>2022-02-22T10:59:32Z</time>
      </trkpt>
      <trkpt lat="42.86907" lon="0.10137">
        <ele>2494</ele>
        <time>2022-02-22T10:59:47Z</time>
      </trkpt>
      <trkpt lat="42.86904" lon="0.10137">
        <ele>2496</ele>
        <time>2022-02-22T11:00:01Z</time>
      </trkpt>
      <trkpt lat="42.86901" lon="0.10135">
        <ele>2498</ele>
        <time>2022-02-22T11:00:14Z</time>
      </trkpt>
      <trkpt lat="42.86899" lon="0.10133">
        <ele>2501</ele>
        <time>2022-02-22T11:00:26Z</time>
      </trkpt>
      <trkpt lat="42.86898" lon="0.10126">
        <ele>2502</ele>
        <time>2022-02-22T11:00:40Z</time>
      </trkpt>
      <trkpt lat="42.86898" lon="0.10125">
        <ele>2503</ele>
        <time>2022-02-22T11:00:58Z</time>
      </trkpt>
      <trkpt lat="42.86898" lon="0.10119">
        <ele>2504</ele>
        <time>2022-02-22T11:01:13Z</time>
      </trkpt>
      <trkpt lat="42.86897" lon="0.10122">
        <ele>2505</ele>
        <time>2022-02-22T11:01:42Z</time>
      </trkpt>
      <trkpt lat="42.86897" lon="0.10122">
        <ele>2504</ele>
        <time>2022-02-22T11:02:07Z</time>
      </trkpt>
      <trkpt lat="42.86898" lon="0.10123">
        <ele>2505</ele>
        <time>2022-02-22T11:02:29Z</time>
      </trkpt>
      <trkpt lat="42.86898" lon="0.1012">
        <ele>2505</ele>
        <time>2022-02-22T11:02:55Z</time>
      </trkpt>
      <trkpt lat="42.86899" lon="0.10119">
        <ele>2505</ele>
        <time>2022-02-22T11:03:34Z</time>
      </trkpt>
      <trkpt lat="42.86899" lon="0.10121">
        <ele>2505</ele>
        <time>2022-02-22T11:03:52Z</time>
      </trkpt>
      <trkpt lat="42.86899" lon="0.1012">
        <ele>2505</ele>
        <time>2022-02-22T11:04:13Z</time>
      </trkpt>
      <trkpt lat="42.86899" lon="0.1012">
        <ele>2506</ele>
        <time>2022-02-22T11:04:38Z</time>
      </trkpt>
      <trkpt lat="42.869" lon="0.10119">
        <ele>2506</ele>
        <time>2022-02-22T11:04:56Z</time>
      </trkpt>
      <trkpt lat="42.86901" lon="0.10118">
        <ele>2506</ele>
        <time>2022-02-22T11:05:21Z</time>
      </trkpt>
      <trkpt lat="42.86899" lon="0.10121">
        <ele>2506</ele>
        <time>2022-02-22T11:05:39Z</time>
      </trkpt>
      <trkpt lat="42.869" lon="0.10117">
        <ele>2506</ele>
        <time>2022-02-22T11:05:54Z</time>
      </trkpt>
      <trkpt lat="42.86898" lon="0.10121">
        <ele>2506</ele>
        <time>2022-02-22T11:06:11Z</time>
      </trkpt>
      <trkpt lat="42.86899" lon="0.1012">
        <ele>2504</ele>
        <time>2022-02-22T11:06:23Z</time>
      </trkpt>
      <trkpt lat="42.86898" lon="0.10119">
        <ele>2504</ele>
        <time>2022-02-22T11:06:54Z</time>
      </trkpt>
      <trkpt lat="42.86899" lon="0.1012">
        <ele>2504</ele>
        <time>2022-02-22T11:07:12Z</time>
      </trkpt>
      <trkpt lat="42.86898" lon="0.1012">
        <ele>2504</ele>
        <time>2022-02-22T11:07:47Z</time>
      </trkpt>
      <trkpt lat="42.86898" lon="0.10119">
        <ele>2504</ele>
        <time>2022-02-22T11:08:22Z</time>
      </trkpt>
      <trkpt lat="42.86898" lon="0.10119">
        <ele>2504</ele>
        <time>2022-02-22T11:08:59Z</time>
      </trkpt>
      <trkpt lat="42.86898" lon="0.10119">
        <ele>2503</ele>
        <time>2022-02-22T11:09:48Z</time>
      </trkpt>
      <trkpt lat="42.86898" lon="0.10119">
        <ele>2504</ele>
        <time>2022-02-22T11:10:33Z</time>
      </trkpt>
      <trkpt lat="42.86898" lon="0.10119">
        <ele>2504</ele>
        <time>2022-02-22T11:11:13Z</time>
      </trkpt>
      <trkpt lat="42.86899" lon="0.10119">
        <ele>2504</ele>
        <time>2022-02-22T11:11:57Z</time>
      </trkpt>
      <trkpt lat="42.86899" lon="0.10119">
        <ele>2504</ele>
        <time>2022-02-22T11:12:42Z</time>
      </trkpt>
      <trkpt lat="42.86898" lon="0.10119">
        <ele>2503</ele>
        <time>2022-02-22T11:13:21Z</time>
      </trkpt>
      <trkpt lat="42.86899" lon="0.1012">
        <ele>2504</ele>
        <time>2022-02-22T11:14:08Z</time>
      </trkpt>
      <trkpt lat="42.86899" lon="0.1012">
        <ele>2504</ele>
        <time>2022-02-22T11:14:47Z</time>
      </trkpt>
      <trkpt lat="42.869" lon="0.1012">
        <ele>2504</ele>
        <time>2022-02-22T11:15:25Z</time>
      </trkpt>
      <trkpt lat="42.869" lon="0.1012">
        <ele>2503</ele>
        <time>2022-02-22T11:15:57Z</time>
      </trkpt>
      <trkpt lat="42.869" lon="0.10121">
        <ele>2504</ele>
        <time>2022-02-22T11:16:41Z</time>
      </trkpt>
      <trkpt lat="42.86901" lon="0.10121">
        <ele>2504</ele>
        <time>2022-02-22T11:17:20Z</time>
      </trkpt>
      <trkpt lat="42.86901" lon="0.10121">
        <ele>2504</ele>
        <time>2022-02-22T11:17:55Z</time>
      </trkpt>
      <trkpt lat="42.86901" lon="0.10121">
        <ele>2504</ele>
        <time>2022-02-22T11:18:26Z</time>
      </trkpt>
      <trkpt lat="42.86901" lon="0.10121">
        <ele>2504</ele>
        <time>2022-02-22T11:19:05Z</time>
      </trkpt>
      <trkpt lat="42.86901" lon="0.10121">
        <ele>2504</ele>
        <time>2022-02-22T11:19:46Z</time>
      </trkpt>
      <trkpt lat="42.86901" lon="0.10121">
        <ele>2504</ele>
        <time>2022-02-22T11:20:30Z</time>
      </trkpt>
      <trkpt lat="42.86901" lon="0.10121">
        <ele>2504</ele>
        <time>2022-02-22T11:21:11Z</time>
      </trkpt>
      <trkpt lat="42.869" lon="0.1012">
        <ele>2505</ele>
        <time>2022-02-22T11:21:50Z</time>
      </trkpt>
      <trkpt lat="42.869" lon="0.10121">
        <ele>2504</ele>
        <time>2022-02-22T11:22:30Z</time>
      </trkpt>
      <trkpt lat="42.86901" lon="0.10121">
        <ele>2504</ele>
        <time>2022-02-22T11:23:04Z</time>
      </trkpt>
      <trkpt lat="42.86902" lon="0.10122">
        <ele>2505</ele>
        <time>2022-02-22T11:23:35Z</time>
      </trkpt>
      <trkpt lat="42.86902" lon="0.10122">
        <ele>2505</ele>
        <time>2022-02-22T11:24:12Z</time>
      </trkpt>
      <trkpt lat="42.86902" lon="0.10122">
        <ele>2504</ele>
        <time>2022-02-22T11:24:43Z</time>
      </trkpt>
      <trkpt lat="42.86901" lon="0.10121">
        <ele>2505</ele>
        <time>2022-02-22T11:25:09Z</time>
      </trkpt>
      <trkpt lat="42.86901" lon="0.10121">
        <ele>2505</ele>
        <time>2022-02-22T11:25:32Z</time>
      </trkpt>
      <trkpt lat="42.86902" lon="0.10119">
        <ele>2505</ele>
        <time>2022-02-22T11:25:48Z</time>
      </trkpt>
      <trkpt lat="42.86902" lon="0.1012">
        <ele>2504</ele>
        <time>2022-02-22T11:26:12Z</time>
      </trkpt>
      <trkpt lat="42.86903" lon="0.1012">
        <ele>2505</ele>
        <time>2022-02-22T11:26:41Z</time>
      </trkpt>
      <trkpt lat="42.86902" lon="0.10121">
        <ele>2505</ele>
        <time>2022-02-22T11:27:05Z</time>
      </trkpt>
      <trkpt lat="42.86903" lon="0.1012">
        <ele>2505</ele>
        <time>2022-02-22T11:27:35Z</time>
      </trkpt>
      <trkpt lat="42.86902" lon="0.10119">
        <ele>2504</ele>
        <time>2022-02-22T11:27:59Z</time>
      </trkpt>
      <trkpt lat="42.86902" lon="0.1012">
        <ele>2505</ele>
        <time>2022-02-22T11:28:04Z</time>
      </trkpt>
      <trkpt lat="42.869" lon="0.10121">
        <ele>2505</ele>
        <time>2022-02-22T11:28:17Z</time>
      </trkpt>
      <trkpt lat="42.86899" lon="0.10122">
        <ele>2505</ele>
        <time>2022-02-22T11:28:32Z</time>
      </trkpt>
      <trkpt lat="42.86899" lon="0.10123">
        <ele>2505</ele>
        <time>2022-02-22T11:28:50Z</time>
      </trkpt>
      <trkpt lat="42.86898" lon="0.10121">
        <ele>2506</ele>
        <time>2022-02-22T11:29:09Z</time>
      </trkpt>
      <trkpt lat="42.86898" lon="0.10122">
        <ele>2505</ele>
        <time>2022-02-22T11:29:29Z</time>
      </trkpt>
      <trkpt lat="42.86902" lon="0.10122">
        <ele>2505</ele>
        <time>2022-02-22T11:29:49Z</time>
      </trkpt>
      <trkpt lat="42.86901" lon="0.10125">
        <ele>2504</ele>
        <time>2022-02-22T11:30:05Z</time>
      </trkpt>
      <trkpt lat="42.86899" lon="0.10122">
        <ele>2505</ele>
        <time>2022-02-22T11:30:23Z</time>
      </trkpt>
      <trkpt lat="42.86902" lon="0.1013">
        <ele>2503</ele>
        <time>2022-02-22T11:30:38Z</time>
      </trkpt>
      <trkpt lat="42.86904" lon="0.10131">
        <ele>2502</ele>
        <time>2022-02-22T11:30:55Z</time>
      </trkpt>
      <trkpt lat="42.86902" lon="0.1013">
        <ele>2501</ele>
        <time>2022-02-22T11:31:15Z</time>
      </trkpt>
      <trkpt lat="42.86902" lon="0.10131">
        <ele>2501</ele>
        <time>2022-02-22T11:31:34Z</time>
      </trkpt>
      <trkpt lat="42.86905" lon="0.10134">
        <ele>2499</ele>
        <time>2022-02-22T11:31:51Z</time>
      </trkpt>
      <trkpt lat="42.86907" lon="0.10132">
        <ele>2497</ele>
        <time>2022-02-22T11:32:07Z</time>
      </trkpt>
      <trkpt lat="42.86912" lon="0.10131">
        <ele>2496</ele>
        <time>2022-02-22T11:32:19Z</time>
      </trkpt>
      <trkpt lat="42.86913" lon="0.10136">
        <ele>2494</ele>
        <time>2022-02-22T11:32:31Z</time>
      </trkpt>
      <trkpt lat="42.86915" lon="0.10138">
        <ele>2493</ele>
        <time>2022-02-22T11:32:35Z</time>
      </trkpt>
      <trkpt lat="42.86913" lon="0.10142">
        <ele>2491</ele>
        <time>2022-02-22T11:32:48Z</time>
      </trkpt>
      <trkpt lat="42.86914" lon="0.10145">
        <ele>2490</ele>
        <time>2022-02-22T11:32:54Z</time>
      </trkpt>
      <trkpt lat="42.86912" lon="0.10157">
        <ele>2488</ele>
        <time>2022-02-22T11:33:08Z</time>
      </trkpt>
      <trkpt lat="42.86912" lon="0.1016">
        <ele>2486</ele>
        <time>2022-02-22T11:33:20Z</time>
      </trkpt>
      <trkpt lat="42.86912" lon="0.10168">
        <ele>2485</ele>
        <time>2022-02-22T11:33:34Z</time>
      </trkpt>
      <trkpt lat="42.86913" lon="0.10176">
        <ele>2482</ele>
        <time>2022-02-22T11:33:47Z</time>
      </trkpt>
      <trkpt lat="42.86912" lon="0.10185">
        <ele>2479</ele>
        <time>2022-02-22T11:33:59Z</time>
      </trkpt>
      <trkpt lat="42.86911" lon="0.10193">
        <ele>2477</ele>
        <time>2022-02-22T11:34:11Z</time>
      </trkpt>
      <trkpt lat="42.8691" lon="0.10202">
        <ele>2476</ele>
        <time>2022-02-22T11:34:26Z</time>
      </trkpt>
      <trkpt lat="42.86911" lon="0.10212">
        <ele>2474</ele>
        <time>2022-02-22T11:34:44Z</time>
      </trkpt>
      <trkpt lat="42.86912" lon="0.10221">
        <ele>2472</ele>
        <time>2022-02-22T11:34:59Z</time>
      </trkpt>
      <trkpt lat="42.86915" lon="0.10216">
        <ele>2470</ele>
        <time>2022-02-22T11:35:13Z</time>
      </trkpt>
      <trkpt lat="42.86917" lon="0.10215">
        <ele>2469</ele>
        <time>2022-02-22T11:35:30Z</time>
      </trkpt>
      <trkpt lat="42.8692" lon="0.10215">
        <ele>2466</ele>
        <time>2022-02-22T11:35:42Z</time>
      </trkpt>
      <trkpt lat="42.86921" lon="0.1022">
        <ele>2465</ele>
        <time>2022-02-22T11:35:57Z</time>
      </trkpt>
      <trkpt lat="42.86921" lon="0.10227">
        <ele>2464</ele>
        <time>2022-02-22T11:36:12Z</time>
      </trkpt>
      <trkpt lat="42.86921" lon="0.10235">
        <ele>2461</ele>
        <time>2022-02-22T11:36:27Z</time>
      </trkpt>
      <trkpt lat="42.86922" lon="0.10245">
        <ele>2459</ele>
        <time>2022-02-22T11:36:42Z</time>
      </trkpt>
      <trkpt lat="42.86922" lon="0.10251">
        <ele>2458</ele>
        <time>2022-02-22T11:36:56Z</time>
      </trkpt>
      <trkpt lat="42.86926" lon="0.10255">
        <ele>2455</ele>
        <time>2022-02-22T11:37:09Z</time>
      </trkpt>
      <trkpt lat="42.86927" lon="0.10257">
        <ele>2454</ele>
        <time>2022-02-22T11:37:14Z</time>
      </trkpt>
      <trkpt lat="42.86929" lon="0.10263">
        <ele>2451</ele>
        <time>2022-02-22T11:37:27Z</time>
      </trkpt>
      <trkpt lat="42.86931" lon="0.10269">
        <ele>2448</ele>
        <time>2022-02-22T11:37:41Z</time>
      </trkpt>
      <trkpt lat="42.86931" lon="0.10267">
        <ele>2445</ele>
        <time>2022-02-22T11:37:55Z</time>
      </trkpt>
      <trkpt lat="42.86936" lon="0.10263">
        <ele>2443</ele>
        <time>2022-02-22T11:38:11Z</time>
      </trkpt>
      <trkpt lat="42.8694" lon="0.10259">
        <ele>2440</ele>
        <time>2022-02-22T11:38:25Z</time>
      </trkpt>
      <trkpt lat="42.86944" lon="0.10257">
        <ele>2439</ele>
        <time>2022-02-22T11:38:37Z</time>
      </trkpt>
      <trkpt lat="42.86948" lon="0.10252">
        <ele>2437</ele>
        <time>2022-02-22T11:38:48Z</time>
      </trkpt>
      <trkpt lat="42.86955" lon="0.10247">
        <ele>2434</ele>
        <time>2022-02-22T11:38:59Z</time>
      </trkpt>
      <trkpt lat="42.86958" lon="0.10247">
        <ele>2432</ele>
        <time>2022-02-22T11:39:08Z</time>
      </trkpt>
      <trkpt lat="42.86959" lon="0.10247">
        <ele>2431</ele>
        <time>2022-02-22T11:39:11Z</time>
      </trkpt>
      <trkpt lat="42.86965" lon="0.10252">
        <ele>2429</ele>
        <time>2022-02-22T11:39:25Z</time>
      </trkpt>
      <trkpt lat="42.86968" lon="0.10261">
        <ele>2427</ele>
        <time>2022-02-22T11:39:46Z</time>
      </trkpt>
      <trkpt lat="42.86971" lon="0.10267">
        <ele>2425</ele>
        <time>2022-02-22T11:39:54Z</time>
      </trkpt>
      <trkpt lat="42.86977" lon="0.10277">
        <ele>2422</ele>
        <time>2022-02-22T11:40:07Z</time>
      </trkpt>
      <trkpt lat="42.86983" lon="0.1028">
        <ele>2418</ele>
        <time>2022-02-22T11:40:18Z</time>
      </trkpt>
      <trkpt lat="42.86989" lon="0.10287">
        <ele>2415</ele>
        <time>2022-02-22T11:40:29Z</time>
      </trkpt>
      <trkpt lat="42.86993" lon="0.10298">
        <ele>2414</ele>
        <time>2022-02-22T11:40:42Z</time>
      </trkpt>
      <trkpt lat="42.86991" lon="0.10298">
        <ele>2414</ele>
        <time>2022-02-22T11:40:54Z</time>
      </trkpt>
      <trkpt lat="42.86991" lon="0.10298">
        <ele>2414</ele>
        <time>2022-02-22T11:41:01Z</time>
      </trkpt>
      <trkpt lat="42.86991" lon="0.10296">
        <ele>2413</ele>
        <time>2022-02-22T11:41:05Z</time>
      </trkpt>
      <trkpt lat="42.86991" lon="0.10297">
        <ele>2412</ele>
        <time>2022-02-22T11:41:22Z</time>
      </trkpt>
      <trkpt lat="42.86992" lon="0.10298">
        <ele>2413</ele>
        <time>2022-02-22T11:41:42Z</time>
      </trkpt>
      <trkpt lat="42.86992" lon="0.10298">
        <ele>2413</ele>
        <time>2022-02-22T11:42:18Z</time>
      </trkpt>
      <trkpt lat="42.86993" lon="0.10297">
        <ele>2412</ele>
        <time>2022-02-22T11:42:33Z</time>
      </trkpt>
      <trkpt lat="42.86991" lon="0.10298">
        <ele>2413</ele>
        <time>2022-02-22T11:42:44Z</time>
      </trkpt>
      <trkpt lat="42.86991" lon="0.10297">
        <ele>2413</ele>
        <time>2022-02-22T11:43:02Z</time>
      </trkpt>
      <trkpt lat="42.86993" lon="0.10295">
        <ele>2413</ele>
        <time>2022-02-22T11:43:18Z</time>
      </trkpt>
      <trkpt lat="42.86998" lon="0.10296">
        <ele>2411</ele>
        <time>2022-02-22T11:43:25Z</time>
      </trkpt>
      <trkpt lat="42.87001" lon="0.10301">
        <ele>2410</ele>
        <time>2022-02-22T11:43:29Z</time>
      </trkpt>
      <trkpt lat="42.87003" lon="0.10304">
        <ele>2409</ele>
        <time>2022-02-22T11:43:32Z</time>
      </trkpt>
      <trkpt lat="42.8701" lon="0.10313">
        <ele>2405</ele>
        <time>2022-02-22T11:43:44Z</time>
      </trkpt>
      <trkpt lat="42.87013" lon="0.10316">
        <ele>2403</ele>
        <time>2022-02-22T11:43:48Z</time>
      </trkpt>
      <trkpt lat="42.87021" lon="0.10321">
        <ele>2400</ele>
        <time>2022-02-22T11:43:58Z</time>
      </trkpt>
      <trkpt lat="42.87021" lon="0.10322">
        <ele>2400</ele>
        <time>2022-02-22T11:43:59Z</time>
      </trkpt>
      <trkpt lat="42.87026" lon="0.10331">
        <ele>2398</ele>
        <time>2022-02-22T11:44:13Z</time>
      </trkpt>
      <trkpt lat="42.87025" lon="0.10329">
        <ele>2398</ele>
        <time>2022-02-22T11:44:29Z</time>
      </trkpt>
      <trkpt lat="42.87024" lon="0.10327">
        <ele>2397</ele>
        <time>2022-02-22T11:44:53Z</time>
      </trkpt>
      <trkpt lat="42.87023" lon="0.10326">
        <ele>2397</ele>
        <time>2022-02-22T11:45:31Z</time>
      </trkpt>
      <trkpt lat="42.87021" lon="0.10324">
        <ele>2397</ele>
        <time>2022-02-22T11:46:07Z</time>
      </trkpt>
      <trkpt lat="42.8702" lon="0.10323">
        <ele>2397</ele>
        <time>2022-02-22T11:46:44Z</time>
      </trkpt>
      <trkpt lat="42.87022" lon="0.10329">
        <ele>2397</ele>
        <time>2022-02-22T11:47:04Z</time>
      </trkpt>
      <trkpt lat="42.87022" lon="0.10325">
        <ele>2397</ele>
        <time>2022-02-22T11:47:55Z</time>
      </trkpt>
      <trkpt lat="42.87025" lon="0.10325">
        <ele>2398</ele>
        <time>2022-02-22T11:48:28Z</time>
      </trkpt>
      <trkpt lat="42.87028" lon="0.10332">
        <ele>2400</ele>
        <time>2022-02-22T11:48:40Z</time>
      </trkpt>
      <trkpt lat="42.87024" lon="0.10333">
        <ele>2399</ele>
        <time>2022-02-22T11:48:59Z</time>
      </trkpt>
      <trkpt lat="42.87025" lon="0.10332">
        <ele>2399</ele>
        <time>2022-02-22T11:49:21Z</time>
      </trkpt>
      <trkpt lat="42.87026" lon="0.10332">
        <ele>2400</ele>
        <time>2022-02-22T11:49:43Z</time>
      </trkpt>
      <trkpt lat="42.87028" lon="0.10335">
        <ele>2399</ele>
        <time>2022-02-22T11:50:04Z</time>
      </trkpt>
      <trkpt lat="42.87027" lon="0.10332">
        <ele>2399</ele>
        <time>2022-02-22T11:50:19Z</time>
      </trkpt>
      <trkpt lat="42.87029" lon="0.10332">
        <ele>2399</ele>
        <time>2022-02-22T11:50:23Z</time>
      </trkpt>
      <trkpt lat="42.87038" lon="0.10337">
        <ele>2397</ele>
        <time>2022-02-22T11:50:31Z</time>
      </trkpt>
      <trkpt lat="42.87033" lon="0.10336">
        <ele>2397</ele>
        <time>2022-02-22T11:50:51Z</time>
      </trkpt>
      <trkpt lat="42.87033" lon="0.10337">
        <ele>2397</ele>
        <time>2022-02-22T11:51:14Z</time>
      </trkpt>
      <trkpt lat="42.87034" lon="0.10339">
        <ele>2397</ele>
        <time>2022-02-22T11:51:40Z</time>
      </trkpt>
      <trkpt lat="42.87032" lon="0.10335">
        <ele>2397</ele>
        <time>2022-02-22T11:52:05Z</time>
      </trkpt>
      <trkpt lat="42.87032" lon="0.10334">
        <ele>2397</ele>
        <time>2022-02-22T11:52:23Z</time>
      </trkpt>
      <trkpt lat="42.87032" lon="0.10333">
        <ele>2397</ele>
        <time>2022-02-22T11:52:47Z</time>
      </trkpt>
      <trkpt lat="42.87032" lon="0.10326">
        <ele>2397</ele>
        <time>2022-02-22T11:53:09Z</time>
      </trkpt>
      <trkpt lat="42.87034" lon="0.10333">
        <ele>2397</ele>
        <time>2022-02-22T11:53:28Z</time>
      </trkpt>
      <trkpt lat="42.87034" lon="0.10309">
        <ele>2394</ele>
        <time>2022-02-22T11:53:35Z</time>
      </trkpt>
      <trkpt lat="42.87044" lon="0.10305">
        <ele>2390</ele>
        <time>2022-02-22T11:53:39Z</time>
      </trkpt>
      <trkpt lat="42.87051" lon="0.10312">
        <ele>2389</ele>
        <time>2022-02-22T11:53:41Z</time>
      </trkpt>
      <trkpt lat="42.87054" lon="0.10316">
        <ele>2389</ele>
        <time>2022-02-22T11:53:44Z</time>
      </trkpt>
      <trkpt lat="42.87062" lon="0.10308">
        <ele>2386</ele>
        <time>2022-02-22T11:53:49Z</time>
      </trkpt>
      <trkpt lat="42.87078" lon="0.103">
        <ele>2382</ele>
        <time>2022-02-22T11:53:53Z</time>
      </trkpt>
      <trkpt lat="42.87082" lon="0.10297">
        <ele>2382</ele>
        <time>2022-02-22T11:53:54Z</time>
      </trkpt>
      <trkpt lat="42.87096" lon="0.10289">
        <ele>2381</ele>
        <time>2022-02-22T11:53:57Z</time>
      </trkpt>
      <trkpt lat="42.87108" lon="0.10278">
        <ele>2379</ele>
        <time>2022-02-22T11:54:00Z</time>
      </trkpt>
      <trkpt lat="42.87122" lon="0.10268">
        <ele>2377</ele>
        <time>2022-02-22T11:54:03Z</time>
      </trkpt>
      <trkpt lat="42.87148" lon="0.10246">
        <ele>2373</ele>
        <time>2022-02-22T11:54:11Z</time>
      </trkpt>
      <trkpt lat="42.8716" lon="0.10237">
        <ele>2372</ele>
        <time>2022-02-22T11:54:14Z</time>
      </trkpt>
      <trkpt lat="42.87169" lon="0.1023">
        <ele>2370</ele>
        <time>2022-02-22T11:54:16Z</time>
      </trkpt>
      <trkpt lat="42.87184" lon="0.10217">
        <ele>2367</ele>
        <time>2022-02-22T11:54:19Z</time>
      </trkpt>
      <trkpt lat="42.87204" lon="0.10201">
        <ele>2364</ele>
        <time>2022-02-22T11:54:23Z</time>
      </trkpt>
      <trkpt lat="42.87214" lon="0.10193">
        <ele>2362</ele>
        <time>2022-02-22T11:54:25Z</time>
      </trkpt>
      <trkpt lat="42.87225" lon="0.10183">
        <ele>2360</ele>
        <time>2022-02-22T11:54:28Z</time>
      </trkpt>
      <trkpt lat="42.87242" lon="0.10167">
        <ele>2357</ele>
        <time>2022-02-22T11:54:33Z</time>
      </trkpt>
      <trkpt lat="42.87247" lon="0.10161">
        <ele>2357</ele>
        <time>2022-02-22T11:54:35Z</time>
      </trkpt>
      <trkpt lat="42.87256" lon="0.10143">
        <ele>2354</ele>
        <time>2022-02-22T11:54:38Z</time>
      </trkpt>
      <trkpt lat="42.87264" lon="0.10134">
        <ele>2352</ele>
        <time>2022-02-22T11:54:42Z</time>
      </trkpt>
      <trkpt lat="42.87276" lon="0.10121">
        <ele>2350</ele>
        <time>2022-02-22T11:54:48Z</time>
      </trkpt>
      <trkpt lat="42.87279" lon="0.10118">
        <ele>2349</ele>
        <time>2022-02-22T11:54:49Z</time>
      </trkpt>
      <trkpt lat="42.87273" lon="0.10111">
        <ele>2343</ele>
        <time>2022-02-22T11:54:54Z</time>
      </trkpt>
      <trkpt lat="42.87264" lon="0.10102">
        <ele>2338</ele>
        <time>2022-02-22T11:54:57Z</time>
      </trkpt>
      <trkpt lat="42.87272" lon="0.10088">
        <ele>2334</ele>
        <time>2022-02-22T11:55:00Z</time>
      </trkpt>
      <trkpt lat="42.87276" lon="0.10083">
        <ele>2333</ele>
        <time>2022-02-22T11:55:01Z</time>
      </trkpt>
      <trkpt lat="42.87286" lon="0.10071">
        <ele>2329</ele>
        <time>2022-02-22T11:55:04Z</time>
      </trkpt>
      <trkpt lat="42.87293" lon="0.10065">
        <ele>2326</ele>
        <time>2022-02-22T11:55:06Z</time>
      </trkpt>
      <trkpt lat="42.87311" lon="0.10053">
        <ele>2322</ele>
        <time>2022-02-22T11:55:11Z</time>
      </trkpt>
      <trkpt lat="42.87319" lon="0.10052">
        <ele>2324</ele>
        <time>2022-02-22T11:55:19Z</time>
      </trkpt>
      <trkpt lat="42.87325" lon="0.10051">
        <ele>2325</ele>
        <time>2022-02-22T11:55:29Z</time>
      </trkpt>
      <trkpt lat="42.87329" lon="0.1005">
        <ele>2324</ele>
        <time>2022-02-22T11:55:32Z</time>
      </trkpt>
      <trkpt lat="42.87332" lon="0.1005">
        <ele>2325</ele>
        <time>2022-02-22T11:55:36Z</time>
      </trkpt>
      <trkpt lat="42.87337" lon="0.10047">
        <ele>2324</ele>
        <time>2022-02-22T11:55:47Z</time>
      </trkpt>
      <trkpt lat="42.87344" lon="0.10045">
        <ele>2325</ele>
        <time>2022-02-22T11:56:00Z</time>
      </trkpt>
      <trkpt lat="42.87349" lon="0.10048">
        <ele>2324</ele>
        <time>2022-02-22T11:56:11Z</time>
      </trkpt>
      <trkpt lat="42.87354" lon="0.10056">
        <ele>2322</ele>
        <time>2022-02-22T11:56:20Z</time>
      </trkpt>
      <trkpt lat="42.87352" lon="0.10055">
        <ele>2322</ele>
        <time>2022-02-22T11:56:31Z</time>
      </trkpt>
      <trkpt lat="42.8735" lon="0.10055">
        <ele>2323</ele>
        <time>2022-02-22T11:56:41Z</time>
      </trkpt>
      <trkpt lat="42.87351" lon="0.10074">
        <ele>2318</ele>
        <time>2022-02-22T11:56:46Z</time>
      </trkpt>
      <trkpt lat="42.87353" lon="0.10086">
        <ele>2315</ele>
        <time>2022-02-22T11:56:50Z</time>
      </trkpt>
      <trkpt lat="42.87353" lon="0.10086">
        <ele>2314</ele>
        <time>2022-02-22T11:56:52Z</time>
      </trkpt>
      <trkpt lat="42.87354" lon="0.10087">
        <ele>2315</ele>
        <time>2022-02-22T11:56:54Z</time>
      </trkpt>
      <trkpt lat="42.8736" lon="0.10084">
        <ele>2312</ele>
        <time>2022-02-22T11:56:57Z</time>
      </trkpt>
      <trkpt lat="42.87367" lon="0.10072">
        <ele>2307</ele>
        <time>2022-02-22T11:56:59Z</time>
      </trkpt>
      <trkpt lat="42.8738" lon="0.10042">
        <ele>2304</ele>
        <time>2022-02-22T11:57:05Z</time>
      </trkpt>
      <trkpt lat="42.87389" lon="0.10028">
        <ele>2302</ele>
        <time>2022-02-22T11:57:08Z</time>
      </trkpt>
      <trkpt lat="42.87404" lon="0.10009">
        <ele>2300</ele>
        <time>2022-02-22T11:57:14Z</time>
      </trkpt>
      <trkpt lat="42.8741" lon="0.10002">
        <ele>2299</ele>
        <time>2022-02-22T11:57:17Z</time>
      </trkpt>
      <trkpt lat="42.87419" lon="0.09995">
        <ele>2297</ele>
        <time>2022-02-22T11:57:20Z</time>
      </trkpt>
      <trkpt lat="42.87433" lon="0.09984">
        <ele>2293</ele>
        <time>2022-02-22T11:57:25Z</time>
      </trkpt>
      <trkpt lat="42.87436" lon="0.09982">
        <ele>2293</ele>
        <time>2022-02-22T11:57:26Z</time>
      </trkpt>
      <trkpt lat="42.8744" lon="0.09978">
        <ele>2293</ele>
        <time>2022-02-22T11:57:37Z</time>
      </trkpt>
      <trkpt lat="42.87447" lon="0.09976">
        <ele>2292</ele>
        <time>2022-02-22T11:57:52Z</time>
      </trkpt>
      <trkpt lat="42.87458" lon="0.09972">
        <ele>2290</ele>
        <time>2022-02-22T11:57:57Z</time>
      </trkpt>
      <trkpt lat="42.87475" lon="0.09966">
        <ele>2288</ele>
        <time>2022-02-22T11:58:02Z</time>
      </trkpt>
      <trkpt lat="42.87499" lon="0.09964">
        <ele>2286</ele>
        <time>2022-02-22T11:58:12Z</time>
      </trkpt>
      <trkpt lat="42.87527" lon="0.09974">
        <ele>2283</ele>
        <time>2022-02-22T11:58:21Z</time>
      </trkpt>
      <trkpt lat="42.87537" lon="0.09979">
        <ele>2282</ele>
        <time>2022-02-22T11:58:24Z</time>
      </trkpt>
      <trkpt lat="42.87537" lon="0.09987">
        <ele>2278</ele>
        <time>2022-02-22T11:58:27Z</time>
      </trkpt>
      <trkpt lat="42.87537" lon="0.09986">
        <ele>2278</ele>
        <time>2022-02-22T11:58:28Z</time>
      </trkpt>
      <trkpt lat="42.87531" lon="0.09984">
        <ele>2279</ele>
        <time>2022-02-22T11:58:45Z</time>
      </trkpt>
      <trkpt lat="42.87531" lon="0.09983">
        <ele>2278</ele>
        <time>2022-02-22T11:59:20Z</time>
      </trkpt>
      <trkpt lat="42.87531" lon="0.09986">
        <ele>2278</ele>
        <time>2022-02-22T11:59:47Z</time>
      </trkpt>
      <trkpt lat="42.87531" lon="0.0998">
        <ele>2278</ele>
        <time>2022-02-22T12:00:20Z</time>
      </trkpt>
      <trkpt lat="42.87531" lon="0.0999">
        <ele>2278</ele>
        <time>2022-02-22T12:00:50Z</time>
      </trkpt>
      <trkpt lat="42.87531" lon="0.09987">
        <ele>2278</ele>
        <time>2022-02-22T12:01:09Z</time>
      </trkpt>
      <trkpt lat="42.8754" lon="0.09997">
        <ele>2274</ele>
        <time>2022-02-22T12:01:13Z</time>
      </trkpt>
      <trkpt lat="42.87546" lon="0.1001">
        <ele>2269</ele>
        <time>2022-02-22T12:01:17Z</time>
      </trkpt>
      <trkpt lat="42.87545" lon="0.10017">
        <ele>2265</ele>
        <time>2022-02-22T12:01:19Z</time>
      </trkpt>
      <trkpt lat="42.87543" lon="0.10038">
        <ele>2255</ele>
        <time>2022-02-22T12:01:23Z</time>
      </trkpt>
      <trkpt lat="42.87546" lon="0.10046">
        <ele>2252</ele>
        <time>2022-02-22T12:01:25Z</time>
      </trkpt>
      <trkpt lat="42.87555" lon="0.10062">
        <ele>2246</ele>
        <time>2022-02-22T12:01:28Z</time>
      </trkpt>
      <trkpt lat="42.87552" lon="0.10076">
        <ele>2243</ele>
        <time>2022-02-22T12:01:30Z</time>
      </trkpt>
      <trkpt lat="42.87555" lon="0.1009">
        <ele>2240</ele>
        <time>2022-02-22T12:01:32Z</time>
      </trkpt>
      <trkpt lat="42.8755" lon="0.10111">
        <ele>2234</ele>
        <time>2022-02-22T12:01:35Z</time>
      </trkpt>
      <trkpt lat="42.87548" lon="0.10133">
        <ele>2229</ele>
        <time>2022-02-22T12:01:38Z</time>
      </trkpt>
      <trkpt lat="42.87557" lon="0.10149">
        <ele>2225</ele>
        <time>2022-02-22T12:01:40Z</time>
      </trkpt>
      <trkpt lat="42.87555" lon="0.10161">
        <ele>2225</ele>
        <time>2022-02-22T12:01:42Z</time>
      </trkpt>
      <trkpt lat="42.87551" lon="0.10164">
        <ele>2225</ele>
        <time>2022-02-22T12:01:43Z</time>
      </trkpt>
      <trkpt lat="42.87542" lon="0.10172">
        <ele>2225</ele>
        <time>2022-02-22T12:01:46Z</time>
      </trkpt>
      <trkpt lat="42.87541" lon="0.10194">
        <ele>2222</ele>
        <time>2022-02-22T12:01:50Z</time>
      </trkpt>
      <trkpt lat="42.87543" lon="0.10198">
        <ele>2221</ele>
        <time>2022-02-22T12:02:01Z</time>
      </trkpt>
      <trkpt lat="42.87541" lon="0.10198">
        <ele>2222</ele>
        <time>2022-02-22T12:02:20Z</time>
      </trkpt>
      <trkpt lat="42.87542" lon="0.10202">
        <ele>2222</ele>
        <time>2022-02-22T12:02:42Z</time>
      </trkpt>
      <trkpt lat="42.87543" lon="0.10203">
        <ele>2222</ele>
        <time>2022-02-22T12:03:07Z</time>
      </trkpt>
      <trkpt lat="42.87544" lon="0.10199">
        <ele>2222</ele>
        <time>2022-02-22T12:03:24Z</time>
      </trkpt>
      <trkpt lat="42.87543" lon="0.10203">
        <ele>2221</ele>
        <time>2022-02-22T12:03:35Z</time>
      </trkpt>
      <trkpt lat="42.87541" lon="0.10225">
        <ele>2217</ele>
        <time>2022-02-22T12:03:42Z</time>
      </trkpt>
      <trkpt lat="42.87544" lon="0.10227">
        <ele>2217</ele>
        <time>2022-02-22T12:03:43Z</time>
      </trkpt>
      <trkpt lat="42.87554" lon="0.10238">
        <ele>2214</ele>
        <time>2022-02-22T12:03:47Z</time>
      </trkpt>
      <trkpt lat="42.8755" lon="0.10257">
        <ele>2210</ele>
        <time>2022-02-22T12:03:51Z</time>
      </trkpt>
      <trkpt lat="42.87565" lon="0.10253">
        <ele>2206</ele>
        <time>2022-02-22T12:03:55Z</time>
      </trkpt>
      <trkpt lat="42.8757" lon="0.1025">
        <ele>2205</ele>
        <time>2022-02-22T12:03:56Z</time>
      </trkpt>
      <trkpt lat="42.87577" lon="0.10244">
        <ele>2204</ele>
        <time>2022-02-22T12:03:58Z</time>
      </trkpt>
      <trkpt lat="42.87589" lon="0.10255">
        <ele>2200</ele>
        <time>2022-02-22T12:04:03Z</time>
      </trkpt>
      <trkpt lat="42.87592" lon="0.10266">
        <ele>2197</ele>
        <time>2022-02-22T12:04:05Z</time>
      </trkpt>
      <trkpt lat="42.87601" lon="0.10263">
        <ele>2194</ele>
        <time>2022-02-22T12:04:07Z</time>
      </trkpt>
      <trkpt lat="42.87616" lon="0.10258">
        <ele>2191</ele>
        <time>2022-02-22T12:04:10Z</time>
      </trkpt>
      <trkpt lat="42.87624" lon="0.10266">
        <ele>2187</ele>
        <time>2022-02-22T12:04:12Z</time>
      </trkpt>
      <trkpt lat="42.87638" lon="0.10275">
        <ele>2183</ele>
        <time>2022-02-22T12:04:15Z</time>
      </trkpt>
      <trkpt lat="42.87648" lon="0.10299">
        <ele>2179</ele>
        <time>2022-02-22T12:04:18Z</time>
      </trkpt>
      <trkpt lat="42.87658" lon="0.10316">
        <ele>2177</ele>
        <time>2022-02-22T12:04:20Z</time>
      </trkpt>
      <trkpt lat="42.8768" lon="0.10334">
        <ele>2173</ele>
        <time>2022-02-22T12:04:26Z</time>
      </trkpt>
      <trkpt lat="42.87684" lon="0.10329">
        <ele>2173</ele>
        <time>2022-02-22T12:04:37Z</time>
      </trkpt>
      <trkpt lat="42.87686" lon="0.10324">
        <ele>2173</ele>
        <time>2022-02-22T12:04:56Z</time>
      </trkpt>
      <trkpt lat="42.87686" lon="0.1032">
        <ele>2173</ele>
        <time>2022-02-22T12:05:10Z</time>
      </trkpt>
      <trkpt lat="42.87703" lon="0.10318">
        <ele>2169</ele>
        <time>2022-02-22T12:05:17Z</time>
      </trkpt>
      <trkpt lat="42.87707" lon="0.10319">
        <ele>2169</ele>
        <time>2022-02-22T12:05:18Z</time>
      </trkpt>
      <trkpt lat="42.87718" lon="0.10337">
        <ele>2164</ele>
        <time>2022-02-22T12:05:22Z</time>
      </trkpt>
      <trkpt lat="42.87719" lon="0.10355">
        <ele>2160</ele>
        <time>2022-02-22T12:05:25Z</time>
      </trkpt>
      <trkpt lat="42.87728" lon="0.10356">
        <ele>2156</ele>
        <time>2022-02-22T12:05:28Z</time>
      </trkpt>
      <trkpt lat="42.8773" lon="0.1036">
        <ele>2155</ele>
        <time>2022-02-22T12:05:29Z</time>
      </trkpt>
      <trkpt lat="42.8774" lon="0.10369">
        <ele>2147</ele>
        <time>2022-02-22T12:05:34Z</time>
      </trkpt>
      <trkpt lat="42.8775" lon="0.1038">
        <ele>2141</ele>
        <time>2022-02-22T12:05:37Z</time>
      </trkpt>
      <trkpt lat="42.87753" lon="0.104">
        <ele>2137</ele>
        <time>2022-02-22T12:05:39Z</time>
      </trkpt>
      <trkpt lat="42.87755" lon="0.1041">
        <ele>2138</ele>
        <time>2022-02-22T12:05:44Z</time>
      </trkpt>
      <trkpt lat="42.87755" lon="0.10409">
        <ele>2138</ele>
        <time>2022-02-22T12:05:45Z</time>
      </trkpt>
      <trkpt lat="42.87763" lon="0.10404">
        <ele>2133</ele>
        <time>2022-02-22T12:05:49Z</time>
      </trkpt>
      <trkpt lat="42.87765" lon="0.10398">
        <ele>2131</ele>
        <time>2022-02-22T12:05:50Z</time>
      </trkpt>
      <trkpt lat="42.87779" lon="0.10392">
        <ele>2125</ele>
        <time>2022-02-22T12:05:55Z</time>
      </trkpt>
      <trkpt lat="42.87788" lon="0.10419">
        <ele>2120</ele>
        <time>2022-02-22T12:05:58Z</time>
      </trkpt>
      <trkpt lat="42.8779" lon="0.10438">
        <ele>2119</ele>
        <time>2022-02-22T12:06:01Z</time>
      </trkpt>
      <trkpt lat="42.87802" lon="0.1045">
        <ele>2114</ele>
        <time>2022-02-22T12:06:05Z</time>
      </trkpt>
      <trkpt lat="42.87813" lon="0.10445">
        <ele>2111</ele>
        <time>2022-02-22T12:06:08Z</time>
      </trkpt>
      <trkpt lat="42.87811" lon="0.10448">
        <ele>2113</ele>
        <time>2022-02-22T12:06:18Z</time>
      </trkpt>
      <trkpt lat="42.87809" lon="0.10447">
        <ele>2112</ele>
        <time>2022-02-22T12:06:43Z</time>
      </trkpt>
      <trkpt lat="42.8781" lon="0.10447">
        <ele>2111</ele>
        <time>2022-02-22T12:07:02Z</time>
      </trkpt>
      <trkpt lat="42.8782" lon="0.10462">
        <ele>2109</ele>
        <time>2022-02-22T12:07:13Z</time>
      </trkpt>
      <trkpt lat="42.87809" lon="0.10491">
        <ele>2106</ele>
        <time>2022-02-22T12:07:22Z</time>
      </trkpt>
      <trkpt lat="42.87803" lon="0.10501">
        <ele>2103</ele>
        <time>2022-02-22T12:07:24Z</time>
      </trkpt>
      <trkpt lat="42.87796" lon="0.1053">
        <ele>2099</ele>
        <time>2022-02-22T12:07:28Z</time>
      </trkpt>
      <trkpt lat="42.87796" lon="0.10537">
        <ele>2099</ele>
        <time>2022-02-22T12:07:29Z</time>
      </trkpt>
      <trkpt lat="42.87795" lon="0.10554">
        <ele>2096</ele>
        <time>2022-02-22T12:07:31Z</time>
      </trkpt>
      <trkpt lat="42.87795" lon="0.10562">
        <ele>2095</ele>
        <time>2022-02-22T12:07:32Z</time>
      </trkpt>
      <trkpt lat="42.87798" lon="0.10588">
        <ele>2092</ele>
        <time>2022-02-22T12:07:35Z</time>
      </trkpt>
      <trkpt lat="42.87799" lon="0.10596">
        <ele>2092</ele>
        <time>2022-02-22T12:07:36Z</time>
      </trkpt>
      <trkpt lat="42.87801" lon="0.10624">
        <ele>2092</ele>
        <time>2022-02-22T12:07:44Z</time>
      </trkpt>
      <trkpt lat="42.87799" lon="0.10626">
        <ele>2092</ele>
        <time>2022-02-22T12:07:55Z</time>
      </trkpt>
      <trkpt lat="42.878" lon="0.10627">
        <ele>2092</ele>
        <time>2022-02-22T12:07:57Z</time>
      </trkpt>
      <trkpt lat="42.878" lon="0.10635">
        <ele>2091</ele>
        <time>2022-02-22T12:08:01Z</time>
      </trkpt>
      <trkpt lat="42.878" lon="0.10642">
        <ele>2089</ele>
        <time>2022-02-22T12:08:05Z</time>
      </trkpt>
      <trkpt lat="42.87807" lon="0.10648">
        <ele>2084</ele>
        <time>2022-02-22T12:08:09Z</time>
      </trkpt>
      <trkpt lat="42.8781" lon="0.10645">
        <ele>2083</ele>
        <time>2022-02-22T12:08:10Z</time>
      </trkpt>
      <trkpt lat="42.87817" lon="0.1064">
        <ele>2080</ele>
        <time>2022-02-22T12:08:12Z</time>
      </trkpt>
      <trkpt lat="42.87822" lon="0.10652">
        <ele>2076</ele>
        <time>2022-02-22T12:08:15Z</time>
      </trkpt>
      <trkpt lat="42.87821" lon="0.10658">
        <ele>2075</ele>
        <time>2022-02-22T12:08:16Z</time>
      </trkpt>
      <trkpt lat="42.87812" lon="0.1069">
        <ele>2072</ele>
        <time>2022-02-22T12:08:21Z</time>
      </trkpt>
      <trkpt lat="42.87814" lon="0.10717">
        <ele>2070</ele>
        <time>2022-02-22T12:08:25Z</time>
      </trkpt>
      <trkpt lat="42.87833" lon="0.10742">
        <ele>2069</ele>
        <time>2022-02-22T12:08:34Z</time>
      </trkpt>
      <trkpt lat="42.87831" lon="0.10747">
        <ele>2069</ele>
        <time>2022-02-22T12:08:48Z</time>
      </trkpt>
      <trkpt lat="42.87831" lon="0.10746">
        <ele>2069</ele>
        <time>2022-02-22T12:09:09Z</time>
      </trkpt>
      <trkpt lat="42.87832" lon="0.10745">
        <ele>2069</ele>
        <time>2022-02-22T12:09:19Z</time>
      </trkpt>
      <trkpt lat="42.87841" lon="0.10743">
        <ele>2065</ele>
        <time>2022-02-22T12:09:23Z</time>
      </trkpt>
      <trkpt lat="42.87854" lon="0.10732">
        <ele>2062</ele>
        <time>2022-02-22T12:09:29Z</time>
      </trkpt>
      <trkpt lat="42.87864" lon="0.10735">
        <ele>2059</ele>
        <time>2022-02-22T12:09:32Z</time>
      </trkpt>
      <trkpt lat="42.87881" lon="0.1073">
        <ele>2054</ele>
        <time>2022-02-22T12:09:36Z</time>
      </trkpt>
      <trkpt lat="42.87885" lon="0.10759">
        <ele>2054</ele>
        <time>2022-02-22T12:09:43Z</time>
      </trkpt>
      <trkpt lat="42.87885" lon="0.1076">
        <ele>2054</ele>
        <time>2022-02-22T12:09:44Z</time>
      </trkpt>
      <trkpt lat="42.87885" lon="0.10761">
        <ele>2054</ele>
        <time>2022-02-22T12:09:45Z</time>
      </trkpt>
      <trkpt lat="42.87878" lon="0.10796">
        <ele>2053</ele>
        <time>2022-02-22T12:09:58Z</time>
      </trkpt>
      <trkpt lat="42.87885" lon="0.10806">
        <ele>2050</ele>
        <time>2022-02-22T12:10:05Z</time>
      </trkpt>
      <trkpt lat="42.87884" lon="0.10802">
        <ele>2051</ele>
        <time>2022-02-22T12:10:21Z</time>
      </trkpt>
      <trkpt lat="42.87888" lon="0.10799">
        <ele>2052</ele>
        <time>2022-02-22T12:10:28Z</time>
      </trkpt>
      <trkpt lat="42.87893" lon="0.10796">
        <ele>2051</ele>
        <time>2022-02-22T12:10:32Z</time>
      </trkpt>
      <trkpt lat="42.87909" lon="0.1079">
        <ele>2048</ele>
        <time>2022-02-22T12:10:39Z</time>
      </trkpt>
      <trkpt lat="42.87921" lon="0.10787">
        <ele>2046</ele>
        <time>2022-02-22T12:10:44Z</time>
      </trkpt>
      <trkpt lat="42.87925" lon="0.10787">
        <ele>2045</ele>
        <time>2022-02-22T12:10:46Z</time>
      </trkpt>
      <trkpt lat="42.87929" lon="0.10786">
        <ele>2044</ele>
        <time>2022-02-22T12:10:48Z</time>
      </trkpt>
      <trkpt lat="42.87933" lon="0.10798">
        <ele>2040</ele>
        <time>2022-02-22T12:10:51Z</time>
      </trkpt>
      <trkpt lat="42.87933" lon="0.108">
        <ele>2040</ele>
        <time>2022-02-22T12:11:02Z</time>
      </trkpt>
      <trkpt lat="42.87932" lon="0.10795">
        <ele>2040</ele>
        <time>2022-02-22T12:11:22Z</time>
      </trkpt>
      <trkpt lat="42.87926" lon="0.10804">
        <ele>2038</ele>
        <time>2022-02-22T12:11:31Z</time>
      </trkpt>
      <trkpt lat="42.87926" lon="0.10806">
        <ele>2038</ele>
        <time>2022-02-22T12:11:32Z</time>
      </trkpt>
      <trkpt lat="42.8793" lon="0.10814">
        <ele>2033</ele>
        <time>2022-02-22T12:11:35Z</time>
      </trkpt>
      <trkpt lat="42.87934" lon="0.10814">
        <ele>2031</ele>
        <time>2022-02-22T12:11:36Z</time>
      </trkpt>
      <trkpt lat="42.87939" lon="0.10814">
        <ele>2031</ele>
        <time>2022-02-22T12:11:38Z</time>
      </trkpt>
      <trkpt lat="42.87942" lon="0.10824">
        <ele>2027</ele>
        <time>2022-02-22T12:11:41Z</time>
      </trkpt>
      <trkpt lat="42.87936" lon="0.10832">
        <ele>2024</ele>
        <time>2022-02-22T12:11:43Z</time>
      </trkpt>
      <trkpt lat="42.87933" lon="0.10835">
        <ele>2022</ele>
        <time>2022-02-22T12:11:44Z</time>
      </trkpt>
      <trkpt lat="42.87935" lon="0.10842">
        <ele>2016</ele>
        <time>2022-02-22T12:11:48Z</time>
      </trkpt>
      <trkpt lat="42.87942" lon="0.10839">
        <ele>2013</ele>
        <time>2022-02-22T12:11:51Z</time>
      </trkpt>
      <trkpt lat="42.87945" lon="0.10838">
        <ele>2015</ele>
        <time>2022-02-22T12:12:02Z</time>
      </trkpt>
      <trkpt lat="42.87963" lon="0.10833">
        <ele>2012</ele>
        <time>2022-02-22T12:12:08Z</time>
      </trkpt>
      <trkpt lat="42.87965" lon="0.10838">
        <ele>2010</ele>
        <time>2022-02-22T12:12:11Z</time>
      </trkpt>
      <trkpt lat="42.87964" lon="0.10841">
        <ele>2007</ele>
        <time>2022-02-22T12:12:12Z</time>
      </trkpt>
      <trkpt lat="42.87963" lon="0.10846">
        <ele>2004</ele>
        <time>2022-02-22T12:12:15Z</time>
      </trkpt>
      <trkpt lat="42.87965" lon="0.10849">
        <ele>2003</ele>
        <time>2022-02-22T12:12:28Z</time>
      </trkpt>
      <trkpt lat="42.87958" lon="0.10857">
        <ele>2000</ele>
        <time>2022-02-22T12:12:32Z</time>
      </trkpt>
      <trkpt lat="42.87961" lon="0.10863">
        <ele>1996</ele>
        <time>2022-02-22T12:12:35Z</time>
      </trkpt>
      <trkpt lat="42.87964" lon="0.10864">
        <ele>1995</ele>
        <time>2022-02-22T12:12:36Z</time>
      </trkpt>
      <trkpt lat="42.87968" lon="0.10864">
        <ele>1993</ele>
        <time>2022-02-22T12:12:38Z</time>
      </trkpt>
      <trkpt lat="42.87972" lon="0.10878">
        <ele>1988</ele>
        <time>2022-02-22T12:12:42Z</time>
      </trkpt>
      <trkpt lat="42.87974" lon="0.10884">
        <ele>1984</ele>
        <time>2022-02-22T12:12:44Z</time>
      </trkpt>
      <trkpt lat="42.87979" lon="0.10882">
        <ele>1982</ele>
        <time>2022-02-22T12:12:47Z</time>
      </trkpt>
      <trkpt lat="42.87979" lon="0.1089">
        <ele>1978</ele>
        <time>2022-02-22T12:12:50Z</time>
      </trkpt>
      <trkpt lat="42.87981" lon="0.10891">
        <ele>1976</ele>
        <time>2022-02-22T12:12:51Z</time>
      </trkpt>
      <trkpt lat="42.87987" lon="0.109">
        <ele>1968</ele>
        <time>2022-02-22T12:12:56Z</time>
      </trkpt>
      <trkpt lat="42.87991" lon="0.10902">
        <ele>1965</ele>
        <time>2022-02-22T12:12:58Z</time>
      </trkpt>
      <trkpt lat="42.87994" lon="0.10902">
        <ele>1964</ele>
        <time>2022-02-22T12:12:59Z</time>
      </trkpt>
      <trkpt lat="42.88003" lon="0.10908">
        <ele>1959</ele>
        <time>2022-02-22T12:13:04Z</time>
      </trkpt>
      <trkpt lat="42.88009" lon="0.10908">
        <ele>1954</ele>
        <time>2022-02-22T12:13:07Z</time>
      </trkpt>
      <trkpt lat="42.88014" lon="0.10907">
        <ele>1953</ele>
        <time>2022-02-22T12:13:10Z</time>
      </trkpt>
      <trkpt lat="42.88017" lon="0.10913">
        <ele>1949</ele>
        <time>2022-02-22T12:13:14Z</time>
      </trkpt>
      <trkpt lat="42.88017" lon="0.10919">
        <ele>1946</ele>
        <time>2022-02-22T12:13:16Z</time>
      </trkpt>
      <trkpt lat="42.88023" lon="0.10919">
        <ele>1942</ele>
        <time>2022-02-22T12:13:19Z</time>
      </trkpt>
      <trkpt lat="42.88025" lon="0.10925">
        <ele>1938</ele>
        <time>2022-02-22T12:13:22Z</time>
      </trkpt>
      <trkpt lat="42.88024" lon="0.10928">
        <ele>1937</ele>
        <time>2022-02-22T12:13:23Z</time>
      </trkpt>
      <trkpt lat="42.8803" lon="0.1093">
        <ele>1932</ele>
        <time>2022-02-22T12:13:26Z</time>
      </trkpt>
      <trkpt lat="42.88034" lon="0.10938">
        <ele>1927</ele>
        <time>2022-02-22T12:13:29Z</time>
      </trkpt>
      <trkpt lat="42.88032" lon="0.10946">
        <ele>1923</ele>
        <time>2022-02-22T12:13:32Z</time>
      </trkpt>
      <trkpt lat="42.88038" lon="0.10945">
        <ele>1919</ele>
        <time>2022-02-22T12:13:34Z</time>
      </trkpt>
      <trkpt lat="42.88048" lon="0.1094">
        <ele>1918</ele>
        <time>2022-02-22T12:13:41Z</time>
      </trkpt>
      <trkpt lat="42.8805" lon="0.10957">
        <ele>1914</ele>
        <time>2022-02-22T12:13:46Z</time>
      </trkpt>
      <trkpt lat="42.88047" lon="0.10961">
        <ele>1913</ele>
        <time>2022-02-22T12:13:47Z</time>
      </trkpt>
      <trkpt lat="42.88032" lon="0.10981">
        <ele>1909</ele>
        <time>2022-02-22T12:13:53Z</time>
      </trkpt>
      <trkpt lat="42.88021" lon="0.10995">
        <ele>1907</ele>
        <time>2022-02-22T12:14:01Z</time>
      </trkpt>
      <trkpt lat="42.88021" lon="0.10995">
        <ele>1906</ele>
        <time>2022-02-22T12:14:09Z</time>
      </trkpt>
      <trkpt lat="42.88026" lon="0.10998">
        <ele>1902</ele>
        <time>2022-02-22T12:14:12Z</time>
      </trkpt>
      <trkpt lat="42.88036" lon="0.10997">
        <ele>1899</ele>
        <time>2022-02-22T12:14:15Z</time>
      </trkpt>
      <trkpt lat="42.88037" lon="0.10998">
        <ele>1899</ele>
        <time>2022-02-22T12:14:16Z</time>
      </trkpt>
      <trkpt lat="42.88031" lon="0.11014">
        <ele>1893</ele>
        <time>2022-02-22T12:14:20Z</time>
      </trkpt>
      <trkpt lat="42.88026" lon="0.11029">
        <ele>1890</ele>
        <time>2022-02-22T12:14:24Z</time>
      </trkpt>
      <trkpt lat="42.88033" lon="0.11028">
        <ele>1886</ele>
        <time>2022-02-22T12:14:26Z</time>
      </trkpt>
      <trkpt lat="42.88043" lon="0.11039">
        <ele>1881</ele>
        <time>2022-02-22T12:14:31Z</time>
      </trkpt>
      <trkpt lat="42.88041" lon="0.11044">
        <ele>1880</ele>
        <time>2022-02-22T12:14:32Z</time>
      </trkpt>
      <trkpt lat="42.88037" lon="0.11052">
        <ele>1877</ele>
        <time>2022-02-22T12:14:34Z</time>
      </trkpt>
      <trkpt lat="42.88037" lon="0.11061">
        <ele>1874</ele>
        <time>2022-02-22T12:14:37Z</time>
      </trkpt>
      <trkpt lat="42.88044" lon="0.11059">
        <ele>1872</ele>
        <time>2022-02-22T12:14:39Z</time>
      </trkpt>
      <trkpt lat="42.88053" lon="0.11068">
        <ele>1867</ele>
        <time>2022-02-22T12:14:42Z</time>
      </trkpt>
      <trkpt lat="42.88051" lon="0.11081">
        <ele>1866</ele>
        <time>2022-02-22T12:14:44Z</time>
      </trkpt>
      <trkpt lat="42.8805" lon="0.11085">
        <ele>1867</ele>
        <time>2022-02-22T12:14:51Z</time>
      </trkpt>
      <trkpt lat="42.88051" lon="0.11082">
        <ele>1866</ele>
        <time>2022-02-22T12:15:09Z</time>
      </trkpt>
      <trkpt lat="42.8805" lon="0.1108">
        <ele>1867</ele>
        <time>2022-02-22T12:15:29Z</time>
      </trkpt>
      <trkpt lat="42.8805" lon="0.11083">
        <ele>1866</ele>
        <time>2022-02-22T12:15:56Z</time>
      </trkpt>
      <trkpt lat="42.8805" lon="0.11085">
        <ele>1867</ele>
        <time>2022-02-22T12:16:17Z</time>
      </trkpt>
      <trkpt lat="42.88051" lon="0.11084">
        <ele>1867</ele>
        <time>2022-02-22T12:16:30Z</time>
      </trkpt>
      <trkpt lat="42.88061" lon="0.11081">
        <ele>1863</ele>
        <time>2022-02-22T12:16:35Z</time>
      </trkpt>
      <trkpt lat="42.8807" lon="0.11071">
        <ele>1860</ele>
        <time>2022-02-22T12:16:38Z</time>
      </trkpt>
      <trkpt lat="42.88075" lon="0.11066">
        <ele>1858</ele>
        <time>2022-02-22T12:16:40Z</time>
      </trkpt>
      <trkpt lat="42.88083" lon="0.11081">
        <ele>1853</ele>
        <time>2022-02-22T12:16:44Z</time>
      </trkpt>
      <trkpt lat="42.8809" lon="0.11082">
        <ele>1849</ele>
        <time>2022-02-22T12:16:47Z</time>
      </trkpt>
      <trkpt lat="42.88093" lon="0.11076">
        <ele>1848</ele>
        <time>2022-02-22T12:16:49Z</time>
      </trkpt>
      <trkpt lat="42.88102" lon="0.11078">
        <ele>1844</ele>
        <time>2022-02-22T12:16:53Z</time>
      </trkpt>
      <trkpt lat="42.88103" lon="0.11096">
        <ele>1840</ele>
        <time>2022-02-22T12:16:57Z</time>
      </trkpt>
      <trkpt lat="42.88114" lon="0.11092">
        <ele>1836</ele>
        <time>2022-02-22T12:17:01Z</time>
      </trkpt>
      <trkpt lat="42.88116" lon="0.11089">
        <ele>1836</ele>
        <time>2022-02-22T12:17:02Z</time>
      </trkpt>
      <trkpt lat="42.88128" lon="0.11071">
        <ele>1833</ele>
        <time>2022-02-22T12:17:07Z</time>
      </trkpt>
      <trkpt lat="42.88131" lon="0.11068">
        <ele>1832</ele>
        <time>2022-02-22T12:17:08Z</time>
      </trkpt>
      <trkpt lat="42.88142" lon="0.11075">
        <ele>1828</ele>
        <time>2022-02-22T12:17:11Z</time>
      </trkpt>
      <trkpt lat="42.88144" lon="0.11085">
        <ele>1824</ele>
        <time>2022-02-22T12:17:13Z</time>
      </trkpt>
      <trkpt lat="42.88145" lon="0.11084">
        <ele>1822</ele>
        <time>2022-02-22T12:17:14Z</time>
      </trkpt>
      <trkpt lat="42.88154" lon="0.11069">
        <ele>1817</ele>
        <time>2022-02-22T12:17:18Z</time>
      </trkpt>
      <trkpt lat="42.88155" lon="0.11066">
        <ele>1818</ele>
        <time>2022-02-22T12:17:22Z</time>
      </trkpt>
      <trkpt lat="42.88159" lon="0.11075">
        <ele>1816</ele>
        <time>2022-02-22T12:17:26Z</time>
      </trkpt>
      <trkpt lat="42.88161" lon="0.11089">
        <ele>1813</ele>
        <time>2022-02-22T12:17:34Z</time>
      </trkpt>
      <trkpt lat="42.88159" lon="0.11083">
        <ele>1813</ele>
        <time>2022-02-22T12:17:57Z</time>
      </trkpt>
      <trkpt lat="42.88162" lon="0.11084">
        <ele>1812</ele>
        <time>2022-02-22T12:18:13Z</time>
      </trkpt>
      <trkpt lat="42.88171" lon="0.11079">
        <ele>1808</ele>
        <time>2022-02-22T12:18:19Z</time>
      </trkpt>
      <trkpt lat="42.88179" lon="0.11082">
        <ele>1805</ele>
        <time>2022-02-22T12:18:23Z</time>
      </trkpt>
      <trkpt lat="42.88187" lon="0.11088">
        <ele>1800</ele>
        <time>2022-02-22T12:18:27Z</time>
      </trkpt>
      <trkpt lat="42.8819" lon="0.11109">
        <ele>1797</ele>
        <time>2022-02-22T12:18:32Z</time>
      </trkpt>
      <trkpt lat="42.88198" lon="0.11109">
        <ele>1793</ele>
        <time>2022-02-22T12:18:36Z</time>
      </trkpt>
      <trkpt lat="42.88201" lon="0.11099">
        <ele>1791</ele>
        <time>2022-02-22T12:18:39Z</time>
      </trkpt>
      <trkpt lat="42.88207" lon="0.111">
        <ele>1788</ele>
        <time>2022-02-22T12:18:43Z</time>
      </trkpt>
      <trkpt lat="42.88208" lon="0.11102">
        <ele>1788</ele>
        <time>2022-02-22T12:18:47Z</time>
      </trkpt>
      <trkpt lat="42.88218" lon="0.11097">
        <ele>1784</ele>
        <time>2022-02-22T12:18:51Z</time>
      </trkpt>
      <trkpt lat="42.8822" lon="0.11095">
        <ele>1784</ele>
        <time>2022-02-22T12:18:52Z</time>
      </trkpt>
      <trkpt lat="42.88226" lon="0.111">
        <ele>1780</ele>
        <time>2022-02-22T12:18:55Z</time>
      </trkpt>
      <trkpt lat="42.88237" lon="0.11104">
        <ele>1775</ele>
        <time>2022-02-22T12:18:59Z</time>
      </trkpt>
      <trkpt lat="42.88243" lon="0.11116">
        <ele>1770</ele>
        <time>2022-02-22T12:19:02Z</time>
      </trkpt>
      <trkpt lat="42.88243" lon="0.11124">
        <ele>1769</ele>
        <time>2022-02-22T12:19:03Z</time>
      </trkpt>
      <trkpt lat="42.88239" lon="0.1117">
        <ele>1764</ele>
        <time>2022-02-22T12:19:12Z</time>
      </trkpt>
      <trkpt lat="42.88239" lon="0.11174">
        <ele>1763</ele>
        <time>2022-02-22T12:19:13Z</time>
      </trkpt>
      <trkpt lat="42.88249" lon="0.1119">
        <ele>1760</ele>
        <time>2022-02-22T12:19:16Z</time>
      </trkpt>
      <trkpt lat="42.88254" lon="0.11194">
        <ele>1761</ele>
        <time>2022-02-22T12:19:17Z</time>
      </trkpt>
      <trkpt lat="42.88262" lon="0.11198">
        <ele>1760</ele>
        <time>2022-02-22T12:19:19Z</time>
      </trkpt>
      <trkpt lat="42.8828" lon="0.11187">
        <ele>1755</ele>
        <time>2022-02-22T12:19:22Z</time>
      </trkpt>
      <trkpt lat="42.88292" lon="0.11189">
        <ele>1754</ele>
        <time>2022-02-22T12:19:25Z</time>
      </trkpt>
      <trkpt lat="42.88296" lon="0.1119">
        <ele>1754</ele>
        <time>2022-02-22T12:19:27Z</time>
      </trkpt>
      <trkpt lat="42.88294" lon="0.11185">
        <ele>1754</ele>
        <time>2022-02-22T12:19:37Z</time>
      </trkpt>
      <trkpt lat="42.88291" lon="0.11186">
        <ele>1754</ele>
        <time>2022-02-22T12:19:59Z</time>
      </trkpt>
      <trkpt lat="42.88291" lon="0.11183">
        <ele>1753</ele>
        <time>2022-02-22T12:20:16Z</time>
      </trkpt>
      <trkpt lat="42.88291" lon="0.11183">
        <ele>1753</ele>
        <time>2022-02-22T12:20:43Z</time>
      </trkpt>
      <trkpt lat="42.88291" lon="0.11182">
        <ele>1753</ele>
        <time>2022-02-22T12:20:58Z</time>
      </trkpt>
      <trkpt lat="42.88291" lon="0.11186">
        <ele>1754</ele>
        <time>2022-02-22T12:21:12Z</time>
      </trkpt>
      <trkpt lat="42.88288" lon="0.11188">
        <ele>1754</ele>
        <time>2022-02-22T12:21:27Z</time>
      </trkpt>
      <trkpt lat="42.88288" lon="0.11186">
        <ele>1753</ele>
        <time>2022-02-22T12:21:55Z</time>
      </trkpt>
      <trkpt lat="42.88288" lon="0.11185">
        <ele>1753</ele>
        <time>2022-02-22T12:22:17Z</time>
      </trkpt>
      <trkpt lat="42.88288" lon="0.11186">
        <ele>1753</ele>
        <time>2022-02-22T12:22:41Z</time>
      </trkpt>
      <trkpt lat="42.88286" lon="0.11186">
        <ele>1753</ele>
        <time>2022-02-22T12:23:02Z</time>
      </trkpt>
      <trkpt lat="42.88286" lon="0.11184">
        <ele>1753</ele>
        <time>2022-02-22T12:23:30Z</time>
      </trkpt>
      <trkpt lat="42.88287" lon="0.11182">
        <ele>1752</ele>
        <time>2022-02-22T12:23:46Z</time>
      </trkpt>
      <trkpt lat="42.88289" lon="0.1118">
        <ele>1752</ele>
        <time>2022-02-22T12:24:14Z</time>
      </trkpt>
      <trkpt lat="42.88288" lon="0.11178">
        <ele>1752</ele>
        <time>2022-02-22T12:24:34Z</time>
      </trkpt>
      <trkpt lat="42.88288" lon="0.11177">
        <ele>1752</ele>
        <time>2022-02-22T12:24:38Z</time>
      </trkpt>
      <trkpt lat="42.88317" lon="0.11172">
        <ele>1749</ele>
        <time>2022-02-22T12:24:46Z</time>
      </trkpt>
      <trkpt lat="42.88327" lon="0.11171">
        <ele>1748</ele>
        <time>2022-02-22T12:24:48Z</time>
      </trkpt>
      <trkpt lat="42.88355" lon="0.11164">
        <ele>1744</ele>
        <time>2022-02-22T12:24:54Z</time>
      </trkpt>
      <trkpt lat="42.88359" lon="0.11165">
        <ele>1745</ele>
        <time>2022-02-22T12:24:55Z</time>
      </trkpt>
      <trkpt lat="42.88367" lon="0.11166">
        <ele>1744</ele>
        <time>2022-02-22T12:24:57Z</time>
      </trkpt>
      <trkpt lat="42.88375" lon="0.11165">
        <ele>1743</ele>
        <time>2022-02-22T12:25:00Z</time>
      </trkpt>
      <trkpt lat="42.88378" lon="0.11163">
        <ele>1742</ele>
        <time>2022-02-22T12:25:10Z</time>
      </trkpt>
      <trkpt lat="42.88378" lon="0.11163">
        <ele>1743</ele>
        <time>2022-02-22T12:25:11Z</time>
      </trkpt>
      <trkpt lat="42.88394" lon="0.11131">
        <ele>1741</ele>
        <time>2022-02-22T12:25:21Z</time>
      </trkpt>
      <trkpt lat="42.88421" lon="0.11098">
        <ele>1739</ele>
        <time>2022-02-22T12:25:30Z</time>
      </trkpt>
      <trkpt lat="42.88444" lon="0.11062">
        <ele>1736</ele>
        <time>2022-02-22T12:25:36Z</time>
      </trkpt>
      <trkpt lat="42.88451" lon="0.1105">
        <ele>1735</ele>
        <time>2022-02-22T12:25:38Z</time>
      </trkpt>
      <trkpt lat="42.88471" lon="0.11022">
        <ele>1736</ele>
        <time>2022-02-22T12:25:44Z</time>
      </trkpt>
      <trkpt lat="42.88489" lon="0.11008">
        <ele>1734</ele>
        <time>2022-02-22T12:25:48Z</time>
      </trkpt>
      <trkpt lat="42.88498" lon="0.10998">
        <ele>1733</ele>
        <time>2022-02-22T12:25:50Z</time>
      </trkpt>
      <trkpt lat="42.88515" lon="0.10974">
        <ele>1730</ele>
        <time>2022-02-22T12:25:53Z</time>
      </trkpt>
      <trkpt lat="42.88535" lon="0.10949">
        <ele>1726</ele>
        <time>2022-02-22T12:25:56Z</time>
      </trkpt>
      <trkpt lat="42.88542" lon="0.1094">
        <ele>1726</ele>
        <time>2022-02-22T12:25:57Z</time>
      </trkpt>
      <trkpt lat="42.88564" lon="0.10927">
        <ele>1724</ele>
        <time>2022-02-22T12:26:00Z</time>
      </trkpt>
      <trkpt lat="42.88589" lon="0.10904">
        <ele>1721</ele>
        <time>2022-02-22T12:26:05Z</time>
      </trkpt>
      <trkpt lat="42.88604" lon="0.10891">
        <ele>1719</ele>
        <time>2022-02-22T12:26:08Z</time>
      </trkpt>
      <trkpt lat="42.88623" lon="0.10881">
        <ele>1715</ele>
        <time>2022-02-22T12:26:11Z</time>
      </trkpt>
      <trkpt lat="42.88637" lon="0.10875">
        <ele>1712</ele>
        <time>2022-02-22T12:26:14Z</time>
      </trkpt>
      <trkpt lat="42.88643" lon="0.10875">
        <ele>1711</ele>
        <time>2022-02-22T12:26:16Z</time>
      </trkpt>
      <trkpt lat="42.88665" lon="0.10882">
        <ele>1710</ele>
        <time>2022-02-22T12:26:23Z</time>
      </trkpt>
      <trkpt lat="42.88692" lon="0.10873">
        <ele>1706</ele>
        <time>2022-02-22T12:26:28Z</time>
      </trkpt>
      <trkpt lat="42.88709" lon="0.10867">
        <ele>1705</ele>
        <time>2022-02-22T12:26:31Z</time>
      </trkpt>
      <trkpt lat="42.88722" lon="0.1086">
        <ele>1703</ele>
        <time>2022-02-22T12:26:33Z</time>
      </trkpt>
      <trkpt lat="42.88737" lon="0.10853">
        <ele>1700</ele>
        <time>2022-02-22T12:26:36Z</time>
      </trkpt>
      <trkpt lat="42.88757" lon="0.10844">
        <ele>1697</ele>
        <time>2022-02-22T12:26:44Z</time>
      </trkpt>
      <trkpt lat="42.88766" lon="0.10841">
        <ele>1694</ele>
        <time>2022-02-22T12:26:52Z</time>
      </trkpt>
      <trkpt lat="42.88777" lon="0.10838">
        <ele>1693</ele>
        <time>2022-02-22T12:27:01Z</time>
      </trkpt>
      <trkpt lat="42.88779" lon="0.10837">
        <ele>1692</ele>
        <time>2022-02-22T12:27:02Z</time>
      </trkpt>
      <trkpt lat="42.8877" lon="0.10832">
        <ele>1688</ele>
        <time>2022-02-22T12:27:06Z</time>
      </trkpt>
      <trkpt lat="42.88775" lon="0.10827">
        <ele>1686</ele>
        <time>2022-02-22T12:27:08Z</time>
      </trkpt>
      <trkpt lat="42.88784" lon="0.10824">
        <ele>1684</ele>
        <time>2022-02-22T12:27:10Z</time>
      </trkpt>
      <trkpt lat="42.88799" lon="0.10821">
        <ele>1682</ele>
        <time>2022-02-22T12:27:13Z</time>
      </trkpt>
      <trkpt lat="42.88836" lon="0.10806">
        <ele>1678</ele>
        <time>2022-02-22T12:27:20Z</time>
      </trkpt>
      <trkpt lat="42.88854" lon="0.10798">
        <ele>1675</ele>
        <time>2022-02-22T12:27:24Z</time>
      </trkpt>
      <trkpt lat="42.88866" lon="0.10795">
        <ele>1674</ele>
        <time>2022-02-22T12:27:28Z</time>
      </trkpt>
      <trkpt lat="42.88867" lon="0.10791">
        <ele>1674</ele>
        <time>2022-02-22T12:27:41Z</time>
      </trkpt>
      <trkpt lat="42.88868" lon="0.10791">
        <ele>1673</ele>
        <time>2022-02-22T12:27:42Z</time>
      </trkpt>
      <trkpt lat="42.88878" lon="0.1079">
        <ele>1672</ele>
        <time>2022-02-22T12:27:48Z</time>
      </trkpt>
      <trkpt lat="42.88884" lon="0.10788">
        <ele>1672</ele>
        <time>2022-02-22T12:27:50Z</time>
      </trkpt>
      <trkpt lat="42.88915" lon="0.10767">
        <ele>1670</ele>
        <time>2022-02-22T12:27:59Z</time>
      </trkpt>
      <trkpt lat="42.88918" lon="0.10764">
        <ele>1669</ele>
        <time>2022-02-22T12:28:00Z</time>
      </trkpt>
      <trkpt lat="42.8894" lon="0.10746">
        <ele>1668</ele>
        <time>2022-02-22T12:28:06Z</time>
      </trkpt>
      <trkpt lat="42.88961" lon="0.1074">
        <ele>1666</ele>
        <time>2022-02-22T12:28:11Z</time>
      </trkpt>
      <trkpt lat="42.89002" lon="0.10746">
        <ele>1662</ele>
        <time>2022-02-22T12:28:19Z</time>
      </trkpt>
      <trkpt lat="42.89035" lon="0.10745">
        <ele>1659</ele>
        <time>2022-02-22T12:28:25Z</time>
      </trkpt>
      <trkpt lat="42.89042" lon="0.10744">
        <ele>1659</ele>
        <time>2022-02-22T12:28:26Z</time>
      </trkpt>
      <trkpt lat="42.89067" lon="0.10733">
        <ele>1656</ele>
        <time>2022-02-22T12:28:30Z</time>
      </trkpt>
      <trkpt lat="42.89081" lon="0.10731">
        <ele>1655</ele>
        <time>2022-02-22T12:28:37Z</time>
      </trkpt>
      <trkpt lat="42.89083" lon="0.10729">
        <ele>1655</ele>
        <time>2022-02-22T12:28:58Z</time>
      </trkpt>
      <trkpt lat="42.89105" lon="0.10724">
        <ele>1651</ele>
        <time>2022-02-22T12:29:06Z</time>
      </trkpt>
      <trkpt lat="42.89121" lon="0.10721">
        <ele>1647</ele>
        <time>2022-02-22T12:29:10Z</time>
      </trkpt>
      <trkpt lat="42.89125" lon="0.10719">
        <ele>1647</ele>
        <time>2022-02-22T12:29:11Z</time>
      </trkpt>
      <trkpt lat="42.89129" lon="0.10716">
        <ele>1647</ele>
        <time>2022-02-22T12:29:12Z</time>
      </trkpt>
      <trkpt lat="42.89134" lon="0.1071">
        <ele>1644</ele>
        <time>2022-02-22T12:29:14Z</time>
      </trkpt>
      <trkpt lat="42.89134" lon="0.10705">
        <ele>1643</ele>
        <time>2022-02-22T12:29:15Z</time>
      </trkpt>
      <trkpt lat="42.89142" lon="0.10686">
        <ele>1637</ele>
        <time>2022-02-22T12:29:18Z</time>
      </trkpt>
      <trkpt lat="42.89145" lon="0.10678">
        <ele>1634</ele>
        <time>2022-02-22T12:29:19Z</time>
      </trkpt>
      <trkpt lat="42.89153" lon="0.10665">
        <ele>1629</ele>
        <time>2022-02-22T12:29:21Z</time>
      </trkpt>
      <trkpt lat="42.89167" lon="0.10655">
        <ele>1626</ele>
        <time>2022-02-22T12:29:23Z</time>
      </trkpt>
      <trkpt lat="42.89178" lon="0.10654">
        <ele>1624</ele>
        <time>2022-02-22T12:29:25Z</time>
      </trkpt>
      <trkpt lat="42.89194" lon="0.1066">
        <ele>1623</ele>
        <time>2022-02-22T12:29:29Z</time>
      </trkpt>
      <trkpt lat="42.89202" lon="0.1066">
        <ele>1622</ele>
        <time>2022-02-22T12:29:31Z</time>
      </trkpt>
      <trkpt lat="42.8921" lon="0.10657">
        <ele>1620</ele>
        <time>2022-02-22T12:29:32Z</time>
      </trkpt>
      <trkpt lat="42.89232" lon="0.10655">
        <ele>1616</ele>
        <time>2022-02-22T12:29:36Z</time>
      </trkpt>
      <trkpt lat="42.89237" lon="0.10653">
        <ele>1615</ele>
        <time>2022-02-22T12:29:37Z</time>
      </trkpt>
      <trkpt lat="42.89246" lon="0.10651">
        <ele>1613</ele>
        <time>2022-02-22T12:29:38Z</time>
      </trkpt>
      <trkpt lat="42.89276" lon="0.10649">
        <ele>1609</ele>
        <time>2022-02-22T12:29:43Z</time>
      </trkpt>
      <trkpt lat="42.893" lon="0.10649">
        <ele>1606</ele>
        <time>2022-02-22T12:29:47Z</time>
      </trkpt>
      <trkpt lat="42.89308" lon="0.10644">
        <ele>1604</ele>
        <time>2022-02-22T12:29:49Z</time>
      </trkpt>
      <trkpt lat="42.89315" lon="0.10636">
        <ele>1600</ele>
        <time>2022-02-22T12:29:51Z</time>
      </trkpt>
      <trkpt lat="42.89327" lon="0.10637">
        <ele>1598</ele>
        <time>2022-02-22T12:29:53Z</time>
      </trkpt>
      <trkpt lat="42.89333" lon="0.10637">
        <ele>1597</ele>
        <time>2022-02-22T12:29:54Z</time>
      </trkpt>
      <trkpt lat="42.8935" lon="0.10644">
        <ele>1596</ele>
        <time>2022-02-22T12:29:57Z</time>
      </trkpt>
      <trkpt lat="42.89365" lon="0.10637">
        <ele>1593</ele>
        <time>2022-02-22T12:30:00Z</time>
      </trkpt>
      <trkpt lat="42.89385" lon="0.10632">
        <ele>1587</ele>
        <time>2022-02-22T12:30:03Z</time>
      </trkpt>
      <trkpt lat="42.89398" lon="0.10639">
        <ele>1585</ele>
        <time>2022-02-22T12:30:05Z</time>
      </trkpt>
      <trkpt lat="42.89406" lon="0.10645">
        <ele>1585</ele>
        <time>2022-02-22T12:30:06Z</time>
      </trkpt>
      <trkpt lat="42.8942" lon="0.1064">
        <ele>1581</ele>
        <time>2022-02-22T12:30:10Z</time>
      </trkpt>
      <trkpt lat="42.89422" lon="0.10637">
        <ele>1580</ele>
        <time>2022-02-22T12:30:11Z</time>
      </trkpt>
      <trkpt lat="42.89438" lon="0.10641">
        <ele>1578</ele>
        <time>2022-02-22T12:30:15Z</time>
      </trkpt>
      <trkpt lat="42.89431" lon="0.10638">
        <ele>1578</ele>
        <time>2022-02-22T12:30:25Z</time>
      </trkpt>
      <trkpt lat="42.89427" lon="0.10645">
        <ele>1578</ele>
        <time>2022-02-22T12:30:47Z</time>
      </trkpt>
      <trkpt lat="42.8942" lon="0.1064">
        <ele>1579</ele>
        <time>2022-02-22T12:31:11Z</time>
      </trkpt>
      <trkpt lat="42.89419" lon="0.10636">
        <ele>1580</ele>
        <time>2022-02-22T12:31:30Z</time>
      </trkpt>
      <trkpt lat="42.89421" lon="0.10642">
        <ele>1580</ele>
        <time>2022-02-22T12:31:55Z</time>
      </trkpt>
      <trkpt lat="42.89421" lon="0.10643">
        <ele>1580</ele>
        <time>2022-02-22T12:31:59Z</time>
      </trkpt>
      <trkpt lat="42.89434" lon="0.10625">
        <ele>1577</ele>
        <time>2022-02-22T12:32:05Z</time>
      </trkpt>
      <trkpt lat="42.89444" lon="0.1061">
        <ele>1572</ele>
        <time>2022-02-22T12:32:08Z</time>
      </trkpt>
      <trkpt lat="42.89454" lon="0.10595">
        <ele>1569</ele>
        <time>2022-02-22T12:32:11Z</time>
      </trkpt>
      <trkpt lat="42.89466" lon="0.1058">
        <ele>1566</ele>
        <time>2022-02-22T12:32:14Z</time>
      </trkpt>
      <trkpt lat="42.89478" lon="0.10567">
        <ele>1562</ele>
        <time>2022-02-22T12:32:17Z</time>
      </trkpt>
      <trkpt lat="42.89493" lon="0.1055">
        <ele>1560</ele>
        <time>2022-02-22T12:32:22Z</time>
      </trkpt>
      <trkpt lat="42.8951" lon="0.10535">
        <ele>1555</ele>
        <time>2022-02-22T12:32:26Z</time>
      </trkpt>
      <trkpt lat="42.8953" lon="0.10522">
        <ele>1550</ele>
        <time>2022-02-22T12:32:30Z</time>
      </trkpt>
      <trkpt lat="42.89534" lon="0.10519">
        <ele>1550</ele>
        <time>2022-02-22T12:32:31Z</time>
      </trkpt>
      <trkpt lat="42.89538" lon="0.10511">
        <ele>1549</ele>
        <time>2022-02-22T12:32:33Z</time>
      </trkpt>
      <trkpt lat="42.89543" lon="0.10492">
        <ele>1547</ele>
        <time>2022-02-22T12:32:44Z</time>
      </trkpt>
      <trkpt lat="42.89543" lon="0.1048">
        <ele>1548</ele>
        <time>2022-02-22T12:32:59Z</time>
      </trkpt>
      <trkpt lat="42.89547" lon="0.10466">
        <ele>1546</ele>
        <time>2022-02-22T12:33:12Z</time>
      </trkpt>
      <trkpt lat="42.89551" lon="0.10456">
        <ele>1547</ele>
        <time>2022-02-22T12:33:18Z</time>
      </trkpt>
      <trkpt lat="42.89562" lon="0.10447">
        <ele>1547</ele>
        <time>2022-02-22T12:33:28Z</time>
      </trkpt>
      <trkpt lat="42.89565" lon="0.10455">
        <ele>1547</ele>
        <time>2022-02-22T12:33:42Z</time>
      </trkpt>
      <trkpt lat="42.89567" lon="0.10456">
        <ele>1547</ele>
        <time>2022-02-22T12:33:58Z</time>
      </trkpt>
      <trkpt lat="42.89569" lon="0.10456">
        <ele>1546</ele>
        <time>2022-02-22T12:34:00Z</time>
      </trkpt>
      <trkpt lat="42.89588" lon="0.10466">
        <ele>1544</ele>
        <time>2022-02-22T12:34:08Z</time>
      </trkpt>
      <trkpt lat="42.8961" lon="0.10473">
        <ele>1543</ele>
        <time>2022-02-22T12:34:13Z</time>
      </trkpt>
      <trkpt lat="42.89627" lon="0.10479">
        <ele>1541</ele>
        <time>2022-02-22T12:34:17Z</time>
      </trkpt>
      <trkpt lat="42.89641" lon="0.10484">
        <ele>1540</ele>
        <time>2022-02-22T12:34:20Z</time>
      </trkpt>
      <trkpt lat="42.89665" lon="0.10492">
        <ele>1537</ele>
        <time>2022-02-22T12:34:25Z</time>
      </trkpt>
      <trkpt lat="42.89687" lon="0.10499">
        <ele>1534</ele>
        <time>2022-02-22T12:34:29Z</time>
      </trkpt>
      <trkpt lat="42.89703" lon="0.10504">
        <ele>1530</ele>
        <time>2022-02-22T12:34:32Z</time>
      </trkpt>
      <trkpt lat="42.89709" lon="0.10506">
        <ele>1530</ele>
        <time>2022-02-22T12:34:33Z</time>
      </trkpt>
      <trkpt lat="42.89723" lon="0.10504">
        <ele>1527</ele>
        <time>2022-02-22T12:34:35Z</time>
      </trkpt>
      <trkpt lat="42.89735" lon="0.105">
        <ele>1526</ele>
        <time>2022-02-22T12:34:37Z</time>
      </trkpt>
      <trkpt lat="42.89753" lon="0.105">
        <ele>1524</ele>
        <time>2022-02-22T12:34:40Z</time>
      </trkpt>
      <trkpt lat="42.89759" lon="0.10502">
        <ele>1523</ele>
        <time>2022-02-22T12:34:41Z</time>
      </trkpt>
      <trkpt lat="42.89795" lon="0.10501">
        <ele>1519</ele>
        <time>2022-02-22T12:34:47Z</time>
      </trkpt>
      <trkpt lat="42.89801" lon="0.10496">
        <ele>1519</ele>
        <time>2022-02-22T12:34:48Z</time>
      </trkpt>
      <trkpt lat="42.89821" lon="0.1048">
        <ele>1517</ele>
        <time>2022-02-22T12:34:51Z</time>
      </trkpt>
      <trkpt lat="42.8984" lon="0.10463">
        <ele>1516</ele>
        <time>2022-02-22T12:34:54Z</time>
      </trkpt>
      <trkpt lat="42.8986" lon="0.10457">
        <ele>1513</ele>
        <time>2022-02-22T12:34:57Z</time>
      </trkpt>
      <trkpt lat="42.89866" lon="0.10455">
        <ele>1513</ele>
        <time>2022-02-22T12:34:58Z</time>
      </trkpt>
      <trkpt lat="42.89876" lon="0.10451">
        <ele>1511</ele>
        <time>2022-02-22T12:34:59Z</time>
      </trkpt>
      <trkpt lat="42.8989" lon="0.10447">
        <ele>1507</ele>
        <time>2022-02-22T12:35:01Z</time>
      </trkpt>
      <trkpt lat="42.89899" lon="0.10443">
        <ele>1508</ele>
        <time>2022-02-22T12:35:02Z</time>
      </trkpt>
      <trkpt lat="42.89917" lon="0.10432">
        <ele>1504</ele>
        <time>2022-02-22T12:35:04Z</time>
      </trkpt>
      <trkpt lat="42.89944" lon="0.10427">
        <ele>1501</ele>
        <time>2022-02-22T12:35:07Z</time>
      </trkpt>
      <trkpt lat="42.89951" lon="0.10427">
        <ele>1502</ele>
        <time>2022-02-22T12:35:08Z</time>
      </trkpt>
      <trkpt lat="42.89971" lon="0.10421">
        <ele>1501</ele>
        <time>2022-02-22T12:35:11Z</time>
      </trkpt>
      <trkpt lat="42.89983" lon="0.10417">
        <ele>1500</ele>
        <time>2022-02-22T12:35:13Z</time>
      </trkpt>
      <trkpt lat="42.90015" lon="0.10424">
        <ele>1500</ele>
        <time>2022-02-22T12:35:22Z</time>
      </trkpt>
      <trkpt lat="42.9003" lon="0.10418">
        <ele>1500</ele>
        <time>2022-02-22T12:35:27Z</time>
      </trkpt>
      <trkpt lat="42.90053" lon="0.1041">
        <ele>1496</ele>
        <time>2022-02-22T12:35:31Z</time>
      </trkpt>
      <trkpt lat="42.90081" lon="0.10394">
        <ele>1493</ele>
        <time>2022-02-22T12:35:35Z</time>
      </trkpt>
      <trkpt lat="42.90124" lon="0.1038">
        <ele>1488</ele>
        <time>2022-02-22T12:35:41Z</time>
      </trkpt>
      <trkpt lat="42.90131" lon="0.1038">
        <ele>1488</ele>
        <time>2022-02-22T12:35:42Z</time>
      </trkpt>
      <trkpt lat="42.90156" lon="0.10363">
        <ele>1485</ele>
        <time>2022-02-22T12:35:46Z</time>
      </trkpt>
      <trkpt lat="42.9017" lon="0.10364">
        <ele>1484</ele>
        <time>2022-02-22T12:35:48Z</time>
      </trkpt>
      <trkpt lat="42.90198" lon="0.10365">
        <ele>1482</ele>
        <time>2022-02-22T12:35:52Z</time>
      </trkpt>
      <trkpt lat="42.90223" lon="0.10357">
        <ele>1480</ele>
        <time>2022-02-22T12:35:56Z</time>
      </trkpt>
      <trkpt lat="42.90242" lon="0.10353">
        <ele>1478</ele>
        <time>2022-02-22T12:35:59Z</time>
      </trkpt>
      <trkpt lat="42.90254" lon="0.10352">
        <ele>1477</ele>
        <time>2022-02-22T12:36:01Z</time>
      </trkpt>
      <trkpt lat="42.90267" lon="0.10347">
        <ele>1476</ele>
        <time>2022-02-22T12:36:04Z</time>
      </trkpt>
      <trkpt lat="42.90287" lon="0.10348">
        <ele>1475</ele>
        <time>2022-02-22T12:36:09Z</time>
      </trkpt>
      <trkpt lat="42.90309" lon="0.10346">
        <ele>1473</ele>
        <time>2022-02-22T12:36:14Z</time>
      </trkpt>
      <trkpt lat="42.90313" lon="0.10344">
        <ele>1473</ele>
        <time>2022-02-22T12:36:15Z</time>
      </trkpt>
      <trkpt lat="42.90318" lon="0.10339">
        <ele>1472</ele>
        <time>2022-02-22T12:36:17Z</time>
      </trkpt>
      <trkpt lat="42.90331" lon="0.10341">
        <ele>1472</ele>
        <time>2022-02-22T12:36:21Z</time>
      </trkpt>
      <trkpt lat="42.90335" lon="0.10333">
        <ele>1471</ele>
        <time>2022-02-22T12:36:25Z</time>
      </trkpt>
      <trkpt lat="42.90338" lon="0.10329">
        <ele>1471</ele>
        <time>2022-02-22T12:36:27Z</time>
      </trkpt>
      <trkpt lat="42.90358" lon="0.10334">
        <ele>1470</ele>
        <time>2022-02-22T12:36:35Z</time>
      </trkpt>
      <trkpt lat="42.90362" lon="0.10338">
        <ele>1472</ele>
        <time>2022-02-22T12:36:38Z</time>
      </trkpt>
      <trkpt lat="42.90373" lon="0.1035">
        <ele>1473</ele>
        <time>2022-02-22T12:36:50Z</time>
      </trkpt>
      <trkpt lat="42.90376" lon="0.10355">
        <ele>1472</ele>
        <time>2022-02-22T12:36:55Z</time>
      </trkpt>
      <trkpt lat="42.90382" lon="0.10355">
        <ele>1471</ele>
        <time>2022-02-22T12:37:11Z</time>
      </trkpt>
      <trkpt lat="42.90384" lon="0.10356">
        <ele>1470</ele>
        <time>2022-02-22T12:37:28Z</time>
      </trkpt>
      <trkpt lat="42.90384" lon="0.10355">
        <ele>1470</ele>
        <time>2022-02-22T12:37:46Z</time>
      </trkpt>
      <trkpt lat="42.90381" lon="0.10353">
        <ele>1470</ele>
        <time>2022-02-22T12:38:06Z</time>
      </trkpt>
      <trkpt lat="42.90381" lon="0.10352">
        <ele>1471</ele>
        <time>2022-02-22T12:38:07Z</time>
      </trkpt>
      <trkpt lat="42.90388" lon="0.10351">
        <ele>1470</ele>
        <time>2022-02-22T12:38:12Z</time>
      </trkpt>
      <trkpt lat="42.90395" lon="0.10347">
        <ele>1470</ele>
        <time>2022-02-22T12:38:18Z</time>
      </trkpt>
      <trkpt lat="42.90418" lon="0.10336">
        <ele>1469</ele>
        <time>2022-02-22T12:38:36Z</time>
      </trkpt>
      <trkpt lat="42.90425" lon="0.10326">
        <ele>1469</ele>
        <time>2022-02-22T12:38:49Z</time>
      </trkpt>
    </trkseg>
  </trk>
</gpx>